     2.11           OBSERVATION DATA    G (GPS)             RINEX VERSION / TYPE
teqc 2010Oct21 OPUS Account 20111025 14:47:09UTC            PGM / RUN BY / DATE
F 1521                                                      MARKER NAME
1125                                                        MARKER NUMBER
CSMIDDLETON NGS                                             OBSERVER / AGENCY
4624K01584 TRIMBLE NETR5 4.41                               REC # / TYPE / VERS
60177755 TRM41249.00 NONE                                   ANT # / TYPE
  -740605.2087 -5465471.4165  3192741.0255                  APPROX POSITION XYZ
        2.0000        0.0000        0.0000                  ANTENNA: DELTA H/E/N
     1     1                                                WAVELENGTH FACT L1/2
     5    L1    L2    C1    P1    P2                        # / TYPES OF OBSERV
    15                                                      LEAP SECONDS
  2011     7    24     0     0    0.0000000     GPS         TIME OF FIRST OBS
                                                            END OF HEADER
 11  7 24  0  0  0.0000000  0  9G04G28G20G27G32G17G09G02G10
 105520807.081 8  82224104.56146  20079907.820                    20079916.383
 113196846.976 8  88205428.51445  21540633.766                    21540640.750
 126304991.979 6  98419366.96643  24035001.055                    24035009.660
 118412553.362 7  92269615.19745  22533168.492                    22533176.371
 136264225.701 5                  25930239.836
 111327173.963 8  86748443.215 7  21184824.000
 117793404.953 7  91787169.35044  22415348.242                    22415357.660
 120229210.527 7  93685133.58245  22878836.430                    22878844.207
 127087210.654 5  99028986.99143  24183874.148                    24183887.480
 11  7 24  0  0 30.0000000  0  9G04G28G20G27G32G17G09G02G10
 105486352.198 8  82197256.63246  20073351.508                    20073359.863
 113235530.181 8  88235571.24545  21547994.500                    21548002.406
 126322252.764 7  98432816.93643  24038285.492                    24038295.051
 118385874.358 7  92248826.36645  22528091.367                    22528099.918
 136307190.511 5                  25938413.906
 111354997.069 8  86770123.572 7  21190118.820
 117745253.876 7  91749649.04844  22406185.516                    22406194.914
 120140343.687 7  93615886.78945  22861925.539                    22861933.582
 126993510.713 6  98955974.36043  24166044.227                    24166057.602
 11  7 24  0  1  0.0000000  0  8G04G28G20G27G17G09G02G10
 105452466.031 8  82170851.84746  20066903.266                    20066911.461
 113274575.772 8  88265996.35645  21555424.906                    21555431.707
 126340018.317 6  98446660.25143  24041666.563                    24041675.035
 118359678.383 7  92228413.91545  22523106.094                    22523114.867
 111382934.264 7  86791892.817 7  21195435.352
 117697700.888 7  91712594.77545  22397135.820                    22397145.699
 120051716.211 7  93546826.50945  22845060.000                    22845068.625
 126899751.741 5  98882915.73943  24148200.906                    24148215.590
 11  7 24  0  1 30.0000000  0  9G04G28G20G27G32G17G09G02G10
 105419148.139 8  82144889.89146  20060562.703                    20060571.363
 113313983.836 8  88296703.92545  21562923.609                    21562930.859
 126358287.987 7  98460896.36343  24045143.180                    24045152.020
 118333965.266 7  92208377.69345  22518213.570                    22518222.398
 136394384.55215                  25955006.828
 111410983.408 7  86813749.293 7  21200772.570
 117650747.195 7  91676007.48044  22388200.820                    22388210.734
 119963329.165 7  93477953.58845  22828240.336                    22828248.484
 126805935.964 5  98809812.88543  24130349.539                    24130362.094
 11  7 24  0  2  0.0000000  0  9G04G28G20G27G32G17G09G02G10
 105386398.999 7  82119371.12146  20054331.164                    20054339.441
 113353754.739 7  88327694.21945  21570492.297                    21570499.637
 126377061.690 6  98475525.25543  24048715.070                    24048723.977
 118308735.439 7  92188718.07045  22513412.531                    22513421.746
 136438613.12614                  25963424.500
 111439143.926 7  86835692.568 7  21206131.344
 117604393.926 7  91639888.10144  22379380.320                    22379390.082
 119875183.874 7  93409269.02245  22811467.484                    22811474.117
 126712066.297 6  98736667.97743  24112486.570                    24112498.738
 11  7 24  0  2 30.0000000  0  8G04G28G20G27G17G09G02G10
 105354219.663 8  82094296.33246  20048207.289                    20048215.629
 113393889.220 8  88358967.82246  21578129.008                    21578137.352
 126396339.993 6  98490547.33943  24052383.898                    24052392.621
 118283990.049 7  92169435.93345  22508703.102                    22508712.223
 111467415.902 7  86857722.671 7  21211511.492
 117558643.220 7  91604238.21545  22370674.617                    22370683.211
 119787282.920 7  93340774.82745  22794739.906                    22794747.621
 126618145.835 6  98663483.49943  24094614.188                    24094625.656
 11  7 24  0  3  0.0000000  0  8G04G28G20G27G17G09G02G10
 105322610.516 8  82069665.85646  20042192.234                    20042200.816
 113434387.909 8  88390525.21545  21585836.055                    21585843.715
 126416122.896 6  98505962.61243  24056148.469                    24056157.809
 118259729.630 7  92150531.69745  22504086.750                    22504095.996
 111495798.522 7  86879839.006 7  21216912.578
 117513496.597 7  91569059.03744  22362082.836                    22362091.871
 119699627.602 7  93272472.07245  22778059.703                    22778067.660
 126524177.537 6  98590261.68843  24076732.094                    24076743.258
 11  7 24  0  3 30.0000000  0  8G04G28G20G27G17G09G02G10
 105291571.800 8  82045479.86746  20036285.898                    20036294.113
 113475250.931 8  88422366.51146  21593612.336                    21593619.672
 126436410.279 7  98521770.99343  24060009.414                    24060017.480
 118235954.576 7  92132005.65145  22499562.430                    22499571.434
 111524291.011 7  86902040.945 7  21222334.391
 117468955.249 7  91534351.50944  22353607.773                    22353616.555
 119612219.248 7  93204361.78445  22761426.164                    22761433.977
 126430164.036 6  98517004.55343  24058842.133                    24058853.078
 11  7 24  0  4  0.0000000  0  8G04G28G20G27G17G09G02G10
 105261104.139 7  82021738.86646  20030487.852                    20030496.309
 113516478.827 8  88454492.12345  21601457.602                    21601465.211
 126457202.283 7  98537972.55243  24063965.328                    24063973.871
 118212665.408 7  92113858.22945  22495130.695                    22495139.422
 111552892.908 7  86924328.139 7  21227776.938
 117425020.753 7  91500116.86745  22345246.805                    22345255.727
 119525059.935 7  93136445.54045  22744840.445                    22744848.516
 126336108.605 6  98443714.77843  24040943.836                    24040954.828
 11  7 24  0  4 30.0000000  0  8G04G28G20G27G17G09G02G10
 105231207.705 8  81998442.96746  20024799.039                    20024807.191
 113558071.890 8  88486902.28545  21609372.617                    21609379.691
 126478498.702 6  98554567.18743  24068018.242                    24068027.656
 118189862.547 7  92096089.74845  22490791.422                    22490799.789
 111581603.617 7  86946700.110 7  21233240.563
 117381694.430 7  91466356.13444  22337002.063                    22337010.895
 119438150.905 7  93068724.30545  22728302.469                    22728310.090
 126242013.779 6  98370394.36643  24023037.344                    24023049.336
 11  7 24  0  5  0.0000000  0  8G04G28G20G27G17G09G02G10
 105201883.009 8  81975592.56746  20019218.727                    20019226.859
 113600030.438 8  88519597.23145  21617356.805                    21617364.945
 126500299.522 6  98571554.80343  24072166.648                    24072175.402
 118167546.783 7  92078700.84245  22486545.359                    22486553.824
 111610422.445 7  86969156.345 7  21238724.609
 117338977.858 7  91433070.50644  22328873.703                    22328882.766
 119351493.813 7  93001199.39345  22711812.055                    22711819.523
 126147882.343 6  98297045.41543  24005124.891                    24005137.059
 11  7 24  0  5 30.0000000  0  8G04G28G20G27G17G09G02G10
 105173130.716 8  81953188.21346  20013747.156                    20013755.492
 113642355.268 8  88552577.57545  21625411.109                    21625418.797
 126522604.989 7  98588935.73143  24076411.352                    24076419.922
 118145718.765 7  92061691.96645  22482391.375                    22482400.094
 111639349.461 7  86991696.868 7  21244228.992
 117296872.281 7  91400261.02245  22320861.031                    22320870.223
 119265090.502 7  92933872.22745  22695369.695                    22695377.211
 126053717.655 6  98223670.58343  23987206.172                    23987218.086
 11  7 24  0  6  0.0000000  0  8G04G28G20G27G17G09G02G10
 105144950.821 8  81931229.87446  20008385.055                    20008393.352
 113685046.748 8  88585843.64045  21633535.000                    21633542.965
 126545415.011 6  98606709.75343  24080752.125                    24080760.395
 118124378.767 8  92045063.37745  22478330.531                    22478339.578
 111668383.813 8  87014321.022 7  21249754.211
 117255379.025 7  91367928.67044  22312965.172                    22312973.453
 119178942.460 7  92866743.97945  22678976.570                    22678983.512
 125959522.750 6  98150272.24443  23969280.781                    23969292.934
 11  7 24  0  6 30.0000000  0  8G04G28G20G27G17G09G02G10
 105117343.543 8  81909717.73746  20003131.336                    20003139.602
 113728104.476 8  88619395.08945  21641728.734                    21641736.234
 126568728.977 6  98624876.48143  24085188.547                    24085197.027
 118103527.082 7  92028815.29745  22474362.508                    22474371.504
 111697524.668 8  87037028.174 7  21255299.820
 117214499.253 7  91336074.34244  22305186.039                    22305194.777
 119093050.893 7  92799815.61945  22662631.617                    22662639.426
 125865300.232 6  98076852.30943  23951350.758                    23951363.293
 11  7 24  0  7  0.0000000  0  8G04G28G20G27G17G09G02G10
 105090309.139 8  81888651.99146  19997986.883                    19997994.789
 113771529.537 8  88653232.78245  21649992.195                    21649999.813
 126592547.090 6  98643436.13243  24089721.016                    24089729.754
 118083164.099 7  92012948.03145  22470487.305                    22470496.410
 111726771.447 8  87059817.863 7  21260865.094
 117174234.189 7  91304699.00244  22297524.117                    22297532.500
 119007417.544 7  92733088.43645  22646335.922                    22646343.820
 125771053.256 6  98003413.30343  23933416.641                    23933428.219
 11  7 24  0  7 30.0000000  0  8G04G28G20G27G17G09G02G10
 105063848.082 8  81868033.00846  19992951.484                    19992959.293
 113815322.308 8  88687356.99645  21658325.242                    21658333.438
 126616869.226 6  98662388.44243  24094349.008                    24094357.730
 118063290.181 7  91997461.84045  22466706.016                    22466714.539
 111756123.697 8  87082689.733 7  21266450.484
 117134585.178 7  91273803.72644  22289978.484                    22289987.012
 118922044.242 7  92666563.90245  22630089.680                    22630097.648
 125676784.710 6  97929957.51043  23915477.781                    23915489.102
 11  7 24  0  8  0.0000000  0  8G04G28G20G27G17G09G02G10
 105037960.506 8  81847860.88446  19988025.000                    19988033.633
 113859482.535 8  88721767.54345  21666729.234                    21666736.961
 126641695.288 6  98681733.39443  24099073.383                    24099082.305
 118043905.725 8  91982357.08945  22463016.977                    22463026.090
 111785580.950 8  87105643.425 7  21272056.047
 117095553.584 7  91243389.52345  22282551.195                    22282559.621
 118836932.239 7  92600242.96145  22613893.016                    22613900.512
 125582497.278 6  97856487.00943  23897534.180                    23897546.352
 11  7 24  0  8 30.0000000  0  8G04G28G20G27G17G09G02G10
 105012646.565 8  81828135.75146  19983208.250                    19983216.234
 113904010.718 8  88756464.80945  21675202.242                    21675210.445
 126667024.923 6  98701470.81443  24103893.781                    24103901.855
 118025011.195 8  91967634.07545  22459421.844                    22459430.668
 111815142.753 8  87128678.582 7  21277681.375
 117057140.299 7  91213457.11845  22275241.570                    22275250.250
 118752083.372 7  92534127.04545  22597747.078                    22597754.387
 125488194.100 6  97783004.21343  23879589.281                    23879600.996
 11  7 24  0  9  0.0000000  0  8G04G28G20G27G17G09G02G10
 104987906.865 8  81808858.08146  19978500.227                    19978508.215
 113948907.404 8  88791449.18545  21683745.977                    21683753.645
 126692858.300 6  98721600.73243  24108808.797                    24108818.414
 118006607.206 7  91953293.31745  22455919.680                    22455928.824
 111844808.977 8  87151795.114 7  21283326.625
 117019346.981 7  91184007.81645  22268049.766                    22268058.551
 118667498.786 7  92468217.08645  22581651.352                    22581658.484
 125393878.503 6  97709511.75544  23861641.891                    23861653.371
 11  7 24  0  9 30.0000000  0  8G04G28G20G27G17G09G02G10
 104963741.041 8  81790027.58346  19973901.375                    19973909.750
 113994172.660 8  88826720.80545  21692360.094                    21692367.879
 126719194.685 6  98742122.61143  24113820.719                    24113829.641
 117988693.654 7  91939334.70645  22452510.211                    22452519.211
 111874578.682 8  87174992.257 7  21288991.836
 116982174.238 7  91155042.06045  22260975.547                    22260984.582
 118583180.298 7  92402514.44945  22565605.641                    22565613.141
 125299553.195 6  97636011.70444  23843692.031                    23843703.387
 11  7 24  0 10  0.0000000  0  8G04G28G20G27G17G09G02G10
 104940149.617 8  81771644.66546  19969412.469                    19969420.453
 114039807.053 8  88862280.07045  21701043.422                    21701051.465
 126746034.073 6  98763036.42643  24118927.766                    24118937.137
 117971271.035 7  91925758.65345  22449195.172                    22449203.848
 111904451.345 8  87198269.629 7  21294676.305
 116945623.484 7  91126560.95845  22254020.703                    22254029.453
 118499129.397 7  92337020.34045  22549611.656                    22549619.066
 125205221.428 6  97562506.63643  23825740.531                    23825752.750
 11  7 24  0 10 30.0000000  0  8G04G28G20G27G17G09G02G10
 104917132.530 8  81753709.29146  19965032.094                    19965040.672
 114085810.614 7  88898126.95645  21709798.023                    21709805.762
 126773376.299 5  98784342.10642  24124130.836                    24124139.883
 117954339.516 7  91912565.26445  22445973.344                    22445981.156
 111934426.603 8  87221626.961 7  21300380.883
 116909695.841 7  91098565.38744  22247184.039                    22247191.883
 118415347.412 7  92271735.76245  22533668.219                    22533675.059
 125110886.075 6  97488998.74543  23807789.477                    23807801.461
 11  7 24  0 11  0.0000000  0  8G04G28G20G27G17G09G02G10
 104894689.585 8  81736221.29646  19960761.398                    19960769.820
 114132183.590 8  88934261.72945  21718622.586                    21718629.805
 126801220.868 6  98806039.16543  24129429.758                    24129439.145
 117937899.257 7  91899754.70145  22442844.344                    22442853.094
 111964503.785 8  87245063.720 7  21306104.047
 116874392.075 7  91071055.94945  22240465.578                    22240474.531
 118331835.807 7  92206661.88345  22517776.586                    22517784.426
 125016549.984 7  97415490.23243  23789837.469                    23789848.508
 11  7 24  0 11 30.0000000  0  8G04G28G20G27G17G09G02G10
 104872821.280 8  81719181.07446  19956599.992                    19956608.441
 114178926.095 8  88970684.45645  21727517.445                    21727525.391
 126829567.376 5  98828127.37343  24134823.992                    24134833.047
 117921950.723 7  91887327.26645  22439809.492                    22439818.672
 111994682.754 8  87268579.788 7  21311847.195
 116839713.379 7  91044033.57345  22233866.547                    22233875.180
 118248596.370 7  92141800.09245  22501936.836                    22501944.246
 124922216.856 7  97341984.04843  23771886.313                    23771897.164
 11  7 24  0 12  0.0000000  0  8G04G28G20G27G17G09G02G10
 104851527.525 8  81702588.54846  19952548.141                    19952556.215
 114226038.294 8  89007395.20945  21736482.625                    21736490.355
 126858415.586 6  98850606.52543  24140314.070                    24140322.633
 117906494.100 7  91875283.12845  22436868.305                    22436877.031
 112024962.905 8  87292174.691 7  21317609.016
 116805660.676 7  91017498.96245  22227386.672                    22227395.453
 118165630.412 7  92077151.39345  22486148.367                    22486155.691
 124827889.214 6  97268482.15743  23753936.750                    23753947.348
 11  7 24  0 12 30.0000000  0  8G04G28G20G27G17G09G02G10
 104830808.034 8  81686443.50846  19948604.984                    19948613.203
 114273520.373 8  89044394.21645  21745518.148                    21745525.344
 126887765.132 6  98873476.31543  24145899.414                    24145907.566
 117891529.165 7  91863622.12745  22434020.516                    22434029.262
 112055343.365 8  87315847.763 7  21323390.234
 116772234.976 7  90991452.93445  22221025.766                    22221034.641
 118082939.142 7  92012716.70745  22470412.961                    22470420.219
 124733569.766 7  97194986.65443  23735987.250                    23735999.176
 11  7 24  0 13  0.0000000  0  8G04G28G20G27G17G09G02G10
 104810663.254 8  81670746.29546  19944771.945                    19944779.871
 114321372.973 8  89081681.92945  21754623.406                    21754630.613
 126917615.726 6  98896736.50343  24151578.516                    24151588.016
 117877056.534 8  91852344.75345  22431266.438                    22431275.367
 112085824.352 8  87339599.173 7  21329190.805
 116739437.377 7  90965896.34645  22214784.172                    22214793.625
 118000524.604 7  91948497.66345  22454729.734                    22454736.934
 124639261.981 7  97121500.22343  23718041.891                    23718052.609
 11  7 24  0 13 30.0000000  0  8G04G28G20G27G17G09G02G10
 104791093.001 8  81655496.76246  19941047.930                    19941055.832
 114369595.832 8  89119258.16645  21763800.797                    21763808.250
 126947966.886 6  98920386.71143  24157354.000                    24157363.715
 117863076.179 7  91841450.97445  22428606.672                    22428615.410
 112116405.010 8  87363428.259 7  21335010.211
 116707268.717 7  90940829.86045  22208663.109                    22208671.906
 117918387.721 7  91884494.99345  22439098.984                    22439107.113
 124544968.935 7  97048025.28443  23700098.453                    23700108.887
 11  7 24  0 14  0.0000000  0  8G04G28G20G27G17G09G02G10
 104772097.687 8  81640695.23146  19937432.953                    19937441.012
 114418189.371 8  89157123.21345  21773047.727                    21773056.262
 126978818.536 6  98944427.00243  24163225.898                    24163235.164
 117849588.658 7  91830941.20045  22426039.867                    22426049.180
 112147085.691 8  87387335.267 7  21340848.328
 116675730.194 7  90916254.36245  22202661.422                    22202670.699
 117836530.537 7  91820710.26945  22423522.406                    22423530.055
 124450694.154 6  96974564.55643  23682158.320                    23682169.098
 11  7 24  0 14 30.0000000  0  8G04G28G20G27G17G09G02G10
 104753676.465 8  81626341.05246  19933927.414                    19933935.684
 114467153.350 8  89195276.92145  21782364.578                    21782372.484
 127010169.857 6  98968856.63643  24169191.648                    24169200.469
 117836593.696 7  91820815.26945  22423566.563                    22423576.387
 112177865.337 8  87411319.415 7  21346705.320
 116644822.025 7  90892170.08545  22196779.906                    22196788.875
 117754954.039 7  91757144.24745  22407998.750                    22408005.832
 124356439.902 6  96901119.90443  23664221.992                    23664233.184
 11  7 24  0 15  0.0000000  0  8G04G28G20G27G17G09G02G10
 104735829.794 8  81612434.56746  19930531.469                    19930539.313
 114516488.297 8  89233719.73245  21791753.781                    21791760.699
 127042020.210 6  98993675.10043  24175252.820                    24175261.570
 117824091.605 7  91811073.36245  22421187.672                    22421196.672
 112208743.631 8  87435380.427 7  21352581.375
 116614545.662 7  90868578.13845  22191018.563                    22191027.160
 117673659.756 7  91693798.11145  22392529.258                    22392536.801
 124262209.885 6  96827694.09243  23646290.648                    23646301.887
 11  7 24  0 15 30.0000000  0  8G04G28G20G27G17G09G02G10
 104718556.911 8  81598975.19146  19927244.695                    19927253.129
 114566193.969 8  89272451.40745  21801211.758                    21801220.461
 127074369.401 5  99018882.30543  24181408.969                    24181417.770
 117812082.016 7  91801715.26145  22418901.992                    22418911.527
 112239720.028 8  87459517.874 7  21358476.148
 116584901.591 7  90845478.88345  22185377.391                    22185386.281
 117592648.943 7  91630672.89145  22377112.852                    22377120.078
 124168006.667 6  96754289.13143  23628364.008                    23628375.465
 11  7 24  0 16  0.0000000  0  8G04G28G20G27G17G09G02G10
 104701858.267 8  81585963.28046  19924066.969                    19924075.145
 114616271.132 8  89311472.51545  21810741.883                    21810749.355
 127107216.735 6  99044477.68543  24187658.227                    24187667.703
 117800565.440 7  91792741.31045  22416710.992                    22416719.863
 112270794.239 8  87483731.539 7  21364389.141
 116555890.705 7  90822873.04245  22179856.641                    22179865.359
 117511923.413 7  91567769.98445  22361751.625                    22361758.980
 124073833.552 6  96680907.70443  23610442.703                    23610454.457
 11  7 24  0 16 30.0000000  0  8G04G28G20G27G17G09G02G10
 104685733.197 8  81573398.30246  19920998.094                    19921006.492
 114666718.763 8  89350782.33945  21820341.656                    21820349.328
 127140561.720 6  99070460.77842  24194004.383                    24194012.688
 117789541.405 7  91784151.16245  22414612.844                    22414622.141
 112301965.909 8  87508021.156 7  21370321.102
 116527513.296 7  90800760.80545  22174456.398                    22174465.805
 117431484.068 7  91505090.05145  22346444.500                    22346451.426
 123979693.792 6  96607552.26843  23592528.664                    23592539.297
 11  7 24  0 17  0.0000000  0  8G04G28G20G27G17G09G02G10
 104670181.711 8  81561280.28746  19918038.992                    19918047.027
 114717537.728 8  89390381.49345  21830011.516                    21830020.285
 127174403.848 6  99096831.32943  24200443.883                    24200453.043
 117779010.241 7  91775945.05245  22412609.047                    22412617.047
 112333234.933 8  87532386.620 7  21376271.133
 116499770.437 7  90779143.02545  22169177.719                    22169186.898
 117351332.369 7  91442634.25945  22331191.641                    22331199.215
 123885590.334 6  96534225.08843  23574621.422                    23574631.746
 11  7 24  0 17 30.0000000  0  9G12G04G28G20G27G17G09G02G10
 131693025.11615 102617950.65914  25060334.188
 104655203.740 8  81549609.15646  19915188.734                    19915196.656
 114768727.804 8  89430269.85045  21839753.313                    21839760.859
 127208742.527 6  99123588.72543  24206978.930                    24206987.484
 117768972.035 8  91768123.10145  22410698.766                    22410707.078
 112364600.253 8  87556827.129 7  21382240.258
 116472662.678 7  90758020.14645  22164019.289                    22164028.117
 117271470.009 7  91380403.92145  22315994.258                    22316001.559
 123791526.426 7  96460928.71243  23556721.930                    23556732.414
 11  7 24  0 18  0.0000000  0  9G12G04G28G20G27G17G09G02G10
 131597054.844 4                  25042068.344
 104640798.908 8  81538384.62546  19912447.594                    19912455.707
 114820289.179 8  89470447.51445  21849564.906                    21849573.070
 127243577.147 6  99150732.58543  24213608.539                    24213616.543
 117759426.650 7  91760685.13845  22408882.117                    22408890.813
 112396062.107 8  87581342.852 7  21388226.922
 116446190.801 7  90737392.73945  22158981.398                    22158990.867
 117191898.267 8  91318400.06945  22300852.234                    22300859.762
 123697504.962 7  96387665.39444  23538830.039                    23538840.637
 11  7 24  0 18 30.0000000  0  9G12G04G28G20G27G17G09G02G10
 131501029.19414                  25023794.023
 104626966.942 8  81527606.49446  19909815.438                    19909823.766
 114872221.759 7  89510914.42345  21859447.609                    21859455.402
 127278907.086 6  99178262.41243  24220330.422                    24220339.199
 117750373.972 8  91753631.11145  22407159.148                    22407168.605
 112427619.862 8  87605933.309 7  21394232.289
 116420355.322 7  90717261.20445  22154065.398                    22154074.406
 117112618.326 8  91256623.57345  22285765.930                    22285772.895
 123603529.329 7  96314437.78444  23520947.672                    23520957.758
 11  7 24  0 19  0.0000000  0  8G04G28G20G27G17G09G02G10
 104613708.098 8  81517274.94146  19907292.641                    19907300.648
 114924525.876 8  89551670.86845  21869399.984                    21869408.430
 127314731.970 6  99206177.92043  24227148.195                    24227156.879
 117741814.186 7  91746961.15445  22405530.805                    22405539.660
 112459273.595 8  87630598.541 7  21400255.672
 116395157.064 7  90697626.20345  22149269.961                    22149279.258
 117033631.989 7  91195075.84845  22270735.602                    22270742.633
 123509602.997 7  96241248.61144  23503072.891                    23503083.801
 11  7 24  0 19 30.0000000  0  8G04G28G20G27G17G09G02G10
 104601021.107 8  81507388.99646  19904878.367                    19904886.125
 114977200.959 8  89592716.38445  21879423.883                    21879431.922
 127351050.608 6  99234478.16743  24234059.742                    24234068.262
 117733746.705 7  91740674.82345  22403995.063                    22404004.344
 112491022.387 8  87655337.846 7  21406296.969
 116370596.184 7  90678487.85645  22144596.219                    22144605.125
 116954940.108 8  91133757.57345  22255760.969                    22255768.289
 123415728.410 7  96168099.76744  23485209.172                    23485219.809
 11  7 24  0 20  0.0000000  0  9G12G04G28G20G27G17G09G02G10
 131212574.76615                  24968918.352
 104588906.139 8  81497948.78446  19902572.617                    19902580.551
 115030247.424 8  89634051.27445  21889518.906                    21889526.477
 127387862.754 6  99263162.97943  24241064.164                    24241072.918
 117726171.650 7  91734772.17545  22402553.695                    22402563.238
 112522866.144 8  87680151.157 7  21412356.977
 116346673.534 7  90659846.81645  22140044.336                    22140052.586
 116876544.131 8  91072669.87645  22240842.406                    22240849.648
 123321909.196 6  96094994.02244  23467356.109                    23467366.441
 11  7 24  0 20 30.0000000  0  9G12G04G28G20G27G17G09G02G10
 131116342.88615                  24950603.039
 104577363.040 8  81488954.18246  19900376.008                    19900384.191
 115083665.250 7  89675675.52545  21899683.352                    21899691.504
 127425167.644 7  99292231.76243  24248163.031                    24248171.625
 117719089.191 7  91729253.35445  22401206.617                    22401215.465
 112554804.926 8  87705038.498 7  21418434.852
 116323389.812 7  90641703.62445  22135613.258                    22135622.566
 116798445.595 8  91011813.91445  22225980.992                    22225987.484
 123228148.455 6  96021933.86144  23449513.734                    23449524.656
 11  7 24  0 21  0.0000000  0  9G12G04G28G20G27G17G09G02G10
 131020062.98515                  24932283.820
 104566390.722 8  81480404.34446  19898288.055                    19898296.000
 115137454.023 8  89717588.82045  21909919.984                    21909927.086
 127462964.156 6  99321683.59843  24255355.586                    24255363.969
 117712498.770 7  91724117.94445  22399952.594                    22399961.090
 112586837.838 8  87729999.200 7  21424530.664
 116300745.210 7  90624058.45345  22131304.016                    22131313.371
 116720645.291 7  90951190.38145  22211175.813                    22211182.688
 123134449.315 6  95948921.66343  23431683.172                    23431693.715
 11  7 24  0 21 30.0000000  0  9G12G04G28G20G27G17G09G02G10
 130923736.22215 102018500.35914  24913951.039
 104555989.023 8  81472299.14446  19896308.602                    19896316.719
 115191613.711 8  89759791.19345  21920225.875                    21920233.742
 127501251.714 6  99351518.08343  24262641.789                    24262650.570
 117706399.992 7  91719365.65245  22398791.867                    22398800.195
 112618964.773 8  87755033.175 7  21430643.711
 116278740.028 7  90606911.51345  22127116.766                    22127125.859
 116643144.825 7  90890800.48245  22196427.734                    22196434.848
 123040814.780 6  95875959.76743  23413865.555                    23413875.660
 11  7 24  0 22  0.0000000  0  9G12G04G28G20G27G17G09G02G10
 130827364.47315 101943405.51314  24895613.945
 104546157.670 8  81464638.36746  19894437.750                    19894445.637
 115246144.325 7  89802282.52245  21930602.461                    21930610.270
 127540029.605 6  99381734.61843  24270020.586                    24270029.586
 117700792.874 7  91714996.46445  22397724.563                    22397733.648
 112651185.155 8  87780139.964 7  21436775.289
 116257374.726 7  90590263.18445  22123051.148                    22123060.094
 116565945.376 8  90830645.14545  22181737.305                    22181744.031
 122947247.947 6  95803050.66443  23396060.203                    23396070.316
 11  7 24  0 22 30.0000000  0  9G12G04G28G20G27G17G09G02G10
 130730949.27215 101868276.79315  24877266.563
 104536896.399 7  81457421.81846  19892675.578                    19892683.586
 115301046.039 8  89845063.03645  21941050.445                    21941057.574
 127579297.420 6  99412332.92743  24277493.203                    24277501.500
 117695677.628 7  91711010.53645  22396751.445                    22396760.449
 112683499.387 8  87805319.866 7  21442924.539
 116236650.086 7  90574114.08445  22119107.539                    22119115.824
 116489048.719 8  90770725.73245  22167103.789                    22167110.965
 122853752.356 7  95730197.07944  23378268.000                    23378278.609
 11  7 24  0 23  0.0000000  0  9G12G04G28G20G27G17G09G02G10
 130634491.671 5 101793115.081 5  24858910.445
 104528204.635 8  81450649.03546  19891021.461                    19891029.492
 115356318.561 7  89888132.56445  21951567.977                    21951575.402
 127619053.856 6  99443311.97443  24285057.883                    24285066.863
 117691053.737 7  91707407.49345  22395871.484                    22395879.879
 112715906.911 8  87830572.480 7  21449091.359
 116216566.243 7  90558464.30545  22115285.641                    22115294.996
 116412455.669 8  90711042.91745  22152529.023                    22152535.871
 122760331.137 6  95657401.39343  23360490.695                    23360500.906
 11  7 24  0 23 30.0000000  0  9G12G04G28G20G27G17G09G02G10
 130537992.79415 101717921.17615  24840547.695
 104520081.058 8  81444319.00046  19889475.453                    19889483.617
 115411961.256 7  89931490.47445  21962156.313                    21962164.473
 127659297.844 6  99474670.96343  24292716.156                    24292725.422
 117686920.421 7  91704186.69345  22395084.859                    22395093.660
 112748406.939 8  87855897.173 7  21455275.789
 116197122.903 7  90543313.63145  22111585.492                    22111594.086
 116336167.270 8  90651597.47145  22138011.898                    22138019.234
 122666987.194 7  95584665.93644  23342728.203                    23342737.871
 11  7 24  0 24  0.0000000  0  9G12G04G28G20G27G17G09G02G10
 130441454.699 5 101642696.712 5  24822176.102
 104512525.799 8  81438431.79846  19888037.813                    19888045.770
 115467974.263 8  89975136.92145  21972815.477                    21972823.566
 127700028.916 6  99506409.43543  24300467.313                    24300476.141
 117683277.877 7  91701348.34145  22394391.805                    22394400.293
 112780999.488 8  87881293.962 7  21461478.484
 116178321.094 7  90528662.84845  22108008.031                    22108016.945
 116260184.962 7  90592390.54245  22123552.594                    22123559.594
 122573724.113 7  95511993.47844  23324980.102                    23324990.852
 11  7 24  0 24 30.0000000  0  9G12G04G28G20G27G17G09G02G10
 130344879.147 6 101567443.122 5  24803799.000
 104505538.937 8  81432987.52046  19886708.070                    19886716.313
 115524358.271 7  90019072.47345  21983545.430                    21983552.531
 127741246.707 6  99538527.20043  24308310.313                    24308319.289
 117680126.192 8  91698892.45645  22393791.563                    22393800.574
 112813684.977 8  87906763.166 7  21467698.203
 116160161.369 7  90514512.40945  22104552.602                    22104560.945
 116184510.590 8  90533423.57245  22109152.328                    22109159.355
 122480545.432 6  95439386.83744  23307248.555                    23307259.891
 11  7 24  0 25  0.0000000  0  9G12G04G28G20G27G17G09G02G10
 130248267.430 5 101492161.283 5  24785414.156
 104499118.818 8  81427984.84546  19885486.539                    19885494.773
 115581112.101 7  90063296.22345  21994344.914                    21994352.781
 127782949.335 6  99571022.77343  24316246.117                    24316254.379
 117677464.109 7  91696818.08545  22393285.484                    22393294.172
 112846462.043 8  87932303.737 7  21473935.461
 116142643.126 7  90500861.82845  22101218.422                    22101227.563
 116109144.376 8  90474696.72145  22094810.313                    22094817.504
 122387453.534 7  95366847.80944  23289533.914                    23289544.281
 11  7 24  0 25 30.0000000  0  9G12G04G28G20G27G17G09G02G10
 130151620.666 6 101416852.102 5  24767024.156
 104493264.996 8  81423423.45546  19884372.391                    19884380.617
 115638235.637 7  90107808.03445  22005215.430                    22005223.059
 127825136.157 6  99603895.65643  24324274.930                    24324282.859
 117675291.449 7  91695125.08645  22392872.109                    22392881.152
 112879330.672 8  87957915.668 7  21480189.734
 116125766.644 7  90487711.35045  22098007.141                    22098016.465
 116034087.870 7  90416211.20845  22080527.703                    22080534.434
 122294451.916 6  95294379.10644  23271836.070                    23271846.777
 11  7 24  0 26  0.0000000  0  9G12G04G28G20G27G17G09G02G10
 130054940.462 6 101341516.954 5  24748624.531
 104487976.947 8  81419302.90346  19883366.414                    19883374.262
 115695729.019 7  90152608.02245  22016155.352                    22016163.820
 127867806.611 6  99637145.39643  24332394.609                    24332403.191
 117673608.072 7  91693813.34445  22392551.813                    22392560.563
 112912291.357 8  87983599.319 7  21486461.930
 116109532.461 7  90475061.36145  22094917.469                    22094926.707
 115959342.426 8  90357968.06945  22066303.961                    22066311.203
 122201543.783 7  95221983.24944  23254156.461                    23254166.988
 11  7 24  0 26 30.0000000  0  9G12G04G28G20G27G17G09G02G10
 129958228.828 6 101266157.260 5  24730221.742
 104483254.403 8  81415623.01646  19882467.469                    19882475.941
 115753592.128 7  90197696.11845  22027166.844                    22027174.969
 127910959.326 6  99670770.92543  24340605.836                    24340614.008
 117672413.592 7  91692882.56645  22392323.992                    22392333.273
 112945343.328 8  88009354.096 7  21492751.766
 116093940.599 7  90462911.88045  22091950.711                    22091959.410
 115884909.254 8  90299968.25345  22052140.188                    22052146.770
 122108732.560 6  95149662.88644  23236494.641                    23236504.551
 11  7 24  0 27  0.0000000  0  9G12G04G28G20G27G17G09G02G10
 129861487.055 6 101190774.068 5  24711812.422
 104479096.338 8  81412382.97546  19881676.375                    19881684.617
 115811824.415 7  90243071.88545  22038247.789                    22038256.566
 127954593.539 6  99704771.63943  24348909.156                    24348917.898
 117671707.561 7  91692332.40445  22392190.000                    22392198.703
 112978486.159 8  88035179.675 7  21499058.727
 116078990.847 7  90451262.74045  22089105.484                    22089114.543
 115810789.526 8  90242212.68745  22038035.352                    22038042.488
 122016021.244 6  95077420.40244  23218852.719                    23218863.066
 11  7 24  0 27 30.0000000  0  9G12G04G28G20G27G17G09G02G10
 129764716.686 6 101115368.621 6  24693397.539
 104475501.948 8  81409582.15446  19880992.063                    19881000.277
 115870425.564 7  90288735.09745  22049399.133                    22049407.281
 127998708.076 6  99739146.59842  24357303.742                    24357312.695
 117671489.321 7  91692162.31245  22392148.539                    22392158.063
 113011719.702 8  88061075.947 7  21505382.898
 116064683.507 7  90440114.18845  22086382.719                    22086392.141
 115736983.997 8  90184701.95045  22023990.523                    22023997.152
 121923413.336 6  95005258.48643  23201230.430                    23201240.051
 11  7 24  0 28  0.0000000  0  9G12G04G28G20G27G17G09G02G10
 129667919.697 6 101039942.392 6  24674977.781
 104472470.535 8  81407220.03346  19880415.555                    19880423.559
 115929395.335 7  90334685.52745  22060621.617                    22060629.480
 128043301.896 6  99773895.02143  24365789.523                    24365798.660
 117671758.519 7  91692372.06345  22392199.750                    22392208.625
 113045044.227 8  88087043.098 7  21511724.156
 116051018.746 7  90429466.33245  22083782.891                    22083791.848
 115663494.068 8  90127437.12445  22010006.078                    22010012.656
 121830911.960 6  94933179.58444  23183627.352                    23183637.801
 11  7 24  0 28 30.0000000  0  9G12G04G28G20G27G17G09G02G10
 129571097.192 6 100964496.295 6  24656553.781
 104470001.865 8  81405296.40346  19879945.914                    19879954.086
 115988733.692 7  90380923.17945  22071913.523                    22071921.469
 128088374.520 6  99809016.52242  24374366.789                    24374375.672
 117672514.796 7  91692961.34645  22392343.430                    22392352.660
 113078459.291 7  88113080.809 7  21518082.797
 116037996.627 7  90419319.25445  22081304.914                    22081313.570
 115590321.180 8  90070419.35546  21996081.633                    21996088.520
 121738520.431 6  94861186.27344  23166045.563                    23166055.840
 11  7 24  0 29  0.0000000  0  9G12G04G28G20G27G17G09G02G10
 129474250.646 6 100889031.508 6  24638123.867
 104468094.646 8  81403810.25846  19879582.773                    19879590.988
 116048440.285 7  90427447.74245  22083274.813                    22083283.383
 128133924.044 5  99844509.70642  24383034.805                    24383043.113
 117673757.449 7  91693929.62245  22392580.297                    22392589.531
 113111964.598 7  88139188.854 7  21524458.453
 116025617.035 7  90409672.83245  22078948.922                    22078957.941
 115517466.270 8  90013649.35446  21982217.445                    21982223.930
 121646242.079 6  94789281.13944  23148485.789                    23148496.008
 11  7 24  0 29 30.0000000  0  9G12G04G28G20G27G17G09G02G10
 129377382.055 6 100813549.480 6  24619690.320
 104466747.953 8  81402760.88946  19879326.695                    19879334.660
 116108514.594 7  90474258.84745  22094707.297                    22094714.242
 128179949.887 5  99880373.92442  24391792.148                    24391801.852
 117675485.958 7  91695276.51045  22392908.727                    22392917.770
 113145559.860 7  88165366.968 7  21530851.742
 116013879.759 7  90400526.91945  22076715.484                    22076724.660
 115444930.479 8  89957128.03746  21968414.094                    21968421.246
 121554079.939 6  94717466.61044  23130947.383                    23130957.875
 11  7 24  0 30  0.0000000  0  9G12G04G28G20G27G17G09G02G10
 129280493.283 6 100738051.730 6  24601253.125
 104465961.692 8  81402148.22546  19879177.008                    19879185.340
 116168956.600 7  90521356.50545  22106208.250                    22106216.320
 128226451.25915  99916608.75952  24400641.828                    24400650.512
 117677700.201 7  91697001.87545  22393330.336                    22393339.574
 113179245.608 8  88191615.597 7  21537261.813
 116002785.105 7  90391881.77045  22074604.031                    22074612.762
 115372714.862 8  89900856.17645  21954672.492                    21954678.566
 121462037.477 6  94645745.36244  23113432.883                    23113442.746
 11  7 24  0 30 30.0000000  0  9G12G04G28G20G27G17G09G02G10
 129183585.561 6 100662539.258 6  24582812.375
 104465734.639 8  81401971.31346  19879133.906                    19879141.633
 116229765.867 7  90568740.30445  22117779.820                    22117787.227
 128273426.448 6  99953212.83642  24409580.695                    24409589.840
 117680399.259 7  91699105.00045  22393844.492                    22393852.785
 113213020.951 7  88217934.041 7  21543689.172
 115992332.577 7  90383736.95045  22072615.180                    22072623.930
 115300820.582 8  89844834.70345  21940991.469                    21940997.438
 121370117.885 6  94574119.81044  23095941.188                    23095949.910
 11  7 24  0 31  0.0000000  0  9G12G04G28G20G27G17G09G02G10
 129086660.547 6 100587013.324 6  24564367.922
 104466065.746 8  81402229.33146  19879196.625                    19879204.691
 116290941.964 7  90616409.94445  22129421.648                    22129429.801
 128320874.545 6  99990185.39942  24418610.156                    24418618.852
 117683582.615 7  91701585.52445  22394450.211                    22394458.875
 113246885.980 8  88244322.376 7  21550133.703
 115982521.984 7  90376092.32645  22070748.188                    22070756.914
 115229248.582 8  89789064.36945  21927371.047                    21927378.094
 121278324.312 6  94502592.43544  23078472.688                    23078482.504
 11  7 24  0 31 30.0000000  0  9G12G04G28G20G27G17G09G02G10
 128989719.906 7 100511475.243 6  24545920.578
 104466954.226 8  81402921.66146  19879365.844                    19879373.535
 116352484.536 7  90664365.17745  22141132.672                    22141141.203
 128368794.237 6 100027525.43643  24427729.008                    24427737.281
 117687249.585 7  91704442.88645  22395147.648                    22395156.613
 113280840.154 7  88270780.151 7  21556594.727
 115973353.166 7  90368947.81345  22069003.656                    22069011.738
 115158000.064 8  89733546.08445  21913813.383                    21913819.707
 121186660.173 7  94431165.92844  23061030.211                    23061038.984
 11  7 24  0 32  0.0000000  0  9G12G04G28G20G27G17G09G02G10
 128892765.682 6 100435926.556 6  24527470.461
 104468399.547 8  81404047.89746  19879640.961                    19879648.313
 116414393.292 7  90712605.72545  22152913.828                    22152921.617
 128417184.704 6 100065232.30842  24436937.563                    24436945.750
 117691399.702 7  91707676.73045  22395937.594                    22395946.141
 113314883.911 7  88297307.751 7  21563073.125
 115964826.314 7  90362303.53745  22067380.430                    22067390.059
 115087076.152 8  89678280.74446  21900316.938                    21900324.137
 121095128.918 6  94359842.93844  23043611.711                    23043621.207
 11  7 24  0 32 30.0000000  0  9G12G04G28G20G27G17G09G02G10
 128795799.127 6 100360368.282 6  24509019.719
 104470400.276 8  81405606.91946  19880021.555                    19880029.711
 116476667.590 7  90761131.15445  22164763.820                    22164771.117
 128466044.432 6 100103304.90342  24446234.914                    24446243.527
 117696032.141 7  91711286.41045  22396819.313                    22396827.984
 113349016.719 7  88323904.715 7  21569568.250
 115956940.862 7  90356159.03545  22065879.719                    22065889.145
 115016477.930 8  89623269.18446  21886882.141                    21886889.090
 121003733.370 7  94288625.74944  23026220.305                    23026229.973
 11  7 24  0 33  0.0000000  0  9G12G04G28G20G27G17G09G02G10
 128698821.765 6 100284801.608 6  24490563.742
 104472955.682 8  81407598.14846  19880507.844                    19880515.969
 116539306.950 7  90809941.00845  22176683.883                    22176691.504
 128515372.333 6 100141742.13242  24455621.484                    24455630.414
 117701146.222 7  91715271.39745  22397792.195                    22397801.430
 113383238.570 7  88350571.071 7  21576080.672
 115949696.470 7  90350514.06345  22064501.914                    22064511.168
 114946206.161 8  89568512.01845  21873509.867                    21873516.906
 120912477.131 7  94217517.09044  23008854.391                    23008864.344
 11  7 24  0 33 30.0000000  0  9G12G04G28G20G27G17G09G02G10
 128601835.651 6 100209228.145 6  24472108.422
 104476064.953 8  81410020.96946  19881099.430                    19881107.051
 116602311.450 7  90859035.38845  22188673.086                    22188681.125
 128565167.314 6 100180543.39943  24465097.773                    24465106.742
 117706741.417 7  91719631.28045  22398857.289                    22398866.504
 113417549.508 7  88377306.842 7  21582609.547
 115943093.049 7  90345368.54845  22063244.555                    22063253.754
 114876262.184 8  89514010.26545  21860200.094                    21860207.051
 120821363.553 7  94146519.61344  22991515.734                    22991525.586
 11  7 24  0 34  0.0000000  0  9G12G04G28G20G27G17G09G02G10
 128504842.528 6 100133649.152 5  24453652.148
 104479726.823 8  81412874.38546  19881796.289                    19881804.156
 116665680.362 7  90908413.74145  22200731.922                    22200739.637
 128615428.005 6 100219707.57343  24474662.070                    24474670.238
 117712816.690 7  91724365.25845  22400013.383                    22400022.125
 113451949.263 8  88404111.832 7  21589155.992
 115937130.341 7  90340722.25645  22062110.117                    22062119.418
 114806646.829 8  89459764.58246  21846952.438                    21846959.359
 120730395.727 7  94075635.67644  22974205.336                    22974215.223
 11  7 24  0 34 30.0000000  0  9G12G04G28G20G27G17G09G02G10
 128407844.045 6 100058066.018 6  24435193.742
 104483940.483 8  81416157.76646  19882598.406                    19882606.266
 116729413.161 7  90958075.64645  22212860.172                    22212867.699
 128666153.151 6 100259233.65943  24484314.953                    24484323.277
 117719371.538 7  91729472.93945  22401260.383                    22401269.422
 113486437.716 7  88430985.918 7  21595718.688
 115931807.954 7  90336574.95745  22061097.789                    22061106.602
 114737361.276 8  89405775.88445  21833768.031                    21833774.535
 120639576.921 7  94004867.87944  22956923.086                    22956932.648
 11  7 24  0 35  0.0000000  0  9G12G04G28G20G27G17G09G02G10
 128310841.789 6  99982479.942 6  24416733.422
 104488704.773 7  81419870.21846  19883504.633                    19883512.711
 116793509.497 7  91008020.80245  22225057.320                    22225065.023
 128717341.565 6 100299120.69043  24494055.180                    24494063.934
 117726405.291 7  91734953.78345  22402598.906                    22402608.516
 113521014.747 7  88457929.024 7  21602298.586
 115927125.372 7  90332926.16545  22060206.930                    22060215.352
 114668406.547 8  89352044.96246  21820646.656                    21820653.137
 120548910.536 6  93934218.89844  22939668.930                    22939679.211
 11  7 24  0 35 30.0000000  0  9G12G04G28G20G27G17G09G02G10
 128213837.566 6  99906892.312 6  24398274.539
 104494019.104 8  81424011.26246  19884516.109                    19884523.852
 116857969.208 7  91058249.11045  22237322.930                    22237331.746
 128768992.139 7 100339367.85143  24503884.586                    24503892.555
 117733917.341 8  91740807.32145  22404028.711                    22404037.813
 113555680.503 7  88484941.285 7  21608895.477
 115923082.367 7  90329775.74645  22059437.117                    22059445.742
 114599783.551 8  89298572.55446  21807587.750                    21807594.359
 120458400.128 6  93863691.39044  22922446.070                    22922455.453
 11  7 24  0 36  0.0000000  0  9G12G04G28G20G27G17G09G02G10
 128116833.203 7  99831304.560 6  24379814.805
 104499882.030 8  81428579.78346  19885631.734                    19885639.570
 116922791.353 7  91108759.82145  22249659.133                    22249666.391
 128821103.073 7 100379973.76443  24513801.156                    24513809.578
 117741906.724 7  91747032.82545  22405548.789                    22405557.488
 113590434.614 7  88512022.376 7  21615508.820
 115919678.391 7  90327123.29445  22058789.555                    22058797.883
 114531493.363 8  89245359.46245  21794592.469                    21794599.117
 120368048.766 6  93793287.85244  22905252.883                    22905262.469
 11  7 24  0 36 30.0000000  0  9G12G04G28G20G27G17G09G02G10
 128019830.052 6  99755717.739 6  24361356.844
 104506292.236 8  81433574.76546  19886851.203                    19886859.141
 116987975.301 7  91159552.51345  22262063.125                    22262070.098
 128873672.875 6 100420937.25743  24523804.195                    24523813.047
 117750372.294 7  91753629.36345  22407159.563                    22407168.426
 113625276.820 7  88539172.125 7  21622139.195
 115916912.640 7  90324968.11045  22058263.141                    22058272.008
 114463536.636 8  89192406.21646  21781660.820                    21781667.621
 120277859.559 7  93723010.66144  22888090.172                    22888099.387
 11  7 24  0 37  0.0000000  0  9G12G04G28G20G27G17G09G02G10
 127922830.231 7  99680133.526 6  24342898.086
 104513249.005 8  81438995.63146  19888175.164                    19888182.832
 117053520.926 7  91210626.98945  22274535.750                    22274543.766
 128926700.754 7 100462257.68943  24533895.953                    24533903.652
 117759313.463 7  91760596.50545  22408861.344                    22408869.637
 113660207.545 7  88566390.855 7  21628786.211
 115914785.170 7  90323310.30945  22057858.523                    22057867.063
 114395914.688 8  89139713.84246  21768792.508                    21768799.395
 120187836.478 6  93652862.91044  22870958.984                    22870968.578
 11  7 24  0 37 30.0000000  0  9G12G04G28G20G27G17G09G02G10
 127825835.973 7  99604553.613 6  24324440.047
 104520751.454 8  81444841.70946  19889602.906                    19889611.086
 117119427.893 7  91261983.03145  22287077.773                    22287085.707
 128980185.505 6 100503934.10643  24544072.797                    24544081.977
 117768729.473 7  91767933.66945  22410652.680                    22410661.914
 113695226.857 7  88593678.611 7  21635450.023
 115913295.267 7  90322149.32145  22057575.078                    22057583.715
 114328628.426 8  89087283.03946  21755988.836                    21755994.625
 120097982.789 6  93582847.13744  22853860.125                    22853869.930
 11  7 24  0 38  0.0000000  0  9G12G04G28G20G27G17G09G02G10
 127728848.398 6  99528978.897 6  24305984.023
 104528797.349 8  81451111.24946  19891134.063                    19891142.438
 117185694.719 7  91313619.51445  22299687.391                    22299695.707
 129034125.019 6 100545964.87143  24554337.297                    24554346.238
 117778618.779 7  91775639.61845  22412534.711                    22412543.656
 113730334.054 7  88621034.840 7  21642130.586
 115912441.914 7  90321484.32845  22057412.555                    22057421.191
 114261678.321 8  89035114.17146  21743248.484                    21743255.141
 120008300.861 7  93512965.22144  22836794.258                    22836804.434
 11  7 24  0 38 30.0000000  0  9G12G04G28G20G27G17G09G02G10
 127631869.573 6  99453411.096 6  24287528.492
 104537386.554 8  81457804.14346  19892768.703                    19892776.316
 117252321.437 7  91365536.43045  22312366.117                    22312374.637
 129088518.294 6 100588349.24343  24564688.023                    24564696.176
 117788981.234 7  91783714.22945  22414506.570                    22414515.383
 113765529.594 7  88648459.927 7  21648828.422
 115912225.127 7  90321315.39545  22057371.492                    22057380.531
 114195066.025 8  88983208.52846  21730572.266                    21730578.766
 119918794.726 6  93443220.27344  22819761.555                    22819771.441
 11  7 24  0 39  0.0000000  0  9G12G04G28G20G27G17G09G02G10
 127534900.999 6  99377851.253 6  24269077.219
 104546517.555 8  81464919.22646  19894506.164                    19894513.766
 117319307.281 7  91417733.13045  22325113.047                    22325121.992
 129143364.013 6 100631086.19243  24575124.531                    24575132.891
 117799815.585 7  91792156.57445  22416568.305                    22416577.160
 113800813.072 7  88675953.533 7  21655542.453
 115912644.198 7  90321641.92645  22057450.227                    22057460.547
 114128791.779 8  88931566.31245  21717960.414                    21717967.453
 119829467.579 7  93373614.78444  22802763.289                    22802773.402
 11  7 24  0 39 30.0000000  0  9G12G04G28G20G27G17G09G02G10
 127437944.761 6  99302301.049 6  24250627.383
 104556189.148 8  81472455.54146  19896346.344                    19896354.371
 117386651.789 7  91470209.34245  22337928.484                    22337937.066
 129198660.474 6 100674174.31543  24585646.789                    24585655.613
 117811121.024 8  91800965.98645  22418719.844                    22418728.492
 113836184.891 8  88703515.965 7  21662273.336
 115913698.193 7  90322463.21045  22057652.008                    22057660.883
 114062856.832 8  88880188.47546  21705413.688                    21705420.227
 119740322.936 7  93304151.49844  22785799.641                    22785809.090
 11  7 24  0 40  0.0000000  0  9G12G04G28G20G27G17G09G02G10
 127341002.746 7  99226761.876 5  24232179.109
 104566399.918 8  81480411.99746  19898289.563                    19898297.504
 117454354.159 7  91522964.40145  22350811.602                    22350820.422
 129254406.041 6 100717612.38943  24596255.055                    24596263.988
 117822896.473 7  91810141.64645  22420961.055                    22420969.422
 113871644.792 8  88731147.049 7  21669021.617
 115915386.195 7  90323778.54445  22057972.867                    22057982.313
 113997261.878 8  88829075.57846  21692931.555                    21692938.234
 119651363.964 7  93234832.88844  22768871.922                    22768880.508
 11  7 24  0 40 30.0000000  0  9G12G04G28G20G27G17G09G02G10
 127244076.694 7  99151235.103 5  24213735.477
 104577148.778 8  81488787.74346  19900334.930                    19900342.891
 117522413.776 7  91575997.83545  22363763.273                    22363771.438
 129310599.534 6 100761399.54643  24606949.078                    24606957.719
 117835140.968 7  91819682.80345  22423290.859                    22423299.379
 113907192.456 7  88758846.515 7  21675785.945
 115917707.949 7  90325587.69045  22058414.898                    22058423.883
 113932007.791 8  88778228.27546  21680513.969                    21680520.734
 119562593.741 7  93165661.35444  22751979.117                    22751988.230
 11  7 24  0 41  0.0000000  0  9G12G04G28G20G27G17G09G02G10
 127147168.120 7  99075721.918 5  24195293.828
 104588434.166 8  81497581.57746  19902482.297                    19902490.414
 117590830.030 7  91629309.13445  22376782.664                    22376791.180
 129367239.390 6 100805534.46843  24617726.906                    24617735.828
 117847853.413 7  91829588.53745  22425710.047                    22425718.727
 113942827.995 7  88786614.455 7  21682567.328
 115920662.375 7  90327889.83345  22058977.016                    22058985.738
 113867095.308 8  88727647.17346  21668161.719                    21668168.098
 119474015.806 7  93096639.66644  22735122.727                    22735132.004
 11  7 24  0 41 30.0000000  0  9G12G04G28G20G27G17G09G02G10
 127050279.554 7  99000224.309 5  24176857.063
 104600255.052 8  81506792.66446  19904732.156                    19904739.930
 117659602.196 7  91682897.81344  22389869.359                    22389876.871
 129424323.914 6 100850015.89942  24628589.727                    24628599.035
 117861032.710 7  91839858.08345  22428217.828                    22428226.621
 113978551.491 7  88814450.927 7  21689365.109
 115924248.718 7  90330684.37245  22059659.758                    22059668.020
 113802525.407 8  88677332.99445  21655873.781                    21655880.492
 119385633.474 7  93027770.43444  22718304.438                    22718313.738
 11  7 24  0 42  0.0000000  0  9G12G04G28G20G27G17G09G02G10
 126953412.536 7  98924743.583 6  24158423.242
 104612610.545 8  81516420.33446  19907083.125                    19907090.930
 117728729.883 7  91736763.53144  22403023.781                    22403032.066
 129481852.106 5 100894843.05942  24639537.305                    24639546.195
 117874678.326 7  91850491.00045  22430814.688                    22430822.793
 114014362.991 7  88842356.004 7  21696180.086
 115928466.311 7  90333970.78745  22060462.445                    22060469.602
 113738299.264 8  88627286.70646  21643652.391                    21643659.102
 119297450.360 7  92959056.39244  22701523.766                    22701532.902
 11  7 24  0 42 30.0000000  0  9G12G04G28G20G27G17G09G02G10
 126856569.124 6  98849281.209 6  24139994.867
 104625499.277 8  81526463.50946  19909535.867                    19909543.793
 117798212.521 7  91790905.80844  22416246.055                    22416253.898
 129539822.510 5 100940014.73142  24650567.719                    24650577.387
 117888789.197 7  91861486.45245  22433499.469                    22433509.121
 114050262.789 8  88870329.841 7  21703011.391
 115933314.701 7  90337748.78845  22061384.805                    22061393.141
 113674417.738 8  88577508.93246  21631496.117                    21631502.520
 119209469.951 7  92890500.33244  22684781.289                    22684790.938
 11  7 24  0 43  0.0000000  0  9G12G04G28G20G27G17G09G02G10
 126759750.891 6  98773838.531 6  24121570.156
 104638919.470 8  81536920.81646  19912089.539                    19912097.457
 117868049.084 7  91845323.85244  22429535.523                    22429544.582
 129598233.233 5 100985529.51242  24661683.250                    24661692.930
 117903363.888 7  91872843.30445  22436273.391                    22436282.051
 114086250.689 7  88898372.355 7  21709859.938
 115938792.774 7  90342017.39245  22062427.461                    22062435.340
 113610881.285 8  88528000.06246  21619405.375                    21619412.199
 119121695.237 7  92822104.56544  22668078.469                    22668087.582
 11  7 24  0 43 30.0000000  0  9G12G04G28G20G27G17G09G02G10
 126662959.469 6  98698416.780 6  24103150.742
 104652869.304 8  81547790.82546  19914743.906                    19914751.691
 117938238.467 7  91900016.83744  22442891.852                    22442900.410
 129657082.206 5                  24672882.469
 117918401.035 7  91884560.50745  22439134.953                    22439144.020
 114122326.337 7  88926483.250 7  21716724.570
 115944898.987 7  90346775.48045  22063588.906                    22063596.480
 113547690.464 8  88478760.51946  21607380.359                    21607387.543
 119034129.152 7  92753871.32144  22651414.922                    22651424.742
 11  7 24  0 44  0.0000000  0  9G12G04G28G20G27G17G09G02G10
 126566197.140 6  98623017.640 6  24084738.211
 104667348.122 8  81559073.03546  19917499.141                    19917507.809
 118008780.334 7  91954984.50244  22456315.516                    22456323.980
 129716368.515 5                  24684164.313
 117933899.836 7  91896637.45145  22442083.719                    22442092.789
 114158490.288 7  88954662.939 7  21723606.352
 115951633.027 7  90352022.75845  22064870.391                    22064879.023
 113484846.288 8  88429791.08646  21595421.992                    21595427.949
 118946775.313 7  92685803.50144  22634791.984                    22634801.648
 11  7 24  0 44 30.0000000  0  9G12G04G28G20G27G17G09G02G10
 126469465.790 6  98547642.617 6  24066330.867
 104682354.274 8  81570766.14146  19920354.766                    19920362.906
 118079674.021 7  92010226.32345  22469805.852                    22469814.824
 129776090.234 5                  24695527.805
 117949859.086 8  91909073.19145  22445120.516                    22445130.113
 114194742.274 7  88982911.231 7  21730505.008
 115958993.708 7  90357758.34644  22066271.164                    22066279.063
 113422349.474 8  88381092.31146  21583529.188                    21583535.301
 118859637.194 7  92617903.81144  22618209.820                    22618219.945
 11  7 24  0 45  0.0000000  0  9G12G04G28G20G27G17G09G02G10
 126372767.148 7  98472293.068 6  24047930.359
 104697886.019 8  81582868.80646  19923310.141                    19923318.398
 118150918.085 7  92065741.10545  22483363.883                    22483372.293
 129836245.390 6                  24706976.281
 117966277.279 7  91921866.52845  22448245.383                    22448254.508
 114231082.026 7  89011227.912 7  21737420.266
 115966979.974 7  90363981.40745  22067790.695                    22067799.121
 113360200.593 8  88332664.64546  21571702.438                    21571709.094
 118772717.958 7  92550174.63944  22601669.297                    22601679.309
 11  7 24  0 45 30.0000000  0  9G12G04G28G20G27G17G09G02G10
 126276103.307 7  98396970.628 6  24029535.805
 104713942.305 8  81595380.20246  19926365.516                    19926373.809
 118222512.243 7  92121528.69944  22496986.969                    22496996.102
 129896832.891 6 101218177.55552  24718505.313                    24718513.688
 117983153.812 7  91935017.02045  22451456.813                    22451465.938
 114267509.922 7  89039613.276 7  21744352.273
 115975591.138 7  90370691.41445  22069429.367                    22069438.172
 113298400.817 8  88284509.00846  21559942.203                    21559948.660
 118686021.066 7  92482618.71845  22585171.977                    22585181.293
 11  7 24  0 46  0.0000000  0  9G12G04G28G20G27G17G09G02G10
 126179475.832 7  98321676.535 6  24011147.586
 104730521.128 8  81608298.74846  19929520.977                    19929528.477
 118294455.767 7  92177588.58344  22510678.180                    22510685.332
 129957850.658 5 101265723.83642  24730117.430                    24730125.121
 118000486.923 7  91948523.28645  22454755.117                    22454764.957
 114304025.770 7  89068067.192 7  21751301.094
 115984825.497 7  90377887.02845  22071186.422                    22071195.344
 113236950.481 8  88236625.68746  21548248.453                    21548255.215
 118599549.547 7  92415238.40745  22568717.344                    22568726.859
 11  7 24  0 46 30.0000000  0  9G12G04G28G20G27G17G09G02G10
 126082887.560 7  98246412.952 6  23992767.500
 104747622.051 8  81621624.15346  19932774.820                    19932783.258
 118366747.908 7  92233920.09744  22524435.234                    22524442.848
 130019297.748 5 101313604.64342  24741810.523                    24741818.242
 118018275.897 7  91962384.78845  22458140.438                    22458149.578
 114340630.138 8  89096590.060 7  21758266.313
 115994682.616 7  90385567.90745  22073062.438                    22073072.004
 113175850.495 8  88189015.36146  21536621.273                    21536628.070
 118513307.154 7  92348036.59744  22552305.625                    22552314.520
 11  7 24  0 47  0.0000000  0  9G12G04G28G20G27G17G09G02G10
 125986340.070 7  98171181.143 6  23974395.453
 104765243.031 8  81635354.78446  19936128.195                    19936136.461
 118439387.679 7  92290522.49445  22538257.578                    22538265.734
 130081171.760 5                  24753583.641
 118036519.276 7  91976600.37345  22461611.656                    22461620.473
 114377322.953 7  89125181.868 7  21765248.969
 116005161.150 7  90393733.00845  22075056.453                    22075065.328
 113115101.537 8  88141678.57346  21525061.602                    21525068.086
 118427297.250 7  92281015.96845  22535938.359                    22535947.477
 11  7 24  0 47 30.0000000  0  9G12G04G28G20G27G17G09G02G10
 125889835.202 7  98095982.593 6  23956030.484
 104783382.404 8  81649489.35746  19939580.039                    19939588.145
 118512374.170 7  92347395.01045  22552146.523                    22552155.938
 130143471.202 5                  24765439.227
 118055215.867 7  91991169.11845  22465170.359                    22465178.121
 114414104.019 8  89153842.448 7  21772248.086
 116016259.831 7  90402381.30145  22077168.617                    22077178.000
 113054704.252 8  88094615.79746  21513568.297                    21513574.695
 118341522.907 7  92214178.91845  22519615.797                    22519625.137
 11  7 24  0 48  0.0000000  0  9G12G04G28G20G27G17G09G02G10
 125793374.812 7  98020818.724 6  23937674.938
 104802038.793 8  81664026.80146  19943130.008                    19943137.980
 118585706.904 7  92404537.34644  22566101.531                    22566109.613
 130206194.206 5                  24777375.430
 118074364.445 7  92006090.07045  22468813.750                    22468822.531
 114450973.916 8  89182572.237 7  21779264.008
 116027977.655 7  90411512.05745  22079398.797                    22079407.441
 112994659.491 8  88047827.71446  21502141.938                    21502148.418
 118255987.502 7  92147528.02144  22503338.961                    22503348.441
 11  7 24  0 48 30.0000000  0  9G12G04G28G20G27G17G09G02G10
 125696960.903 7  97945691.068 6  23919327.391
 104821210.449 8  81678965.75246  19946778.195                    19946785.887
 118659384.400 7  92461948.33644  22580122.172                    22580130.457
 130269339.165 5                  24789390.344
 118093963.565 7  92021362.07645  22472543.727                    22472552.582
 114487932.136 8  89211370.825 7  21786296.891
 116040313.074 7  90421124.06245  22081746.344                    22081754.906
 112934967.742 8  88001314.71246  21490782.930                    21490789.160
 118170694.403 7  92081065.94944  22487108.609                    22487117.289
 11  7 24  0 49  0.0000000  0  9G12G04G28G20G27G17G09G02G10
 125600595.866 7  97870601.523 6  23900989.805
 104840896.149 8  81694305.25346  19950524.328                    19950532.406
 118733406.077 7  92519627.53144  22594208.070                    22594216.395
 130332904.696 5 101557971.66952  24801487.039                    24801494.625
 118114012.063 7  92036984.28345  22476359.008                    22476367.379
 114524979.208 8  89240238.672 7  21793346.883
 116053265.573 7  90431216.88445  22084211.391                    22084219.980
 112875630.064 8  87955077.61946  21479491.352                    21479497.609
 118085647.199 7  92014795.46244  22470924.047                    22470933.336
 11  7 24  0 49 30.0000000  0  9G12G04G28G20G27G17G09G02G10
 125504281.518 6  97795551.463 6  23882662.563
 104861094.290 8  81710044.05846  19954367.578                    19954375.883
 118807771.162 7  92577574.30844  22608359.313                    22608367.332
 130396888.876 5 101607829.46742  24813663.094                    24813671.191
 118134508.351 7  92052955.40045  22480258.539                    22480268.281
 114562115.087 8  89269175.735 7  21800413.773
 116066833.437 7  90441789.21945  22086792.781                    22086801.570
 112816646.785 8  87909116.66946  21468267.289                    21468273.785
 118000848.824 7  91948718.89744  22454787.188                    22454796.449
 11  7 24  0 50  0.0000000  0 10G05G12G04G28G20G27G17G09G02G10
 132766034.67715 103454267.05114  25264575.500
 125408019.805 6  97720542.440 6  23864344.484
 104881803.030 8  81726180.74146  19958308.547                    19958316.746
 118882478.685 7  92635787.89444  22622575.445                    22622584.371
 130461289.685 5 101658011.88642  24825918.453                    24825926.945
 118155451.021 7  92069274.36045  22484244.094                    22484253.566
 114599339.723 8  89298181.924 7  21807497.445
 116081015.300 7  90452839.97645  22089491.469                    22089500.922
 112758018.239 8  87863432.14946  21457110.836                    21457117.004
 117916302.756 7  91882838.92644  22438698.875                    22438707.879
 11  7 24  0 50 30.0000000  0 10G05G12G04G28G20G27G17G09G02G10
 132664795.837 4 103375380.090 4  25245310.375
 125311812.439 6  97645575.776 6  23846036.539
 104903020.918 8  81742714.16246  19962346.281                    19962354.613
 118957527.782 7  92694267.68344  22636856.844                    22636864.820
 130526105.316 5 101708517.59842  24838252.313                    24838260.629
 118176838.807 7  92085940.14145  22488314.141                    22488323.473
 114636653.615 7  89327257.666 7  21814598.086
 116095809.862 7  90464368.17745  22092306.680                    22092314.941
 112699745.393 8  87818024.79446  21446021.547                    21446027.738
 117832012.466 7  91817158.23744  22422659.078                    22422667.723
 11  7 24  0 51  0.0000000  0 10G05G12G04G28G20G27G17G09G02G10
 132563399.129 5 103296370.146 4  25226015.094
 125215661.937 6  97570653.368 6  23827739.641
 104924746.417 8  81759643.11846  19966480.656                    19966488.645
 119032917.439 7  92753012.82544  22651203.047                    22651211.426
 130591334.183 6 101759345.25442  24850664.445                    24850673.398
 118198670.439 7  92102951.76745  22492468.547                    22492477.785
 114674056.687 8  89356402.900 7  21821715.797
 116111215.969 7  90476372.90045  22095238.039                    22095247.520
 112641829.134 8  87772895.27646  21435000.539                    21435006.664
 117747981.203 7  91751679.40144  22406668.086                    22406676.977
 11  7 24  0 51 30.0000000  0 10G05G12G04G28G20G27G17G09G02G10
 132461846.993 4 103217239.132 4  25206691.203
 125119570.537 6  97495777.076 6  23809453.367
 104946978.160 8  81776966.56246  19970710.945                    19970718.703
 119108647.035 7  92812022.85044  22665613.695                    22665623.059
 130656974.888 5 101810493.79242  24863154.398                    24863165.125
 118220945.133 7  92120308.64745  22496707.141                    22496716.059
 114711549.267 7  89385617.893 7  21828849.922
 116127232.835 7  90488853.51345  22098286.156                    22098295.277
 112584270.070 8  87728044.11346  21424047.172                    21424053.789
 117664212.683 7  91686405.29644  22390727.227                    22390736.090
 11  7 24  0 52  0.0000000  0  9G12G04G28G20G27G17G09G02G10
 125023540.190 6  97420948.324 6  23791179.914
 104969714.385 8  81794683.09946  19975037.750                    19975045.824
 119184715.497 7  92871296.98244  22680089.281                    22680097.777
 130723025.504 6 101861961.79642  24875724.664                    24875734.035
 118243660.811 7  92138009.18445  22501029.570                    22501039.043
 114749131.690 8  89414902.864 7  21836001.602
 116143858.608 7  90501808.61945  22101450.008                    22101458.863
 112527068.756 8  87683471.70946  21413162.492                    21413168.383
 117580709.866 7  91621338.22644  22374836.734                    22374846.336
 11  7 24  0 52 30.0000000  0  9G12G04G28G20G27G17G09G02G10
 124927572.367 7  97346168.256 6  23772917.781
 104992952.439 8  81812790.68046  19979459.500                    19979467.707
 119261121.064 7  92930833.74544  22694628.852                    22694637.434
 130789483.168 6 101913746.96842  24888371.313                    24888380.293
 118266815.682 7  92156051.91845  22505436.273                    22505445.227
 114786803.014 8  89444257.129 7  21843170.484
 116161091.132 7  90515236.48644  22104729.805                    22104737.527
 112470224.920 8  87639177.87046  21402344.914                    21402351.508
 117497475.451 7  91556480.32145  22358998.516                    22359008.066
 11  7 24  0 53  0.0000000  0 10G05G12G04G28G20G27G17G09G02G10
 132156256.62715 102979148.65015  25148544.086
 124831669.198 7  97271438.581 6  23754667.477
 105016691.219 8  81831288.44346  19983977.125                    19983984.785
 119337863.459 7  92990632.98544  22709232.672                    22709240.027
 130856346.38316 101965848.10952  24901095.469                    24901103.836
 118290408.216 7  92174435.72345  22509925.719                    22509935.184
 114824563.963 7  89473681.221 7  21850356.195
 116178929.242 7  90529136.30545  22108123.875                    22108132.004
 112413739.335 8  87595163.18446  21391595.719                    21391602.566
 117414513.085 7  91491834.41345  22343211.016                    22343220.422
 11  7 24  0 53 30.0000000  0 10G05G12G04G28G20G27G17G09G02G10
 132054104.66216 102899550.54115  25129104.016
 124735832.989 7  97196761.070 6  23736431.555
 105040928.834 8  81850174.89646  19988589.008                    19988597.164
 119414940.974 7  93050693.35844  22723900.266                    22723907.863
 130923613.479 6 102018263.99243  24913895.469                    24913904.570
 118314437.087 7  92193159.51145  22514498.008                    22514507.387
 114862414.690 8  89503175.263 7  21857558.852
 116197371.413 7  90543506.77245  22111633.227                    22111642.430
 112357612.709 8  87551428.20446  21380915.578                    21380921.688
 117331826.376 7  91427403.30145  22327475.914                    22327485.934
 11  7 24  0 54  0.0000000  0 10G05G12G04G28G20G27G17G09G02G10
 131951809.271 5 102819840.180 4  25109636.586
 124640065.884 7  97122137.361 6  23718206.883
 105065664.286 8  81869449.27746  19993296.211                    19993304.180
 119492353.381 7  93111014.70244  22738631.164                    22738639.598
 130991282.401 6 102070992.99142  24926772.563                    24926781.582
 118338901.255 7  92212222.47245  22519154.023                    22519162.688
 114900355.734 8  89532739.695 7  21864779.047
 116216416.658 7  90558347.17344  22115257.422                    22115266.188
 112301845.917 8  87507973.59246  21370303.609                    21370309.828
 117249418.622 7  91363189.53245  22311794.844                    22311803.840
 11  7 24  0 54 30.0000000  0 10G05G12G04G28G20G27G17G09G02G10
 131849372.267 5 102740019.442 4  25090142.758
 124544370.113 7  97047569.231 6  23699996.602
 105090895.372 8  81889109.86346  19998097.492                    19998105.617
 119570099.241 7  93171595.87044  22753425.156                    22753433.773
 131059351.84015 102124034.12252  24939726.094                    24939735.234
 118363799.018 7  92231623.31445  22523891.695                    22523900.688
 114938387.046 8  89562374.461 7  21872015.930
 116236063.401 7  90573656.29345  22118996.242                    22119004.930
 112246439.471 8  87464799.77946  21359759.930                    21359765.863
 117167293.171 7  91299195.72545  22296166.711                    22296174.828
 11  7 24  0 55  0.0000000  0 10G05G12G04G28G20G27G17G09G02G10
 131746796.432 5 102660090.569 4  25070623.219
 124448747.757 7  96973058.338 6  23681799.352
 105116620.473 8  81909155.41146  20002992.719                    20003001.094
 119648177.849 7  93232436.26844  22768283.328                    22768292.516
 131127819.82815                  24952754.438
 118389128.995 7  92251360.94545  22528712.352                    22528721.086
 114976508.661 7  89592079.592 7  21879270.602
 116256309.947 7  90589432.78644  22122849.023                    22122857.156
 112191393.962 8  87421907.22146  21349285.102                    21349291.914
 117085453.346 7  91235424.51945  22280593.234                    22280602.445
 11  7 24  0 55 30.0000000  0 10G05G12G04G28G20G27G17G09G02G10
 131644083.953 6 102580055.275 4  25051077.375
 124353201.121 6  96898606.415 6  23663618.977
 105142838.044 8  81929584.68646  20007981.508                    20007989.719
 119726588.112 7  93293535.18444  22783204.133                    22783212.867
 131196684.29415                  24965858.328
 118414889.546 7  92271434.13245  22533613.844                    22533622.469
 115014721.061 7  89621855.452 7  21886541.953
 116277154.905 7  90605675.59245  22126815.680                    22126824.523
 112136709.876 8  87379296.29046  21338879.180                    21338885.492
 117003902.688 7  91171878.62045  22265074.250                    22265083.207
 11  7 24  0 56  0.0000000  0 10G05G12G04G28G20G27G17G09G02G10
 131541237.034 5 102499915.185 5  25031506.570
 124257731.827 6  96824214.783 6  23645450.508
 105169545.736 8  81950395.88846  20013064.180                    20013071.984
 119805328.560 7  93354891.31144  22798188.008                    22798196.633
 131265942.90515                  24979038.773
 118441078.761 7  92291841.30545  22538597.469                    22538606.695
 115053024.082 7  89651701.953 7  21893830.961
 116298596.178 7  90622383.05045  22130895.391                    22130904.512
 112082387.038 8  87336966.85146  21328541.820                    21328548.082
 116922644.074 7  91108560.29045  22249611.266                    22249620.289
 11  7 24  0 56 30.0000000  0 10G05G12G04G28G20G27G17G09G02G10
 131438257.557 6 102419671.799 5  25011910.344
 124162342.149 6  96749885.209 6  23627298.609
 105196741.693 8  81971587.54746  20018239.172                    20018247.848
 119884398.089 7  93416503.93844  22813234.359                    22813243.117
 131335593.942 5                  24992291.461
 118467694.946 7  92312581.18945  22543661.773                    22543672.031
 115091417.786 7  89681619.088 7  21901136.781
 116320632.106 7  90639553.89545  22135089.570                    22135097.648
 112028425.978 8  87294919.30546  21318273.391                    21318279.230
 116841680.544 7  91045471.86745  22234204.781                    22234213.699
 11  7 24  0 57  0.0000000  0 10G05G12G04G28G20G27G17G09G02G10
 131335148.522 5 102339327.377 5  24992288.633
 124067034.552 6  96675619.559 6  23609162.461
 105224424.605 8  81993158.65046  20023507.422                    20023515.379
 119963796.032 7  93478372.41444  22828343.813                    22828352.188
 131405635.42014                  25005619.984
 118494737.079 7  92333652.98145  22548808.195                    22548817.375
 115129902.780 7  89711607.376 7  21908459.852
 116343261.426 7  90657187.15045  22139395.320                    22139403.738
 111974827.843 8  87253154.56246  21308074.016                    21308080.027
 116761016.135 7  90982616.52045  22218854.328                    22218863.594
 11  7 24  0 57 30.0000000  0 10G05G12G04G28G20G27G17G09G02G10
 131231911.909 5 102258883.680 5  24972642.445
 123971810.716 6  96601419.183 6  23591042.430
 105252592.303 8  82015107.51446  20028867.734                    20028875.512
 120043520.994 6  93540495.74044  22843515.000                    22843524.320
 131476065.511 5                  25019024.164
 118522203.041 7  92355055.02845  22554035.086                    22554044.262
 115168479.033 7  89741666.788 7  21915801.203
 116366482.144 7  90675281.20844  22143813.508                    22143822.652
 111921592.584 8  87211672.57646  21297943.547                    21297949.887
 116680653.496 7  90919996.35145  22203562.219                    22203571.016
 11  7 24  0 58  0.0000000  0 10G05G12G04G28G20G27G17G09G02G10
 131128550.722 5 102178342.832 5  24952973.844
 123876672.895 6  96527285.892 6  23572938.000
 105281243.139 8  82037432.85146  20034319.578                    20034327.941
 120123571.798 7  93602872.95044  22858747.891                    22858756.660
 131546882.188 5                  25032499.594
 118550091.499 7  92376786.27545  22559342.078                    22559350.945
 115207146.999 8  89771797.664 7  21923159.523
 116390292.720 7  90693834.90445  22148345.055                    22148353.945
 111868720.860 8  87170473.87046  21287882.469                    21287888.672
 116600596.103 7  90857614.02645  22188327.391                    22188336.125
 11  7 24  0 58 30.0000000  0 10G05G12G04G28G20G27G17G09G02G10
 131025066.880 5 102097706.487 6  24933279.984
 123781623.583 6  96453221.572 6  23554850.570
 105310375.257 8  82060133.20946  20039863.258                    20039871.410
 120203947.258 7  93665503.10844  22874043.258                    22874051.777
 131618083.245 5                  25046049.656
 118578400.511 7  92398845.21045  22564729.188                    22564737.883
 115245906.881 7  89802000.156 7  21930535.094
 116414691.169 7  90712846.69445  22152987.461                    22152997.094
 111816212.899 8  87129558.61146  21277890.203                    21277896.590
 116520847.333 7  90795472.18344  22173151.906                    22173160.316
 11  7 24  0 59  0.0000000  0 10G05G12G04G28G20G27G17G09G02G10
 130921463.293 6 102016976.699 5  24913565.781
 123686664.556 7  96379227.602 6  23536780.367
 105339986.822 8  82083207.15846  20045498.180                    20045505.914
 120284646.389 7  93728385.53744  22889399.836                    22889408.188
 131689666.968 4                  25059669.508
 118607128.693 7  92421230.78345  22570195.570                    22570204.172
 115284758.694 7  89832274.274 7  21937928.703
 116439675.891 7  90732315.30845  22157742.047                    22157751.586
 111764069.133 8  87088927.13946  21267967.984                    21267973.613
 116441410.600 7  90733573.47945  22158035.273                    22158043.898
 11  7 24  0 59 30.0000000  0 10G05G12G04G28G20G27G17G09G02G10
 130817742.222 6 101936155.315 5  24893828.172
 123591798.339 7  96305305.982 6  23518728.180
 105370075.673 8  82106653.02146  20051223.828                    20051231.746
 120365667.900 7  93791519.19444  22904817.633                    22904825.102
 131761631.32914                  25073364.148
 118636274.143 7  92443941.50045  22575742.508                    22575750.984
 115323702.353 7  89862619.977 7  21945339.375
 116465245.268 7  90752239.51645  22162608.102                    22162617.352
 111712290.023 8  87048579.82246  21258114.211                    21258120.582
 116362289.009 7  90671920.34145  22142978.242                    22142987.305
 11  7 24  1  0  0.0000000  0 10G05G12G04G28G20G27G17G09G02G10
 130713906.022 6 101855244.201 6  24874067.766
 123497026.805 7  96231458.137 6  23500693.250
 105400639.965 8  82130469.36346  20057040.047                    20057047.871
 120447010.347 7  93854902.88944  22920296.617                    22920305.277
 131833974.03314                  25087135.227
 118665834.957 7  92466975.89745  22581366.914                    22581375.844
 115362738.226 7  89893037.531 7  21952767.203
 116491397.040 7  90772617.52345  22167584.445                    22167593.250
 111660875.520 8  87008516.59446  21248330.695                    21248336.750
 116283485.740 7  90610515.27445  22127982.820                    22127992.172
 11  7 24  1  0 30.0000000  0  9G05G12G04G28G27G17G09G02G10
 130609957.818 5 101774245.928 5  24854287.992
 123402352.860 7  96157686.313 6  23482677.586
 105431678.739 8  82154655.42246  20062946.391                    20062954.457
 120528673.511 6  93918536.49944  22935836.773                    22935844.758
 118695810.298 7  92490333.28845  22587071.531                    22587079.934
 115401867.575 7  89923527.944 7  21960213.773
 116518130.186 7  90793448.57245  22172671.898                    22172681.234
 111609827.228 8  86968738.74546  21238616.234                    21238622.512
 116205004.756 7  90549361.32845  22113048.781                    22113057.504
 11  7 24  1  1  0.0000000  0  9G05G12G04G28G27G17G09G02G10
 130505899.116 5 101693161.497 5  24834486.563
 123307778.076 7  96083991.792 6  23464680.305
 105463189.202 8  82179209.03746  20068942.383                    20068950.359
 120610655.400 7  93982418.45344  22951436.984                    22951445.457
 118726197.601 7  92514011.67645  22592853.641                    22592863.559
 115441089.644 7  89954090.603 7  21967677.047
 116545441.975 7  90814730.50545  22177868.883                    22177878.246
 111559144.226 8  86929245.51446  21228972.141                    21228977.984
 116126848.411 7  90488460.34845  22098175.516                    22098184.570
 11  7 24  1  1 30.0000000  0  9G05G12G04G28G27G17G09G02G10
 130401732.645 6 101611992.986 5  24814663.266
 123213304.637 6  96010376.213 6  23446702.547
 105495169.064 8  82204128.40346  20075028.109                    20075036.230
 120692954.519 6  94046547.65744  22967098.406                    22967107.215
 118756994.882 7  92538009.53045  22598714.086                    22598723.660
 115480404.684 7  89984725.707 7  21975158.781
 116573330.368 7  90836461.73645  22183175.672                    22183185.418
 111508827.076 8  86890037.38146  21219396.602                    21219403.059
 116049019.820 7  90427814.74945  22083365.539                    22083373.891
 11  7 24  1  2  0.0000000  0  9G05G12G04G28G27G17G09G02G10
 130297460.803 5 101530742.422 5  24794821.008
 123118934.900 7  95936841.471 6  23428744.406
 105527616.837 8  82229412.38646  20081202.375                    20081210.902
 120775570.015 6  94110923.34344  22982819.219                    22982827.797
 118788200.596 7  92562325.65145  22604652.641                    22604662.094
 115519813.018 7  90015433.499 7  21982658.227
 116601793.629 7  90858640.92745  22188591.953                    22188600.875
 111458876.306 8  86851114.73346  21209891.297                    21209897.355
 115971522.504 7  90367427.31845  22068618.297                    22068627.207
 11  7 24  1  2 30.0000000  0  9G05G12G04G28G27G17G09G02G10
 130193086.091 6 101449411.731 5  24774958.820
 123024670.941 7  95863389.124 6  23410806.656
 105560530.474 8  82255059.38046  20087466.063                    20087473.867
 120858500.339 6  94175544.38644  22998600.383                    22998608.883
 118819812.938 7  92586958.59345  22610668.469                    22610677.836
 115559314.822 8  90046214.128 7  21990174.805
 116630829.761 7  90881266.48945  22194118.164                    22194126.984
 111409292.061 8  86812477.69446  21200455.844                    21200461.770
 115894359.778 7  90307300.57345  22053934.438                    22053943.000
 11  7 24  1  3  0.0000000  0  9G05G12G04G28G27G17G09G02G10
 130088611.329 6 101368003.070 5  24755077.727
 122930515.009 7  95790020.926 6  23392889.242
 105593907.988 8  82281067.82446  20093817.680                    20093825.762
 120941744.539 6  94240409.96844  23014441.258                    23014450.047
 118851830.117 7  92611907.03245  22616760.539                    22616770.113
 115598910.760 8  90077068.117 7  21997709.484
 116660437.025 7  90904337.10545  22199752.055                    22199761.230
 111360074.681 8  86774126.50446  21191090.125                    21191095.969
 115817535.018 7  90247437.21645  22039315.352                    22039324.457
 11  7 24  1  3 30.0000000  0  9G05G12G04G28G27G17G09G02G10
 129984039.137 6 101286518.469 5  24735178.555
 122836469.439 7  95716738.723 6  23374992.469
 105627747.450 8  82307436.24346  20100257.063                    20100265.434
 121025301.410 6  94305519.19144  23030341.203                    23030350.875
 118884250.517 7  92637169.62844  22622930.602                    22622939.316
 115638600.849 7  90107995.452 7  22005262.227
 116690613.622 7  90927851.34245  22205494.609                    22205503.047
 111311224.400 8  86736061.37346  21181793.922                    21181799.961
 115741051.660 7  90187839.87645  22024760.883                    22024769.172
 11  7 24  1  4  0.0000000  0  9G05G12G04G28G27G17G09G02G10
 129879371.728 6 101204959.748 5  24715260.242
 122742536.746 7  95643544.473 6  23357117.773
 105662047.069 8  82334163.22246  20106783.875                    20106792.168
 121109169.581 6  94370870.95643  23046300.680                    23046309.852
 118917072.205 7  92662744.96645  22629175.813                    22629185.168
 115678385.450 7  90138996.433 7  22012833.133
 116721357.388 7  90951807.55545  22211344.148                    22211353.566
 111262741.926 8  86698282.85946  21172568.188                    21172574.313
 115664912.584 7  90128510.77845  22010272.500                    22010280.711
 11  7 24  1  4 30.0000000  0  9G05G12G04G28G27G17G09G02G10
 129774611.819 6 101123328.990 5  24695325.117
 122648719.093 6  95570439.836 6  23339265.445
 105696804.798 8  82361247.16346  20113398.164                    20113406.340
 121193347.831 7  94436464.37544  23062320.477                    23062327.801
 118950293.433 7  92688631.58645  22635497.906                    22635507.438
 115718265.179 7  90170071.551 7  22020422.297
 116752665.875 7  90976203.76245  22217302.773                    22217311.059
 111214627.476 8  86660791.10746  21163412.414                    21163418.422
 115589121.030 7  90069452.51445  21995849.297                    21995858.043
 11  7 24  1  5  0.0000000  0  9G05G12G04G28G27G17G09G02G10
 129669761.871 6 101041628.034 6  24675372.336
 122555018.660 6  95497426.519 6  23321434.898
 105732018.763 8  82388686.60846  20120099.258                    20120106.766
 121277834.867 6  94502298.39044  23078396.773                    23078405.863
 118983912.344 7  92714828.12245  22641895.406                    22641904.195
 115758239.628 7  90201220.479 7  22028028.922
 116784537.210 7  91001038.58845  22223366.664                    22223376.191
 111166881.006 8  86623586.09246  21154326.414                    21154332.727
 115513680.284 7  90010667.57745  21981493.078                    21981502.477
 11  7 24  1  5 30.0000000  0  9G05G12G04G28G27G17G09G02G10
 129564824.506 6 100959858.968 6  24655403.422
 122461437.717 6  95424506.302 6  23303626.375
 105767686.672 8  82416479.78446  20126886.320                    20126894.797
 121362629.142 7  94568371.82744  23094533.648                    23094541.574
 119017926.993 7  92741333.00745  22648368.469                    22648377.109
 115798309.652 7  90232443.867 7  22035654.000
 116816969.277 7  91026310.33445  22229538.406                    22229548.047
 111119502.894 8  86586668.11146  21145310.523                    21145316.430
 115438593.653 7  89952158.61145  21967204.820                    21967213.250
 11  7 24  1  6  0.0000000  0 10G05G12G04G28G20G27G17G09G02G10
 129459801.262 6 100878022.998 6  24635417.953
 122367978.038 7  95351680.589 6  23285841.625
 105803805.916 8  82444624.64946  20133759.797                    20133768.039
 121447728.890 7  94634683.24244  23110727.391                    23110735.441
 132730539.94915                  25257803.789
 119052334.784 6  92768144.25445  22654915.797                    22654925.410
 115838474.783 7  90263741.355 7  22043297.031
 116849959.641 7  91052017.10345  22235816.305                    22235825.875
 111072492.733 8  86550036.83746  21136364.805                    21136370.660
 115363863.749 7  89893927.55145  21952984.211                    21952992.938
 11  7 24  1  6 30.0000000  0 10G05G12G04G28G20G27G17G09G02G10
 129354695.235 6 100796122.533 6  24615416.297
 122274642.090 7  95278951.236 6  23268080.727
 105840374.507 8  82473119.65646  20140718.547                    20140726.652
 121533132.692 7  94701231.66144  23126979.273                    23126987.074
 132807613.247 4                  25272468.617
 119087133.986 7  92795260.46344  22661537.992                    22661547.113
 115878735.202 7  90295113.104 7  22050958.547
 116883506.059 7  91078157.14845  22242200.703                    22242209.555
 111025850.782 8  86513692.50046  21127489.172                    21127495.063
 115289493.523 7  89835976.77445  21938831.680                    21938840.762
 11  7 24  1  7  0.0000000  0 10G05G12G04G28G20G27G17G09G02G10
 129249509.712 6 100714160.086 5  24595400.281
 122181432.388 7  95206320.316 6  23250343.383
 105877391.266 8  82501963.87846  20147762.828                    20147770.555
 121618839.900 7  94768016.45844  23143288.789                    23143297.383
 132885035.81914                  25287201.141
 119122323.082 6  92822680.55545  22668234.180                    22668243.043
 115919092.152 7  90326560.083 7  22058638.047
 116917607.141 7  91104729.41245  22248689.984                    22248698.918
 110979577.815 8  86477635.67546  21118683.531                    21118689.676
 115215486.840 7  89778309.28945  21924748.625                    21924757.551
 11  7 24  1  7 30.0000000  0 10G05G12G04G28G20G27G17G09G02G10
 129144246.977 6 100632137.439 5  24575368.773
 122088351.558 7  95133789.791 7  23232630.758
 105914853.882 8  82531155.52646  20154891.477                    20154899.871
 121704849.220 7  94835036.67044  23159656.195                    23159664.004
 132962805.70714                  25302001.734
 119157900.377 7  92850403.09545  22675004.523                    22675013.926
 115959545.770 7  90358082.375 7  22066336.180
 116952260.409 7  91131731.95545  22255284.234                    22255293.348
 110933674.188 8  86441866.64146  21109948.305                    21109954.613
 115141846.780 7  89720927.48045  21910735.359                    21910744.035
 11  7 24  1  8  0.0000000  0  9G05G12G04G28G27G17G09G02G10
 129038909.877 6 100550056.855 5  24555322.906
 121995402.274 7  95061361.776 6  23214943.055
 105952760.682 8  82560693.30046  20162104.977                    20162113.098
 121791159.328 7  94902291.27044  23176079.922                    23176088.031
 119193864.181 7  92878426.81145  22681848.078                    22681857.727
 116000096.677 8  90389680.488 7  22074052.383
 116987464.119 7  91159163.40545  22261982.875                    22261992.063
 110888140.204 8  86406385.65946  21101283.602                    21101289.762
 115068576.778 7  89663834.02145  21896792.969                    21896801.496
 11  7 24  1  8 30.0000000  0  9G05G12G04G28G27G17G09G02G10
 128933500.265 6 100467919.738 5  24535265.008
 121902586.402 7  94989037.740 6  23197281.109
 105991108.847 8  82590574.99246  20169402.172                    20169410.277
 121877768.271 7  94969778.72544  23192560.938                    23192569.313
 119230211.672 7  92906749.50045  22688764.734                    22688774.648
 116040744.642 7  90421354.230 7  22081788.227
 117023215.371 7  91187021.48645  22268785.930                    22268794.902
 110842975.233 8  86371192.20546  21092688.773                    21092694.977
 114995679.618 7  89607031.06545  21882920.609                    21882928.621
 11  7 24  1  9  0.0000000  0 10G05G12G04G28G20G27G17G09G02G10
 128828020.597 6 100385728.027 6  24515192.578
 121809905.265 7  94916818.730 6  23179644.461
 106029896.013 8  82620798.76746  20176783.273                    20176791.094
 121964674.355 7  95037497.67244  23209099.031                    23209107.359
 133198176.55514                  25346792.336
 119266940.371 6  92935369.25145  22695754.039                    22695763.270
 116081489.870 7  90453103.751 7  22089541.227
 117059511.338 7  91215304.03345  22275692.984                    22275702.168
 110798179.197 8  86336286.23446  21084164.547                    21084170.586
 114923157.853 7  89550520.62345  21869120.492                    21869128.840
 11  7 24  1  9 30.0000000  0  9G05G12G04G28G27G17G09G02G10
 128722474.181 6 100303484.335 6  24495107.383
 121717362.268 7  94844707.318 6  23162033.758
 106069120.743 8  82651363.50446  20184247.680                    20184255.695
 122051876.811 7  95105447.61143  23225693.383                    23225701.637
 119304049.236 7  92964285.20145  22702815.703                    22702824.840
 116122333.090 7  90484929.648 7  22097313.367
 117096350.597 7  91244009.94745  22282703.617                    22282713.098
 110753752.950 8  86301668.42146  21075710.391                    21075716.500
 114851015.417 7  89494305.78745  21855392.445                    21855400.578
 11  7 24  1 10  0.0000000  0  9G05G12G04G28G27G17G09G02G10
 128616864.153 6 100221191.158 6  24475010.813
 121624960.318 7  94772705.882 6  23144450.164
 106108781.498 8  82682267.98646  20191794.852                    20191802.879
 122139374.967 6  95173627.94043  23242343.328                    23242352.398
 119341536.766 7  92993496.23945  22709950.180                    22709958.684
 116163275.060 7  90516832.486 7  22105104.516
 117133731.438 7  91273137.86245  22289816.789                    22289825.777
 110709697.259 8  86267339.33246  21067326.977                    21067332.984
 114779256.353 7  89438389.67845  21841736.883                    21841745.734
 11  7 24  1 10 30.0000000  0  9G05G12G04G28G27G17G09G02G10
 128511192.047 6 100138849.577 6  24454901.148
 121532701.049 7  94700815.608 6  23126894.281
 106148875.115 8  82713509.77546  20199424.633                    20199432.465
 122227165.921 6  95242036.45043  23259049.430                    23259057.445
 119379399.885 7  93022999.96145  22717154.469                    22717163.773
 116204315.434 7  90548811.982 7  22112914.117
 117171650.536 7  91302685.19845  22297033.016                    22297042.125
 110666011.215 8  86233298.29746  21059013.727                    21059019.777
 114707882.348 7  89382773.62845  21828154.219                    21828163.277
 11  7 24  1 11  0.0000000  0  9G05G12G04G28G27G17G09G02G10
 128405461.255 6 100056462.248 6  24434781.016
 121440587.004 7  94629038.505 6  23109365.227
 106189400.172 8  82745087.76346  20207136.156                    20207144.141
 122315248.972 6  95310672.57543  23275810.508                    23275819.344
 119417637.123 7  93052795.19845  22724430.469                    22724440.414
 116245454.656 7  90580868.522 7  22120742.680
 117210105.864 7  91332650.39045  22304350.758                    22304359.719
 110622695.277 8  86199545.66446  21050770.883                    21050777.566
 114636897.380 7  89327460.68945  21814647.164                    21814654.828
 11  7 24  1 11 30.0000000  0  9G05G12G04G28G27G17G09G02G10
 128299674.080 6  99974030.936 6  24414650.570
 121348620.142 7  94557376.070 6  23091864.281
 106230353.854 8  82776999.72146  20214929.313                    20214937.594
 122403622.207 6  95379534.80743  23292627.344                    23292635.582
 119456245.801 7  93082879.86345  22731777.523                    22731787.270
 116286692.970 7  90613002.257 7  22128590.469
 117249094.824 7  91363031.36445  22311769.563                    22311779.324
 110579749.165 8  86166081.18146  21042598.313                    21042604.277
 114566303.799 7  89272452.71845  21801213.531                    21801221.254
 11  7 24  1 12  0.0000000  0  9G05G12G04G28G27G17G09G02G10
 128193832.717 6  99891557.408 6  24394508.820
 121256802.632 7  94485830.038 6  23074391.688
 106271733.939 8  82809243.95146  20222803.336                    20222811.258
 122492284.190 7  95448621.98144  23309499.695                    23309508.172
 119495223.759 7  93113252.27545  22739195.398                    22739204.379
 116328030.627 7  90645213.434 7  22136456.633
 117288614.579 7  91393825.94345  22319289.852                    22319300.316
 110537172.729 8  86132904.76046  21034496.836                    21034502.523
 114496104.684 7  89217752.14845  21787854.914                    21787862.984
 11  7 24  1 12 30.0000000  0  9G05G12G04G28G27G17G09G02G10
 128087940.242 6  99809044.072 6  24374358.969
 121165137.472 7  94414402.708 6  23056949.094
 106313538.857 8  82841819.22446  20230758.852                    20230766.500
 122581233.782 7  95517933.29344  23326426.719                    23326435.766
 119534569.622 7  93143911.35044  22746682.219                    22746691.645
 116369468.241 7  90677502.458 7  22144341.828
 117328663.544 7  91425032.89845  22326910.555                    22326920.445
 110494966.901 8  86100017.12246  21026464.961                    21026471.082
 114426303.704 7  89163361.88245  21774571.797                    21774580.742
 11  7 24  1 13  0.0000000  0  9G05G12G04G28G27G17G09G02G10
 127981999.212 6  99726492.885 6  24354198.500
 121073626.806 7  94343095.747 6  23039534.641
 106355766.109 8  82874723.56846  20238794.398                    20238802.551
 122670469.348 7  95587467.46644  23343407.898                    23343416.020
 119574281.184 6  93174855.40944  22754239.227                    22754248.863
 116411006.503 7  90709869.922 7  22152246.172
 117369238.926 7  91456650.04145  22334632.492                    22334642.273
 110453131.298 8  86067417.98246  21018503.609                    21018509.715
 114356903.492 7  89109283.81645  21761365.883                    21761373.523
 11  7 24  1 13 30.0000000  0  9G05G12G04G28G27G17G09G02G10
 127876012.121 6  99643905.819 6  24334029.703
 120982272.730 7  94271910.820 6  23022150.492
 106398413.519 8  82907955.31946  20246909.570                    20246917.680
 122759989.208 7  95657223.15744  23360442.688                    23360450.871
 119614355.919 7  93206082.45444  22761864.961                    22761873.883
 116452645.274 7  90742315.716 7  22160170.117
 117410338.336 7  91488675.51744  22342453.250                    22342462.715
 110411665.571 8  86035107.05546  21010613.273                    21010619.445
 114287907.165 7  89055520.43545  21748236.336                    21748243.824
 11  7 24  1 14  0.0000000  0  9G05G12G04G28G27G17G09G02G10
 127769982.099 6  99561285.319 6  24313852.359
 120891078.273 7  94200850.271 6  23004796.922
 106441479.200 8  82941513.00046  20255104.914                    20255112.813
 122849792.045 7  95727199.36744  23377531.422                    23377540.156
 119654791.902 7  93237590.97444  22769560.328                    22769569.938
 116494385.036 7  90774840.199 7  22168112.758
 117451959.430 7  91521107.52145  22350373.852                    22350382.629
 110370570.229 8  86003084.73546  21002792.813                    21002799.426
 114219317.754 7  89002074.20545  21735183.242                    21735192.438
 11  7 24  1 14 30.0000000  0  9G05G12G04G28G27G17G09G02G10
 127663911.533 6  99478633.225 6  24293668.375
 120800045.618 7  94129915.811 6  22987473.719
 106484960.709 8  82975394.70246  20263379.125                    20263387.813
 122939876.097 7  95797394.68844  23394674.289                    23394683.063
 119695586.898 7  93269379.27145  22777322.844                    22777332.566
 116536226.168 7  90807443.666 7  22176074.477
 117494099.614 7  91553943.99345  22358392.516                    22358401.609
 110329845.246 8  85971351.00846  20995043.102                    20995049.074
 114151138.392 7  88948947.50745  21722209.594                    21722218.191
 11  7 24  1 15  0.0000000  0  9G05G12G04G28G27G17G09G02G10
 127557803.039 6  99395951.536 6  24273476.297
 120709177.097 7  94059109.226 6  22970181.250
 106528856.064 8  83009598.88446  20271732.641                    20271740.777
 123030239.847 7  95867807.98543  23411868.680                    23411877.742
 119736738.936 7  93301445.77244  22785153.578                    22785163.430
 116578169.333 8  90840126.627 7  22184056.422
 117536756.257 7  91587182.92444  22366510.375                    22366518.152
 110289490.607 8  85939905.86246  20987363.641                    20987369.781
 114083372.199 7  88896142.71345  21709314.688                    21709321.801
 11  7 24  1 15 30.0000000  0  9G05G12G04G28G27G17G09G02G10
 127451659.396 6  99313242.458 6  24253277.250
 120618475.055 7  93988432.376 6  22952921.297
 106573162.948 8  83044123.72446  20280163.445                    20280171.551
 123120881.826 6  95938438.09943  23429118.000                    23429127.586
 119778245.751 7  93333788.73744  22793052.422                    22793061.305
 116620214.548 8  90872889.143 7  22192057.320
 117579926.844 7  91620822.30745  22374725.508                    22374733.152
 110249506.131 8  85908749.15846  20979755.250                    20979761.195
 114016022.000 7  88843662.06245  21696497.477                    21696505.633
 11  7 24  1 16  0.0000000  0  9G05G12G04G28G27G17G09G02G10
 127345483.563 6  99230508.295 6  24233072.164
 120527942.092 7  93917887.261 6  22935694.219
 106617879.100 8  83078967.47746  20288672.898                    20288680.770
 123211800.502 6  96009283.79943  23446419.188                    23446427.844
 119820105.069 7  93366406.36944  22801017.984                    22801028.027
 116662362.169 8  90905731.430 7  22200078.141
 117623608.802 7  91654860.18645  22383038.094                    22383046.457
 110209891.831 8  85877880.88746  20972216.766                    20972222.461
 113949090.736 7  88791507.89445  21683760.813                    21683769.273
 11  7 24  1 16 30.0000000  0  9G05G12G04G28G27G17G09G02G10
 127239277.609 6  99147750.655 6  24212861.930
 120437580.364 7  93847475.576 6  22918498.563
 106663002.093 8  83114128.25246  20297259.242                    20297267.465
 123302994.138 6  96080343.70143  23463773.305                    23463781.598
 119862314.552 7  93399296.81945  22809050.180                    22809060.055
 116704612.781 7  90938653.964 7  22208118.047
 117667799.652 7  91689294.59745  22391446.867                    22391455.738
 110170647.522 8  85847300.93146  20964748.969                    20964754.926
 113882581.195 7  88739682.33445  21671104.664                    21671113.723
 11  7 24  1 17  0.0000000  0  9G05G12G04G28G27G17G09G02G10
 127133044.415 6  99064971.789 6  24192646.102
 120347392.405 7  93777199.262 6  22901336.570
 106708530.028 8  83149604.56046  20305922.922                    20305930.992
 123394461.432 6  96151616.89443  23481178.477                    23481186.996
 119904872.138 7  93432458.54844  22817148.734                    22817158.383
 116746966.732 7  90971657.066 7  22216177.641
 117712496.480 7  91724123.27645  22399952.398                    22399961.793
 110131773.063 8  85817009.17346  20957351.289                    20957357.340
 113816496.773 7  88688188.01345  21658529.242                    21658538.113
 11  7 24  1 17 30.0000000  0  9G05G12G04G28G27G17G09G02G10
 127026787.257 6  98982174.215 6  24172426.180
 120257380.607 7  93707060.238 7  22884207.742
 106754460.612 8  83185394.62146  20314663.672                    20314671.043
 123486200.337 6  96223101.71043  23498636.102                    23498645.223
 119947775.709 7  93465889.87144  22825312.914                    22825321.563
 116789424.468 7  91004740.988 7  22224256.766
 117757697.258 7  91759344.61645  22408552.898                    22408563.891
 110093268.867 8  85787005.92646  20950024.336                    20950030.156
 113750840.347 7  88637027.20445  21646034.672                    21646043.598
 11  7 24  1 18  0.0000000  0  9G05G12G04G28G27G17G09G02G10
 126920508.174 6  98899359.530 6  24152201.789
 120167547.344 7  93637060.359 7  22867112.914
 106800791.276 8  83221496.43846  20323479.852                    20323487.672
 123578209.217 6  96294796.93343  23516144.336                    23516152.938
 119991022.687 6  93499588.77744  22833542.453                    22833551.930
 116831986.499 7  91037906.207 7  22232355.930
 117803398.821 7  91794956.17345  22417250.164                    22417260.621
 110055134.405 8  85757290.78146  20942767.555                    20942773.344
 113685614.640 7  88586202.01245  21633622.773                    21633630.965
 11  7 24  1 18 30.0000000  0  9G05G12G04G28G27G17G09G02G10
 126814210.205 6  98816530.108 6  24131973.836
 120077895.400 7  93567201.738 7  22850052.484
 106847520.207 8  83257908.56646  20332372.008                    20332380.133
 123670486.814 6  96366701.52743  23533704.266                    23533712.133
 120034611.083 6  93533553.73445  22841837.867                    22841846.738
 116874652.888 7  91071152.773 7  22240474.883
 117849598.931 7  91830956.19445  22426042.109                    22426052.148
 110017369.833 8  85727863.86446  20935580.945                    20935586.813
 113620823.105 7  88535715.12945  21621294.344                    21621301.977
 11  7 24  1 19  0.0000000  0  9G05G12G04G28G27G17G09G02G10
 126707896.231 6  98733688.227 6  24111743.297
 119988426.715 7  93497485.914 7  22833027.492
 106894644.935 8  83294629.13446  20341339.523                    20341347.715
 123763031.360 6  96438814.11943  23551315.367                    23551324.250
 120078538.462 7  93567782.82544  22850196.016                    22850206.109
 116917424.204 7  91104481.069 7  22248614.641
 117896294.524 7  91867342.33445  22434928.336                    22434938.512
 109979974.645 8  85698724.77146  20928465.164                    20928471.176
 113556467.786 7  88485568.17945  21609047.461                    21609055.742
 11  7 24  1 19 30.0000000  0  9G05G12G04G28G27G17G09G02G10
 126601568.704 6  98650835.702 5  24091508.789
 119899144.046 7  93427915.047 7  22816037.867
 106942163.225 8  83331656.36846  20350382.180                    20350390.152
 123855841.104 6  96511133.38043  23568976.016                    23568985.633
 120122802.682 7  93602274.38544  22858620.258                    22858629.055
 116960301.116 7  91137891.649 7  22256773.961
 117943482.863 7  91904112.40945  22443908.445                    22443917.328
 109942949.050 8  85669873.69546  20921419.125                    20921425.270
 113492551.990 7  88435763.72645  21596884.664                    21596892.406
 11  7 24  1 20  0.0000000  0  9G05G12G04G28G27G17G09G02G10
 126495230.693 6  98567974.977 6  24071273.938
 119810049.819 7  93358491.009 6  22799083.281
 106990073.100 8  83368988.73246  20359499.047                    20359507.375
 123948914.487 6  96583658.03443  23586687.336                    23586696.797
 120167401.572 7  93637026.73945  22867106.805                    22867116.090
 117003283.936 7  91171384.755 7  22264953.031
 117991161.656 7  91941264.69445  22452981.656                    22452990.609
 109906292.966 8  85641310.53246  20914443.695                    20914450.070
 113429079.065 7  88386304.31645  21584805.984                    21584813.793
 11  7 24  1 20 30.0000000  0  9G05G12G04G28G27G17G09G02G10
 126388884.521 6  98485107.984 6  24051036.414
 119721146.771 7  93289215.906 7  22782165.547
 107038371.916 8  83406624.16546  20368689.609                    20368697.984
 124042249.766 6  96656386.80443  23604448.641                    23604457.527
 120212332.552 7  93672037.88944  22875656.078                    22875665.711
 117046372.915 7  91204960.599 7  22273152.664
 118039327.891 7  91978796.80445  22462146.602                    22462155.430
 109870006.199 8  85613035.15846  20907538.875                    20907544.918
 113366051.496 7  88337191.94745  21572812.406                    21572820.309
 11  7 24  1 21  0.0000000  0  9G05G12G04G28G27G17G09G02G10
 126282533.213 6  98402236.972 6  24030799.102
 119632437.134 7  93220091.518 7  22765284.945
 107087057.769 8  83444561.18446  20377954.500                    20377962.547
 124135845.529 6  96729318.51243  23622259.438                    23622268.414
 120257593.498 6  93707306.10444  22884269.648                    22884279.398
 117089568.320 8  91238619.356 7  22281372.703
 118087979.176 7  92016706.87945  22471404.984                    22471413.762
 109834088.710 8  85585047.52846  20900703.719                    20900709.645
 113303472.250 7  88288428.95945  21560903.648                    21560912.531
 11  7 24  1 21 30.0000000  0  9G05G12G04G28G27G17G09G02G10
 126176179.378 7  98319363.929 6  24010559.656
 119543923.039 7  93151119.510 6  22748441.695
 107136127.717 8  83482797.48946  20387292.422                    20387300.477
 124229699.651 6  96802451.58243  23640119.148                    23640128.117
 120303181.722 6  93742829.37744  22892944.875                    22892954.816
 117132871.039 7  91272361.711 7  22289612.508
 118137112.294 7  92054992.44344  22480754.289                    22480762.398
 109798539.839 8  85557347.13646  20893939.289                    20893944.656
 113241343.937 7  88240017.31845  21549081.508                    21549089.277
 11  7 24  1 22  0.0000000  0  9G05G12G04G28G27G17G09G02G10
 126069826.465 6  98236491.624 6  23990321.094
 119455607.727 7  93082302.416 6  22731635.320
 107185580.336 8  83521331.99246  20396703.008                    20396710.609
 124323811.014 6  96875785.08443  23658028.273                    23658037.922
 120349095.827 7  93778606.60144  22901682.273                    22901691.762
 117176281.168 7  91306187.802 7  22297873.195
 118186724.959 7  92093651.65344  22490194.813                    22490203.852
 109763360.522 8  85529934.70646  20887244.602                    20887250.473
 113179670.039 7  88191959.74345  21537345.086                    21537352.516
 11  7 24  1 22 30.0000000  0  9G05G12G04G28G27G17G09G02G10
 125963476.353 6  98153621.589 6  23970083.117
 119367493.129 7  93013641.701 6  22714868.352
 107235412.612 8  83560162.32946  20406185.570                    20406193.520
 124418177.197 6  96949317.16743  23675985.398                    23675994.105
 120395332.758 7  93814635.36144  22910479.766                    22910489.680
 117219799.086 7  91340097.871 7  22306154.398
 118236813.729 7  92132681.84844  22499726.156                    22499735.359
 109728549.193 8  85502809.03646  20880620.297                    20880626.320
 113118452.747 7  88144257.99245  21525695.695                    21525704.543
 11  7 24  1 23  0.0000000  0  9G05G12G04G28G27G17G09G02G10
 125857132.299 7  98070756.236 6  23949846.609
 119279581.950 7  92945139.552 6  22698137.813
 107285622.842 8  83599287.17246  20415740.203                    20415748.477
 124512796.896 6  97023046.78743  23693990.656                    23693999.988
 120441890.354 7  93850913.98544  22919340.188                    22919349.328
 117263425.495 7  91374092.461 7  22314456.055
 118287376.216 7  92172081.14745  22509348.953                    22509357.766
 109694106.231 8  85475970.40046  20874065.750                    20874071.777
 113057695.016 7  88096914.35545  21514133.141                    21514142.285
 11  7 24  1 23 30.0000000  0  9G05G12G04G28G27G17G09G02G10
 125750797.014 6  97987897.658 6  23929612.023
 119191876.742 7  92876797.869 7  22681448.977
 107336208.478 8  83638704.54946  20425366.234                    20425374.430
 124607668.351 6  97096972.54643  23712044.789                    23712053.813
 120488766.118 6  93887440.52244  22928260.633                    22928269.707
 117307160.775 7  91408171.905 7  22322778.766
 118338409.691 7  92211847.45045  22519060.539                    22519069.309
 109660031.656 8  85449418.80746  20867581.484                    20867587.367
 112997399.737 7  88049931.05945  21502659.844                    21502668.406
 11  7 24  1 24  0.0000000  0  9G05G12G04G28G27G17G09G02G10
 125644473.335 6  97905048.180 6  23909378.977
 119104379.789 7  92808618.490 7  22664798.148
 107387167.245 8  83678412.67046  20435063.547                    20435071.680
 124702789.757 6  97171093.07343  23730145.023                    23730154.637
 120535957.798 7  93924213.24544  22937240.844                    22937250.254
 117351005.314 7  91442336.480 7  22331122.484
 118389910.949 7  92251978.26245  22528860.680                    22528870.406
 109626324.947 8  85423153.87646  20861167.336                    20861173.188
 112937569.642 7  88003310.22945  21491275.023                    21491282.559
 11  7 24  1 24 30.0000000  0  9G05G12G04G28G27G17G09G02G10
 125538163.761 6  97822209.688 6  23889149.281
 119017093.654 7  92740603.361 6  22648188.234
 107438496.523 8  83718409.50046  20444831.344                    20444839.473
 124798159.256 6  97245406.92143  23748293.570                    23748302.754
 120583462.657 6  93961229.98944  22946280.602                    22946289.793
 117394959.358 7  91476586.383 7  22339486.172
 118441877.157 7  92292471.35445  22538749.906                    22538759.066
 109592985.634 8  85397175.22646  20854822.797                    20854828.867
 112878207.103 7  87957053.75345  21479978.344                    21479986.637
 11  7 24  1 25  0.0000000  0  9G05G12G04G28G27G17G09G02G10
 125431871.523 6  97739384.705 6  23868921.734
 118930021.167 7  92672754.739 7  22631619.305
 107490194.689 8  83758693.78046  20454669.078                    20454676.914
 124893775.568 6  97319913.09743  23766488.992                    23766497.813
 120631278.711 7  93998489.20644  22955379.805                    22955389.633
 117439023.834 7  91510922.331 7  22347871.633
 118494305.803 7  92333324.85545  22548726.094                    22548735.586
 109560014.130 8  85371483.18346  20848548.602                    20848554.930
 112819315.741 7  87911164.40445  21468771.820                    21468779.652
 11  7 24  1 25 30.0000000  0  9G05G12G04G28G27G17G09G02G10
 125325599.564 6  97656575.516 6  23848700.000
 118843164.563 7  92605074.349 7  22615091.094
 107542259.023 8  83799263.38446  20464576.563                    20464584.695
 124989636.559 6  97394609.95443  23784730.164                    23784739.641
 120679403.439 6  94035988.94244  22964537.297                    22964547.094
 117483199.018 7  91545344.564 7  22356278.023
 118547193.746 7  92374536.21045  22558790.156                    22558799.344
 109527409.844 8  85346077.28546  20842344.461                    20842349.977
 112760897.799 8  87865643.96845  21457655.445                    21457662.887
 11  7 24  1 26  0.0000000  0  9G05G12G04G28G27G17G09G02G10
 125219349.990 6  97573783.807 6  23828480.930
 118756525.786 7  92537563.690 6  22598604.273
 107594687.012 8  83840116.35446  20474553.180                    20474561.348
 125085740.220 6  97469495.88044  23803018.945                    23803027.688
 120727834.117 7  94073727.04444  22973753.445                    22973763.621
 117527485.309 7  91579853.365 7  22364705.180
 118600537.961 7  92416103.08045  22568941.250                    22568951.176
 109495172.017 8  85320956.93746  20836209.773                    20836215.512
 112702955.608 7  87820494.25745  21446629.102                    21446637.539
 11  7 24  1 26 30.0000000  0  9G05G12G04G28G27G17G09G02G10
 125113126.133 6  97491012.087 6  23808266.742
 118670108.254 7  92470225.418 7  22582159.305
 107647476.766 8  83881251.20246  20484599.281                    20484607.012
 125182085.329 7  97544570.00543  23821352.773                    23821361.223
 120776568.608 6  94111701.89044  22983027.273                    22983037.121
 117571883.208 7  91614449.101 7  22373153.836
 118654335.837 7  92458023.49045  22579178.766                    22579188.039
 109463301.171 8  85296122.53646  20830144.961                    20830151.020
 112645492.508 8  87775717.83745  21435694.336                    21435701.945
 11  7 24  1 27  0.0000000  0  9G05G12G04G28G27G17G09G02G10
 125006930.906 7  97408262.691 6  23788058.344
 118583914.322 7  92403061.408 7  22565757.234
 107700625.824 8  83922666.04746  20494712.875                    20494721.004
 125278669.718 6  97619830.52943  23839731.922                    23839740.492
 120825604.528 7  94149911.62344  22992358.664                    22992368.594
 117616393.093 7  91649132.132 7  22381623.516
 118708584.098 7  92500294.80445  22589502.070                    22589511.184
 109431796.730 8  85271573.66046  20824149.867                    20824155.707
 112588510.915 8  87731316.62445  21424850.531                    21424858.965
 11  7 24  1 27 30.0000000  0  9G05G12G04G28G27G17G09G02G10
 124900766.783 6  97325537.551 6  23767856.125
 118497946.145 7  92336073.296 7  22549397.813
 107754131.603 8  83964358.85846  20504894.547                    20504902.805
 125375491.612 7  97695276.12943  23858156.875                    23858164.500
 120874939.269 7  94188354.19944  23001747.500                    23001756.918
 117661015.501 7  91683902.844 6  22390115.188
 118763279.667 7  92542914.71944  22599909.820                    22599919.176
 109400658.071 8  85247309.80746  20818223.961                    20818230.051
 112532013.297 7  87687292.53945  21414099.453                    21414108.551
 11  7 24  1 28  0.0000000  0  9G05G12G04G28G27G17G09G02G10
 124794636.864 6  97242839.004 6  23747659.555
 118412206.513 7  92269263.285 7  22533082.141
 107807992.127 8  84006328.09046  20515144.016                    20515151.543
 125472549.195 7  97770905.41443  23876626.508                    23876634.555
 120924570.444 7  94227027.75644  23011191.891                    23011200.582
 117705750.844 7  91718761.549 7  22398628.406
 118818420.269 7  92585881.37144  22610403.047                    22610412.059
 109369885.059 8  85223330.87146  20812368.320                    20812374.363
 112476002.669 7  87643647.94145  21403441.492                    21403449.859
 11  7 24  1 28 30.0000000  0  9G05G12G04G28G27G17G09G02G10
 124688543.783 6  97160169.221 6  23727470.516
 118326697.922 7  92202633.282 7  22516810.508
 107862204.830 8  84048571.74746  20525460.148                    20525468.848
 125569840.447 7  97846716.74743  23895139.891                    23895148.156
 120974495.467 7  94265930.31344  23020691.875                    23020701.707
 117750599.578 7  91753708.592 7  22407162.430
 118874002.467 7  92629192.18044  22620979.703                    22620988.953
 109339477.099 8  85199636.38046  20806582.313                    20806587.574
 112420481.658 8  87600384.84045  21392875.656                    21392883.465
 11  7 24  1 29  0.0000000  0  9G05G12G04G28G27G17G09G02G10
 124582490.761 7  97077530.671 7  23707288.938
 118241422.963 7  92136185.338 7  22500583.172
 107916767.574 8  84091088.16346  20535843.047                    20535851.430
 125667364.032 6  97922709.11443  23913698.477                    23913707.031
 121024712.117 7  94305060.07744  23030247.484                    23030258.172
 117795562.187 7  91788744.386 7  22415718.859
 118930023.396 7  92672844.82945  22631640.352                    22631649.879
 109309434.233 8  85176226.39846  20800864.734                    20800870.684
 112365452.925 8  87557505.34145  21382403.758                    21382411.852
 11  7 24  1 29 30.0000000  0  9G05G12G04G28G27G17G09G02G10
 124476480.464 7  96994925.380 6  23687116.109
 118156384.230 7  92069921.466 6  22484400.563
 107971678.132 8  84133875.59946  20546292.602                    20546300.313
 125765117.974 6  97998880.98943  23932299.773                    23932309.047
 121075218.015 7  94344415.23044  23039859.539                    23039869.305
 117840639.232 7  91823869.373 7  22424296.453
 118986480.272 7  92716837.15145  22642384.305                    22642393.797
 109279756.116 8  85153100.62346  20795217.250                    20795222.836
 112310919.158 8  87515011.53445  21372026.625                    21372034.992
 11  7 24  1 30  0.0000000  0  9G05G12G04G28G27G17G09G02G10
 124370515.628 7  96912355.512 6  23666951.820
 118071584.080 7  92003843.489 7  22468263.602
 108026933.937 8  84176932.07346  20556807.273                    20556815.191
 125863100.248 6  98075230.75843  23950945.680                    23950954.141
 121126010.596 6  94383993.82544  23049524.266                    23049534.324
 117885831.510 7  91859084.140 7  22432896.117
 119043369.880 7  92761166.68145  22653210.250                    22653219.496
 109250442.461 8  85130258.84346  20789638.914                    20789644.547
 112256882.853 8  87472905.36546  21361743.836                    21361752.633
 11  7 24  1 30 30.0000000  0  9G05G12G04G28G27G17G09G02G10
 124264599.391 7  96829823.508 6  23646796.188
 117987025.195 7  91937953.516 7  22452172.828
 108082532.929 8  84220255.95846  20567387.320                    20567395.098
 125961309.095 6  98151757.11443  23969634.664                    23969643.301
 121177087.357 7  94423793.84344  23059244.516                    23059253.504
 117931139.056 7  91894388.717 7  22441517.891
 119100689.255 7  92805831.12245  22664117.828                    22664126.164
 109221492.745 8  85107700.65446  20784129.898                    20784136.105
 112203346.174 7  87431188.52045  21351555.961                    21351564.129
 11  7 24  1 31  0.0000000  0  9G05G12G04G28G27G17G09G02G10
 124158734.382 7  96747331.426 6  23626650.875
 117902710.038 7  91872253.464 7  22436127.578
 108138472.521 8  84263845.24946  20578031.961                    20578040.297
 126059742.799 6  98228458.61843  23988366.109                    23988374.824
 121228445.831 7  94463813.42844  23069017.297                    23069026.523
 117976562.381 7  91929783.507 7  22450161.805
 119158435.253 6  92850828.00745  22675105.781                    22675115.695
 109192906.659 8  85085425.81346  20778690.094                    20778696.254
 112150311.932 8  87389863.16846  21341464.125                    21341472.707
 11  7 24  1 31 30.0000000  0  9G05G12G04G28G27G17G09G02G10
 124052923.370 7  96664881.427 6  23606515.164
 117818641.194 7  91806745.309 7  22420130.258
 108194750.186 8  84307697.97846  20588741.805                    20588749.547
 126158399.215 6  98305333.69343  24007139.000                    24007148.746
 121280083.071 7  94504050.20744  23078844.023                    23078853.773
 118022101.972 7  91965268.910 7  22458827.727
 119216604.545 7  92896154.67545  22686175.516                    22686185.434
 109164683.462 8  85063433.73946  20773319.773                    20773325.332
 112097782.617 8  87348931.27546  21331468.047                    21331476.535
 11  7 24  1 32  0.0000000  0  9G05G12G04G28G27G17G09G02G10
 123947169.202 7  96582475.725 6  23586391.484
 117734821.297 7  91741431.111 7  22404179.523
 108251363.889 8  84351812.54946  20599514.484                    20599523.008
 126257276.514 6  98382380.91243  24025954.930                    24025963.777
 121331996.705 7  94544502.36344  23088722.125                    23088732.637
 118067758.283 7  92000845.251 7  22467515.125
 119275194.302 7  92941809.02844  22697324.609                    22697333.965
 109136822.898 8  85041724.23446  20768017.602                    20768023.707
 112045760.507 8  87308394.61345  21321568.586                    21321576.648
 11  7 24  1 32 30.0000000  0  9G05G12G04G28G27G17G09G02G10
 123841475.124 7  96500116.819 6  23566278.742
 117651252.701 7  91676312.742 7  22388276.828
 108308311.349 8  84396187.20346  20610351.430                    20610359.762
 126356372.941 6  98459598.88343  24044812.102                    24044821.840
 121384184.463 7  94585168.11844  23098653.953                    23098663.145
 118113532.116 7  92036513.185 7  22476225.852
 119334201.677 7  92987788.76544  22708553.320                    22708562.199
 109109324.664 8  85020297.06846  20762785.031                    20762791.004
 111994248.641 8  87268255.52045  21311766.133                    21311773.773
 11  7 24  1 33  0.0000000  0  9G05G12G04G28G27G17G09G02G10
 123735844.205 7  96417807.143 6  23546177.477
 117567938.224 7  91611392.384 7  22372422.938
 108365590.329 8  84440820.17046  20621251.328                    20621259.648
 126455686.659 6  98536986.14942  24063711.328                    24063719.926
 121436644.037 7  94626045.69944  23108636.070                    23108645.258
 118159424.059 7  92072273.135 7  22484959.047
 119393623.399 7  93034091.38644  22719860.508                    22719870.246
 109082188.736 8  84999152.21246  20757621.492                    20757626.871
 111943249.495 8  87228515.96545  21302060.984                    21302068.848
 11  7 24  1 33 30.0000000  0  9G05G12G04G28G27G17G09G02G10
 123630279.142 7  96335548.790 6  23526088.578
 117484880.280 7  91546671.956 7  22356617.086
 108423198.258 8  84485709.46446  20632213.672                    20632221.953
 126555215.713 6  98614541.21343  24082651.438                    24082659.773
 121489372.612 7  94667132.85444  23118670.391                    23118680.078
 118205434.076 7  92108125.099 7  22493715.023
 119453456.139 7  93080714.27944  22731246.586                    22731255.488
 109055414.099 8  84978288.88446  20752526.227                    20752532.027
 111892765.182 8  87189177.57945  21292454.969                    21292463.105
 11  7 24  1 34  0.0000000  0  9G05G12G04G28G27G17G09G02G10
 123524782.489 7  96253343.757 6  23506013.039
 117402081.399 7  91482153.323 7  22340861.438
 108481132.770 8  84530853.24246  20643238.414                    20643246.629
 126654957.889 6  98692262.31342  24101631.344                    24101640.039
 121542367.343 7  94708427.44844  23128754.867                    23128764.465
 118251563.100 7  92144069.781 7  22502492.617
 119513696.807 7  93127655.02844  22742709.758                    22742719.090
 109029000.172 8  84957706.62846  20747499.977                    20747505.453
 111842798.092 8  87150242.21045  21282946.047                    21282953.879
 11  7 24  1 34 30.0000000  0  9G05G12G04G28G27G17G09G02G10
 123419357.647 7  96171194.626 6  23485951.789
 117319544.352 7  91417838.753 7  22325154.938
 108539391.588 8  84576249.72246  20654324.500                    20654332.801
 126754911.780 6  98770148.45142  24120651.367                    24120660.418
 121595625.793 7  94749927.51744  23138888.750                    23138899.504
 118297811.417 7  92180107.441 6  22511293.125
 119574342.758 7  93174911.57244  22754250.492                    22754260.113
 109002946.976 8  84937405.45746  20742542.133                    20742547.516
 111793350.721 8  87111711.84145  21273536.805                    21273544.188
 11  7 24  1 35  0.0000000  0  9G05G12G04G28G27G17G09G02G10
 123314006.873 7  96089103.277 6  23465903.344
 117237271.303 7  91353729.885 7  22309499.531
 108597972.284 8  84621897.01146  20665472.180                    20665480.383
 126855075.046 6  98848197.70542  24139712.570                    24139721.125
 121649145.484 7  94791631.15344  23149073.906                    23149083.602
 118344179.444 7  92216238.378 6  22520116.703
 119635390.430 7  93222481.12044  22765867.766                    22765877.148
 108977253.694 8  84917384.74046  20737652.953                    20737658.078
 111744425.144 8  87073588.02946  21264226.094                    21264234.313
 11  7 24  1 35 30.0000000  0  9G05G12G04G28G27G17G09G02G10
 123208733.177 7  96007071.992 6  23445870.031
 117155264.789 7  91289828.719 7  22293893.938
 108656872.343 8  84667793.15446  20676680.500                    20676688.441
 126955445.508 6  98926408.38242  24158812.297                    24158821.605
 121702923.315 7  94833535.94144  23159307.141                    23159316.527
 118390667.470 7  92252462.833 7  22528963.250
 119696836.528 7  93270361.12045  22777560.875                    22777569.832
 108951919.353 8  84897643.72246  20732831.609                    20732837.473
 111696023.821 8  87035872.74546  21255015.836                    21255023.621
 11  7 24  1 36  0.0000000  0  9G05G12G04G28G27G17G09G02G10
 123103539.530 7  95925103.039 6  23425852.938
 117073527.625 7  91226137.398 7  22278339.086
 108716089.488 8  84713936.39446  20687949.219                    20687956.703
 127056021.594 6  99004779.28243  24177951.539                    24177960.922
 121756956.910 7  94875640.00344  23169589.969                    23169599.719
 118437276.175 7  92288781.307 7  22537832.875
 119758677.906 7  93318549.15644  22789328.742                    22789338.199
 108926943.755 8  84878182.24346  20728078.984                    20728084.633
 111648149.186 8  86998567.86945  21245905.172                    21245913.574
 11  7 24  1 36 30.0000000  0  9G05G12G04G28G27G17G09G02G10
 122998429.215 7  95843199.024 6  23405850.984
 116992062.695 7  91162658.257 7  22262837.414
 108775621.759 8  84760325.17846  20699277.453                    20699285.508
 127156801.486 6  99083308.98542  24197129.203                    24197138.488
 121811244.549 7  94917941.99144  23179920.391                    23179930.707
 118484006.359 7  92325194.459 7  22546725.375
 119820911.894 7  93367043.07644  22801171.453                    22801180.941
 108902327.168 8  84859000.50646  20723394.781                    20723400.371
 111600804.024 8  86961675.55746  21236896.078                    21236904.277
 11  7 24  1 37  0.0000000  0  9G05G12G04G28G27G17G09G02G10
 122893405.009 7  95761362.113 7  23385865.117
 116910872.146 7  91099392.896 7  22247386.688
 108835466.674 8  84806957.56946  20710665.531                    20710674.379
 127257783.187 6  99161996.00342  24216345.703                    24216355.797
 121865783.098 7  94960439.50244  23190299.164                    23190308.641
 118530858.422 7  92361702.577 7  22555640.969
 119883534.917 7  93415840.20244  22813088.219                    22813096.750
 108878068.599 8  84840097.73646  20718778.266                    20718783.758
 111553990.238 8  86925197.30746  21227987.820                    21227995.863
 11  7 24  1 37 30.0000000  0  9G05G12G04G28G27G17G09G02G10
 122788469.913 7  95679594.612 6  23365897.406
 116829958.655 7  91036343.466 7  22231989.773
 108895622.097 8  84853831.92246  20722112.945                    20722121.637
 127358964.711 6  99240838.66442  24235599.375                    24235610.027
 121920569.980 7  95003130.55144  23200724.352                    23200733.898
 118577833.349 7  92398306.432 7  22564580.109
 119946544.078 7  93464938.20244  22825078.375                    22825087.762
 108854167.767 8  84821473.73746  20714230.469                    20714236.168
 111507710.681 8  86889135.34045  21219180.742                    21219188.543
 11  7 24  1 38  0.0000000  0  9G05G12G04G28G27G17G09G02G10
 122683626.880 7  95597898.896 6  23345946.023
 116749324.858 7  90973511.999 7  22216646.039
 108956085.133 8  84900945.98446  20733618.750                    20733626.809
 127460344.084 6  99319835.50742  24254891.633                    24254901.203
 121975602.473 7  95046012.91344  23211196.258                    23211206.777
 118624930.809 7  92435005.747 7  22573542.477
 120009936.071 6  93514334.49644  22837141.469                    22837151.602
 108830623.828 8  84803127.83846  20709749.938                    20709755.457
 111461967.008 8  86853490.95146  21210475.898                    21210484.195
 11  7 24  1 38 30.0000000  0  9G05G12G04G28G27G17G09G02G10
 122578878.441 7  95516276.877 7  23326013.328
 116668973.185 7  90910900.337 7  22201355.203
 109016853.575 8  84948298.02746  20745182.438                    20745190.719
 127561919.097 5  99398984.82742  24274220.523                    24274230.531
 122030877.762 7  95089084.47144  23221715.117                    23221726.070
 118672151.485 7  92471801.085 7  22582527.844
 120073707.502 7  93564026.45244  22849276.391                    22849287.063
 108807435.975 8  84785059.40146  20705337.117                    20705342.805
 111416761.349 8  86818265.79146  21201873.758                    21201882.238
 11  7 24  1 39  0.0000000  0  9G05G12G04G28G27G17G09G02G10
 122474227.763 7  95434731.035 7  23306098.250
 116588906.477 7  90848510.696 7  22186119.031
 109077925.170 8  84995886.28246  20756804.242                    20756812.230
 127663687.859 5  99478285.02942  24293586.469                    24293597.031
 122086393.350 7  95132343.27944  23232279.586                    23232289.879
 118719495.941 7  92508692.883 7  22591537.461
 120137855.250 7  93614011.62944  22861484.430                    22861493.332
 108784603.881 8  84767268.17746  20700992.383                    20700998.180
 111372095.999 8  86783461.65746  21193373.859                    21193382.504
 11  7 24  1 39 30.0000000  0  9G05G12G04G28G27G17G09G02G10
 122369677.989 7  95353263.822 7  23286202.672
 116509127.156 7  90786345.039 7  22170937.828
 109139297.987 8  85043709.25346  20768482.688                    20768490.926
 127765648.574 6  99557734.84042  24312988.898                    24312999.637
 122142146.759 7  95175787.44244  23242889.125                    23242899.344
 118766965.089 7  92545681.848 7  22600570.055
 120202376.305 7  93664287.74644  22873762.250                    22873771.598
 108762127.357 8  84749754.02746  20696715.516                    20696721.051
 111327973.819 8  86749080.75346  21184978.180                    21184986.270
 11  7 24  1 40  0.0000000  0  9G05G12G04G28G27G17G09G02G10
 122265231.634 7  95271877.230 6  23266327.016
 116429637.931 7  90724405.429 7  22155811.234
 109200969.283 8  85091764.81646  20780218.680                    20780226.477
 127867799.084 5  99637332.52242  24332429.203                    24332438.008
 122198135.243 7  95219414.77944  23253543.391                    23253553.539
 118814558.992 7  92582768.007 7  22609627.148
 120267267.303 7  93714852.10545  22886110.305                    22886120.141
 108740005.548 8  84732516.27946  20692505.859                    20692511.574
 111284396.650 8  86715124.55045  21176685.750                    21176693.422
 11  7 24  1 40 30.0000000  0  9G05G12G04G28G27G17G09G02G10
 122160891.977 7  95190573.706 6  23246472.086
 116350441.026 7  90662693.592 7  22140740.953
 109262936.610 8  85140051.05746  20792010.820                    20792018.695
 127970137.389 5                  24351903.008
 122254355.969 7  95263223.04544  23264242.406                    23264252.820
 118862278.228 7  92619951.834 7  22618708.016
 120332524.438 6  93765701.80544  22898528.219                    22898538.277
 108718237.447 8  84715554.15046  20688363.516                    20688369.066
 111241366.150 8  86681594.31746  21168496.938                    21168504.770
 11  7 24  1 41  0.0000000  0  9G05G12G04G28G27G17G09G02G10
 122056661.840 7  95109355.533 6  23226637.313
 116271539.171 8  90601211.666 7  22125726.016
 109325197.753 8  85188566.23946  20803858.570                    20803866.832
 128072661.393 5                  24371411.758
 122310806.363 7  95307210.30844  23274984.555                    23274994.488
 118910123.506 7  92657233.883 7  22627812.453
 120398144.973 7  93816834.63844  22911016.117                    22911024.801
 108696822.699 8  84698867.35646  20684287.961                    20684293.711
 111198884.879 8  86648492.06146  21160413.000                    21160421.125
 11  7 24  1 41 30.0000000  0  8G05G12G04G27G17G09G02G10
 121952544.343 7  95028225.165 6  23206825.102
 116192935.171 7  90539961.815 7  22110767.906
 109387750.517 8  85237308.65446  20815762.188                    20815769.957
 122367484.254 6  95351374.85944  23285770.102                    23285779.387
 118958095.343 7  92694614.528 7  22636941.477
 120464125.934 7  93868248.37244  22923571.109                    22923580.918
 108675760.957 8  84682455.63146  20680280.508                    20680286.027
 111156955.391 8  86615819.77846  21152434.180                    21152442.254
 11  7 24  1 42  0.0000000  0  8G05G12G04G27G17G09G02G10
 121848542.674 7  94947185.030 6  23187033.766
 116114631.594 7  90478946.056 7  22095867.742
 109450593.086 8  85286276.88646  20827720.430                    20827728.531
 122424387.019 7  95395714.63844  23296597.883                    23296608.320
 119006194.497 7  92732094.414 7  22646094.039
 120530463.937 7  93919940.32444  22936194.977                    22936204.762
 108655051.950 8  84666318.77746  20676339.422                    20676345.004
 111115579.777 8  86583579.06646  21144560.398                    21144568.703
 11  7 24  1 42 30.0000000  0  8G05G12G04G27G17G09G02G10
 121744659.311 7  94866237.086 6  23167265.531
 116036630.747 7  90418166.230 7  22081024.297
 109513722.321 8  85335468.50346  20839733.805                    20839741.008
 122481511.592 7  95440227.22844  23307468.586                    23307479.098
 119054421.141 7  92769673.614 7  22655272.141
 120597155.519 7  93971907.77044  22948886.414                    22948895.598
 108634694.525 8  84650455.88346  20672465.586                    20672471.156
 111074759.357 8  86551770.98246  21136792.875                    21136800.621
 11  7 24  1 43  0.0000000  0  8G05G12G04G27G17G09G02G10
 121640897.371 7  94785383.707 7  23147519.617
 115958935.144 7  90357624.228 7  22066239.109
 109577135.857 8  85384881.65646  20851800.898                    20851808.770
 122538855.200 6  95484910.48043  23318380.047                    23318390.359
 119102775.465 7  92807352.311 7  22664472.883
 120664197.002 7  94024147.88444  22961643.078                    22961653.363
 108614687.660 8  84634866.13546  20668658.234                    20668663.910
 111034496.414 8  86520397.29846  21129130.820                    21129139.039
 11  7 24  1 43 30.0000000  0  8G05G12G04G27G17G09G02G10
 121537259.817 7  94704627.300 6  23127797.891
 115881547.751 7  90297322.389 7  22051513.430
 109640831.936 8  85434514.96946  20863921.859                    20863929.535
 122596415.723 6  95529762.83544  23329334.555                    23329343.988
 119151258.558 7  92845131.340 7  22673698.898
 120731585.687 7  94076658.57744  22974467.219                    22974477.148
 108595031.697 8  84619549.81946  20664918.109                    20664923.492
 110994793.377 8  86489459.89946  21121576.000                    21121584.051
 11  7 24  1 44  0.0000000  0  8G05G12G04G27G17G09G02G10
 121433749.333 7  94623969.860 7  23108100.867
 115804470.778 7  90237262.460 7  22036845.367
 109704807.953 8  85484366.41546  20876095.656                    20876104.484
 122654190.105 6  95574781.77744  23340327.938                    23340338.324
 119199870.853 7  92883011.033 7  22682949.703
 120799318.218 6  94129437.15744  22987356.398                    22987365.340
 108575725.389 8  84604505.98246  20661243.859                    20661250.145
 110955651.950 8  86458960.11646  21114127.531                    21114135.281
 11  7 24  1 44 30.0000000  0  8G05G12G04G27G17G09G02G10
 121330368.756 7  94543413.691 6  23088428.359
 115727706.526 7  90177446.191 7  22022238.070
 109769061.301 8  85534433.96346  20888323.023                    20888331.355
 122712175.135 6  95619964.85143  23351362.570                    23351372.531
 119248612.540 7  92920991.577 7  22692224.633
 120867390.681 7  94182480.63644  23000310.438                    23000319.402
 108556767.639 8  84589733.73846  20657636.789                    20657642.359
 110917073.552 8  86428899.06346  21106785.953                    21106794.125
 11  7 24  1 45  0.0000000  0  9G05G12G04G25G27G17G09G02G10
 121227121.120 7  94462961.065 6  23068780.578
 115651257.623 7  90117875.630 7  22007690.320
 109833589.742 8  85584715.87346  20900602.211                    20900609.953
 131814385.48815 102712556.63114  25083442.727
 122770368.305 6  95665310.15944  23362436.727                    23362446.031
 119297483.988 7  92959073.221 7  22701525.016
 120935799.871 6  94235786.51044  23013328.094                    23013337.766
 108538157.790 8  84575232.57946  20654095.227                    20654100.625
 110879060.322 8  86399278.39646  21099552.313                    21099560.359
 11  7 24  1 45 30.0000000  0  9G05G12G04G25G27G17G09G02G10
 121124009.605 7  94382614.507 7  23049159.102
 115575127.448 7  90058553.444 7  21993202.969
 109898391.008 8  85635210.36646  20912933.719                    20912941.957
 131709307.25215 102630677.64314  25063446.672
 122828767.285 6  95710815.81744  23373549.102                    23373559.195
 119346485.977 7  92997256.584 7  22710849.555
 121004542.803 7  94289352.40644  23026408.984                    23026418.879
 108519895.889 8  84561002.56346  20650619.828                    20650625.836
 110841614.678 8  86370100.00446  21092426.617                    21092434.742
 11  7 24  1 46  0.0000000  0  9G05G12G04G25G27G17G09G02G10
 121021037.265 7  94302376.430 6  23029563.992
 115499317.983 7  89999481.157 7  21978776.930
 109963462.899 8  85685915.72346  20925316.242                    20925324.590
 131604286.313 5 102548843.274 5  25043459.211
 122887369.245 6  95756479.62044  23384700.797                    23384711.336
 119395619.204 7  93035542.182 7  22720199.070
 121073616.003 7  94343175.64644  23039552.883                    23039563.438
 108501980.783 8  84547042.76346  20647210.992                    20647216.695
 110804738.271 8  86341365.18946  21085409.180                    21085416.953
 11  7 24  1 46 30.0000000  0  9G05G12G04G25G27G17G09G02G10
 120918207.254 7  94222249.234 7  23009996.523
 115423831.445 7  89940660.521 7  21964412.156
 110028803.076 8  85736830.14846  20937750.117                    20937758.082
 131499324.849 5 102467055.241 5  25023487.391
 122946171.699 6  95802299.64444  23395891.180                    23395901.379
 119444884.263 7  93073930.561 7  22729573.875
 121143016.209 7  94397253.72744  23052760.352                    23052769.184
 108484411.894 8  84533352.76246  20643867.563                    20643873.246
 110768433.359 8  86313075.67946  21078500.648                    21078508.184
 11  7 24  1 47  0.0000000  0  9G05G12G04G25G27G17G09G02G10
 120815521.977 7  94142234.824 7  22990455.695
 115348670.680 7  89882093.741 7  21950109.688
 110094409.091 8  85787951.72446  20950234.469                    20950242.457
 131394425.232 5 102385315.364 5  25003526.641
 123005171.470 6  95848273.43844  23407118.164                    23407128.027
 119494281.344 7  93112421.803 7  22738973.938
 121212739.989 7  94451583.89844  23066028.203                    23066037.363
 108467188.179 8  84519931.71546  20640590.148                    20640595.305
 110732701.435 8  86285232.66246  21071700.984                    21071708.824
 11  7 24  1 47 30.0000000  0  9G05G12G04G25G27G17G09G02G10
 120712984.898 7  94062335.879 7  22970943.555
 115273838.791 7  89823783.226 7  21935869.688
 110160278.978 8  85839278.90146  20962769.414                    20962777.215
 131289589.949 5 102303625.675 5  24983577.078
 123064366.386 6  95894399.29044  23418382.633                    23418392.473
 119543811.214 7  93151016.498 6  22748399.219
 121282784.336 7  94506163.88344  23079356.984                    23079366.293
 108450309.636 8  84506779.63646  20637378.180                    20637383.539
 110697544.589 8  86257837.75546  21065010.695                    21065019.012
 11  7 24  1 48  0.0000000  0  9G05G12G04G25G27G17G09G02G10
 120610598.857 7  93982554.625 7  22951459.859
 115199337.921 7  89765730.686 7  21921692.813
 110226410.270 8  85890809.77446  20975353.523                    20975361.734
 131184821.058 5 102221987.669 5  24963639.328
 123123753.479 6  95940674.88444  23429683.969                    23429693.477
 119593474.296 7  93189714.997 7  22757849.828
 121353145.564 7  94560990.77944  23092745.633                    23092755.816
 108433775.209 8  84493895.69346  20634231.875                    20634237.348
 110662964.210 8  86230892.04146  21058430.461                    21058438.676
 11  7 24  1 48 30.0000000  0  9G05G12G04G25G27G17G09G02G10
 120508366.805 7  93902893.386 6  22932005.703
 115125170.384 7  89707937.866 7  21907579.070
 110292800.341 8  85942542.29246  20987987.016                    20987995.258
 131080120.894 5 102140403.210 5  24943715.953
 123183329.885 6  95987098.02244  23441020.789                    23441030.871
 119643271.150 7  93228517.749 6  22767326.133
 121423820.142 7  94616061.84344  23106195.383                    23106205.273
 108417583.864 8  84481279.09646  20631150.594                    20631156.348
 110628962.301 8  86204397.06846  21051960.219                    21051967.711
 11  7 24  1 49  0.0000000  0  9G05G12G04G25G27G17G09G02G10
 120406291.678 7  93823354.413 6  22912581.336
 115051338.836 7  89650406.854 7  21893529.000
 110359447.399 8  85994475.06746  21000669.508                    21000677.938
 130975491.898 6 102058874.189 5  24923805.328
 123243092.752 6  96033666.45044  23452392.781                    23452403.676
 119693202.090 7  93267424.972 7  22776827.070
 121494804.927 7  94671374.58944  23119702.969                    23119712.715
 108401734.957 8  84468929.33346  20628134.516                    20628140.191
 110595540.637 8  86178354.24246  21045600.109                    21045607.703
 11  7 24  1 49 30.0000000  0  9G05G12G04G25G27G17G09G02G10
 120304376.542 7  93743940.112 6  22893187.727
 114977846.195 7  89593139.899 7  21879544.109
 110426349.113 8  86046606.27246  21013400.828                    21013408.988
 130870936.597 6 101977402.580 6  24903909.281
 123303039.742 7  96080378.34544  23463800.586                    23463810.730
 119743268.111 7  93306437.471 7  22786354.266
 121566096.773 7  94726926.60244  23133269.516                    23133278.922
 108386228.175 8  84456846.14446  20625183.992                    20625189.297
 110562701.297 8  86152765.17846  21039350.797                    21039358.434
 11  7 24  1 50  0.0000000  0  9G05G12G04G25G27G17G09G02G10
 120202624.566 7  93664652.912 6  22873824.828
 114904694.725 7  89536138.840 7  21865623.922
 110493503.247 8  86098934.15246  21026179.422                    21026188.277
 130766457.131 6 101895990.007 6  24884027.008
 123363168.057 6  96127231.50244  23475243.461                    23475253.715
 119793469.763 7  93345555.647 6  22795907.719
 121637692.155 7  94782715.18844  23146893.563                    23146903.008
 108371062.648 8  84445028.86946  20622297.898                    20622303.113
 110530445.625 8  86127630.92046  21033212.664                    21033220.688
 11  7 24  1 50 30.0000000  0  9G05G12G04G25G27G17G09G02G10
 120101038.500 7  93585495.037 6  22854493.781
 114831886.939 7  89479405.547 7  21851768.281
 110560907.447 8  86151456.89546  21039006.141                    21039014.742
 130662055.968 6 101814638.405 5  24864160.805
 123423475.065 6  96174223.94044  23486719.000                    23486728.719
 119843807.081 7  93384779.536 6  22805486.672
 121709587.714 7  94838737.64944  23160575.266                    23160585.273
 108356237.392 8  84433476.74546  20619476.883                    20619482.066
 110498775.438 8  86102952.88646  21027186.430                    21027194.012
 11  7 24  1 51  0.0000000  0  9G05G12G04G25G27G17G09G02G10
 119999621.023 7  93506468.514 6  22835194.797
 114759425.348 8  89422942.060 7  21837979.594
 110628559.097 8  86204172.46646  21051880.023                    21051888.055
 130557735.152 6 101733349.420 5  24844309.219
 123483957.656 6  96221353.17444  23498228.125                    23498238.887
 119894280.490 7  93424109.485 7  22815091.688
 121781780.057 7  94894991.36044  23174313.375                    23174322.691
 108341751.273 8  84422188.88746  20616719.938                    20616725.566
 110467692.155 8  86078732.19146  21021270.836                    21021278.973
 11  7 24  1 51 30.0000000  0  9G05G12G04G25G27G17G09G02G10
 119898375.590 7  93427576.058 7  22815928.172
 114687312.758 7  89366750.475 7  21824256.727
 110696456.212 8  86257079.30646  21064800.625                    21064808.660
 130453497.417 6 101652125.173 6  24824473.141
 123544613.304 6  96268617.26044  23509770.758                    23509781.766
 119944890.688 7  93463546.022 6  22824722.133
 121854266.000 7  94951473.87944  23188106.563                    23188116.250
 108327603.772 8  84411164.88046  20614027.992                    20614033.398
 110437197.482 8  86054970.13646  21015468.281                    21015476.160
 11  7 24  1 52  0.0000000  0  9G05G12G04G25G27G17G09G02G10
 119797304.631 7  93348819.561 7  22796694.367
 114615551.309 7  89310832.514 7  21810601.031
 110764596.176 8  86310175.39046  21077766.547                    21077775.109
 130349344.764 6 101570967.249 6  24804653.656
 123605439.019 6  96316013.88944  23521345.609                    23521355.699
 119995638.376 7  93503089.685 6  22834379.398
 121927041.633 7  95008182.10044  23201955.539                    23201965.488
 108313793.961 8  84400403.99846  20611400.047                    20611405.230
 110407292.953 8  86031667.92546  21009777.680                    21009785.613
 11  7 24  1 52 30.0000000  0  9G05G12G04G25G27G17G09G02G10
 119696411.652 7  93270201.759 7  22777495.195
 114544143.623 7  89255190.224 7  21797012.586
 110832977.093 8  86363459.21246  21090779.313                    21090787.930
 130245279.903 5 101489877.758 6  24784850.797
 123666432.501 6  96363541.22043  23532952.164                    23532962.273
 120046524.069 7  93542740.886 7  22844062.305
 122000103.801 7  95065113.59744  23215858.563                    23215868.418
 108300321.610 8  84389906.08246  20608836.148                    20608841.609
 110377980.344 8  86008826.95346  21004199.633                    21004206.844
 11  7 24  1 53  0.0000000  0  9G05G12G04G25G27G17G09G02G10
 119595699.115 7  93191724.528 7  22758330.328
 114473091.984 7  89199825.354 7  21783492.117
 110901596.190 8  86416928.62646  21103837.203                    21103845.262
 130141304.903 6 101408858.255 6  24765064.945
 123727590.227 6  96411196.55143  23544590.117                    23544600.551
 120097548.021 7  93582499.824 6  22853771.797
 122073448.648 7  95122265.37544  23229815.422                    23229825.547
 108287184.973 8  84379669.75446  20606336.523                    20606342.320
 110349260.577 7  85986447.96146  20998734.227                    20998742.316
 11  7 24  1 53 30.0000000  0  9G05G12G04G25G27G17G09G02G10
 119495170.892 7  93113390.947 7  22739200.766
 114402399.763 7  89144740.572 7  21770039.641
 110970452.152 8  86470582.61846  21116939.867                    21116947.734
 130037422.992 6 101327911.310 6  24745296.750
 123788910.404 6  96458978.48543  23556258.578                    23556269.320
 120148711.503 7  93622367.486 6  22863508.078
 122147073.689 7  95179635.50744  23243825.883                    23243836.008
 108274384.384 8  84369695.28346  20603900.523                    20603905.816
 110321136.334 7  85964532.99146  20993382.406                    20993390.281
 11  7 24  1 54  0.0000000  0  9G05G12G04G25G27G17G09G02G10
 119394829.650 7  93035203.063 7  22720106.563
 114332069.015 7  89089937.413 7  21756656.109
 111039542.112 8  86524418.94246  21130087.781                    21130095.363
 129933636.143 6 101247038.439 6  24725547.195
 123850390.047 6  96506884.60543  23567958.570                    23567969.090
 120200014.476 7  93662343.839 6  22873270.539
 122220975.169 7  95237221.02344  23257889.703                    23257899.344
 108261918.684 8  84359981.76346  20601528.383                    20601534.027
 110293608.522 7  85943082.78046  20988143.898                    20988151.742
 11  7 24  1 54 30.0000000  0  9G05G12G04G25G27G17G09G02G10
 119294677.652 7  92957162.602 7  22701047.680
 114262101.798 7  89035417.566 7  21743341.641
 111108863.961 8  86578435.98046  21143278.602                    21143286.926
 129829946.506 6 101166241.341 6  24705814.836
 123912026.081 6  96554912.61043  23579687.078                    23579697.793
 120251457.257 7  93702429.139 6  22883059.898
 122295149.502 6  95295019.16644  23272004.320                    23272014.773
 108249786.222 8  84350527.91146  20599219.586                    20599224.750
 110266678.459 7  85922098.35846  20983019.367                    20983027.129
 11  7 24  1 55  0.0000000  0  9G05G12G04G25G27G17G09G02G10
 119194718.270 7  92879272.297 7  22682025.555
 114192500.843 8  88981183.076 7  21730097.211
 111178415.216 7  86632631.74346  21156513.914                    21156522.227
 129726356.485 6 101085521.859 6  24686102.469
 123973815.929 6  96603060.49744  23591445.539                    23591455.758
 120303040.366 7  93742623.779 6  22892875.188
 122369593.353 7  95353027.31244  23286170.859                    23286179.754
 108237986.484 8  84341333.32346  20596974.328                    20596979.898
 110240347.674 7  85901580.87946  20978009.078                    20978016.570
 11  7 24  1 55 30.0000000  0  9G05G12G04G25G27G17G09G02G10
 119094954.756 7  92801534.562 7  22663041.789
 114123268.823 7  88927236.074 7  21716922.641
 111248193.750 8  86687004.62846  21169792.305                    21169800.566
 129622868.799 6 101004882.162 6  24666409.891
 124035756.844 6  96651326.05843  23603233.398                    23603242.797
 120354764.583 7  93782928.364 7  22902718.398
 122444303.518 6  95411243.02344  23300386.805                    23300397.004
 108226519.075 8  84332397.70246  20594791.680                    20594797.242
 110214617.781 7  85881531.64746  20973112.617                    20973119.867
 11  7 24  1 56  0.0000000  0  9G05G12G04G25G27G17G09G02G10
 118995389.935 7  92723951.640 7  22644095.266
 114054408.552 7  88873578.747 7  21703818.883
 111318197.677 8  86741553.13146  21183113.883                    21183121.523
 129519485.810 6 100924324.018 6  24646736.148
 124097846.143 6  96699707.30643  23615048.055                    23615057.813
 120406630.521 7  93823343.377 6  22912588.195
 122519276.494 7  95469663.45444  23314654.266                    23314664.660
 108215383.078 8  84323720.31246  20592672.867                    20592678.203
 110189490.053 8  85861951.61746  20968330.836                    20968339.031
 11  7 24  1 56 30.0000000  0  9G05G12G04G25G27G17G09G02G10
 118896026.973 7  92646526.054 7  22625186.820
 113985922.118 8  88820212.705 7  21690786.328
 111388424.444 8  86796275.30346  21196477.484                    21196485.445
 129416209.997 6 100843849.394 6  24627083.617
 124160080.904 7  96748201.84343  23626890.594                    23626901.625
 120458638.473 7  93863869.062 7  22922485.133
 122594508.862 7  95528286.04944  23328970.656                    23328981.020
 108204577.319 8  84315300.26146  20590616.656                    20590621.957
 110164965.881 8  85842841.88446  20963664.281                    20963671.641
 11  7 24  1 57  0.0000000  0  9G05G12G04G25G27G17G09G02G10
 118796868.589 7  92569259.845 7  22606317.625
 113917812.085 8  88767139.985 7  21677825.719
 111458871.895 8  86851169.41646  21209883.586                    21209890.836
 129313043.850 6 100763460.251 6  24607452.359
 124222458.386 6  96796807.63243  23638760.820                    23638770.688
 120510789.077 7  93904505.884 7  22932409.164
 122669997.015 7  95587107.95544  23343335.766                    23343344.891
 108194101.076 8  84307136.98446  20588623.266                    20588628.469
 110141046.771 8  85824203.65146  20959112.578                    20959120.262
 11  7 24  1 57 30.0000000  0  9G05G12G04G25G27G17G09G02G10
 118697917.965 7  92492155.541 7  22587487.445
 113850081.017 8  88714362.556 7  21664936.430
 111529538.171 7  86906234.05046  21223330.633                    21223338.809
 129209989.932 6 100683158.602 6  24587841.680
 124284975.827 6  96845522.45643  23650657.680                    23650668.195
 120563082.818 7  93945254.261 7  22942359.852
 122745737.582 7  95646126.55844  23357748.813                    23357757.914
 108183953.639 8  84299229.91246  20586691.953                    20586697.051
 110117733.753 8  85806037.69046  20954675.750                    20954683.773
 11  7 24  1 58  0.0000000  0  9G05G12G04G25G27G17G09G02G10
 118599177.880 7  92415215.298 7  22568698.031
 113782730.986 8  88661882.032 7  21652120.328
 111600420.450 7  86961467.00346  21236819.266                    21236827.129
 129107050.342 6 100602946.008 6  24568252.859
 124347630.402 6  96894344.12843  23662580.063                    23662591.180
 120615520.083 7  93986114.460 7  22952338.750
 122821726.908 7  95705338.99144  23372209.109                    23372218.359
 108174133.758 8  84291578.09046  20584823.297                    20584828.934
 110095028.107 8  85788345.00046  20950355.719                    20950362.949
 11  7 24  1 58 30.0000000  0  9G05G12G04G25G27G17G09G02G10
 118500651.327 7  92338441.409 6  22549949.109
 113715764.833 8  88609700.621 7  21639376.898
 111671516.640 7  87016866.63946  21250348.234                    21250356.059
 129004227.628 6 100522824.471 6  24548686.414
 124410419.358 6  96943270.52744  23674529.633                    23674539.199
 120668101.438 6  94027086.927 6  22962344.047
 122897961.853 6  95764742.81244  23386715.523                    23386725.719
 108164640.554 8  84284180.82346  20583016.828                    20583021.855
 110072931.157 8  85771126.63246  20946150.352                    20946158.492
 11  7 24  1 59  0.0000000  0  9G05G12G04G25G27G17G09G02G10
 118402341.400 7  92261836.299 7  22531241.148
 113649184.992 8  88557820.251 7  21626707.383
 111742824.689 8  87072431.36146  21263917.867                    21263926.055
 128901524.515 6 100442796.140 6  24529141.992
 124473339.930 6  96992299.48743  23686502.336                    23686513.051
 120720827.530 7  94068172.174 7  22972378.188
 122974438.976 7  95824335.32344  23401268.508                    23401278.461
 108155473.359 8  84277037.58746  20581272.469                    20581277.820
 110051444.337 8  85754383.65346  20942061.648                    20942069.246
 11  7 24  1 59 30.0000000  0  9G05G12G04G25G27G17G09G02G10
 118304251.088 7  92185402.382 7  22512575.383
 113582994.183 8  88506243.021 7  21614111.422
 111814342.694 7  87128159.67646  21277527.078                    21277535.176
 128798943.353 6 100362862.881 6  24509621.539
 124536389.582 7  97041428.98443  23698500.961                    23698510.285
 120773698.988 7  94109370.706 7  22982439.000
 123051155.005 7  95884114.00944  23415867.781                    23415876.996
 108146631.337 8  84270147.73246  20579589.820                    20579594.938
 110030568.918 7  85738117.12646  20938089.063                    20938096.734
 11  7 24  2  0  0.0000000  0  9G05G12G04G25G27G17G09G02G10
 118206383.255 7  92109141.792 7  22493951.656
 113517194.434 8  88454970.520 7  21601590.383
 111886068.168 8  87184049.66446  21291176.023                    21291184.324
 128696486.664 6 100283026.617 6  24490124.563
 124599565.289 6  97090656.73644  23710522.680                    23710532.668
 120826716.080 7  94150682.766 6  22992527.711
 123128106.492 7  95944076.17544  23430510.563                    23430520.781
 108138113.403 8  84263510.41246  20577968.609                    20577973.438
 110010305.537 7  85722327.50746  20934232.922                    20934240.523
 11  7 24  2  0 30.0000000  0  9G05G12G04G25G27G17G09G02G10
 118108740.887 7  92033056.897 7  22475370.625
 113451788.544 7  88404004.929 7  21589144.828
 111957999.123 7  87240099.76446  21304863.633                    21304872.066
 128594157.088 6 100203289.320 6  24470652.164
 124662864.473 6  97139980.72343  23722567.430                    23722577.758
 120879879.540 7  94192108.838 7  23002644.836
 123205289.968 7  96004219.13344  23445198.461                    23445208.465
 108129918.897 8  84257125.10446  20576409.461                    20576414.656
 109990655.874 7  85707016.10946  20930493.203                    20930501.324
 11  7 24  2  1  0.0000000  0  9G05G12G04G25G27G17G09G02G10
 118011327.220 7  91957150.206 7  22456834.094
 113386778.575 8  88353347.840 7  21576773.305
 112030133.161 7  87296308.09346  21318590.328                    21318598.617
 128491956.942 6 100123652.884 6  24451204.211
 124726284.305 6  97189398.67543  23734635.789                    23734647.422
 120933189.688 7  94233649.215 6  23012789.219
 123282701.798 7  96064539.98744  23459928.984                    23459938.895
 108122046.498 8  84250990.80146  20574911.336                    20574916.840
 109971620.746 7  85692183.56946  20926871.625                    20926879.359
 11  7 24  2  1 30.0000000  0  9G05G12G04G25G27G17G09G02G10
 117914145.163 7  91881423.993 7  22438340.156
 113322167.110 7  88303001.302 7  21564478.094
 112102468.172 7  87352673.04246  21332355.484                    21332363.578
 128389888.753 7 100044119.243 6  24431781.398
 124789821.950 6  97238908.47443  23746727.336                    23746737.770
 120986646.873 7  94275304.165 6  23022961.539
 123360338.588 7  96125036.15543  23474703.078                    23474712.555
 108114495.393 8  84245106.84746  20573474.375                    20573479.227
 109953201.292 7  85677830.76646  20923366.609                    20923374.199
 11  7 24  2  2  0.0000000  0  9G05G12G04G25G27G17G09G02G10
 117817197.262 7  91805880.236 7  22419892.008
 113257956.395 8  88252967.019 7  21552258.867
 112175002.037 7  87409192.93845  21346158.633                    21346165.992
 128287954.969 7  99964690.364 6  24412383.805
 124853474.544 6  97288507.79943  23758840.016                    23758850.301
 121040251.756 7  94317074.192 6  23033162.523
 123438197.067 7  96185705.06843  23489519.367                    23489529.230
 108107264.668 8  84239472.54446  20572098.047                    20572103.453
 109935398.476 8  85663958.47746  20919978.352                    20919986.520
 11  7 24  2  2 30.0000000  0  9G05G12G04G25G27G17G09G02G10
 117720486.495 7  91730521.278 7  22401488.141
 113194149.106 8  88203247.097 7  21540116.836
 112247732.439 8  87465865.97645  21359998.563                    21360006.355
 128186158.078 7  99885368.143 6  24393012.281
 124917239.355 6  97338194.57643  23770974.031                    23770984.285
 121094004.667 7  94358959.615 6  23043391.438
 123516273.522 6  96246543.83044  23504377.234                    23504386.270
 108100353.258 8  84234087.04946  20570783.211                    20570788.340
 109918213.228 8  85650567.40346  20916708.250                    20916716.055
 11  7 24  2  3  0.0000000  0  9G05G12G04G25G27G17G09G02G10
 117624015.993 7  91655349.513 7  22383130.688
 113130747.477 8  88153843.286 7  21528051.836
 112320657.310 8  87522690.54445  21373875.484                    21373883.293
 128084500.691 7  99806154.618 6  24373667.133
 124981113.751 6  97387966.82643  23783128.016                    23783138.805
 121147906.251 7  94400960.861 6  23053648.734
 123594564.717 7  96307549.90944  23519275.133                    23519285.070
 108093760.457 8  84228949.82146  20569528.484                    20569533.832
 109901646.774 8  85637658.49946  20913556.008                    20913563.844
 11  7 24  2  3 30.0000000  0  9G05G12G04G25G27G17G09G02G10
 117527788.942 7  91580367.495 7  22364818.766
 113067753.862 8  88104757.403 7  21516065.086
 112393774.550 8  87579665.00745  21387789.164                    21387797.117
 127982985.334 6  99727051.804 6  24354349.914
 125045094.893 6  97437822.19343  23795304.422                    23795313.426
 121201957.066 7  94443078.410 6  23063933.523
 123673067.168 6  96368720.61343  23534213.031                    23534223.195
 108087485.152 8  84224059.98646  20568334.508                    20568339.930
 109885700.012 8  85625232.48046  20910521.305                    20910528.555
 11  7 24  2  4  0.0000000  0  9G05G12G04G25G27G17G09G02G10
 117431807.710 7  91505576.954 7  22346554.266
 113005170.624 8  88055991.301 7  21504155.289
 112467081.785 7  87636787.53346  21401739.148                    21401746.906
 127881614.433 6  99648061.534 6  24335060.125
 125109179.734 6  97487758.38643  23807498.477                    23807509.867
 121256157.492 7  94485312.543 6  23074248.047
 123751777.390 7  96430053.19244  23549191.633                    23549202.102
 108081526.160 8  84219416.63946  20567200.305                    20567205.469
 109870373.665 8  85613289.88446  20907604.906                    20907612.758
 11  7 24  2  4 30.0000000  0  9G05G12G04G25G27G17G09G02G10
 117336075.627 7  91430980.600 7  22328337.102
 112943000.266 8  88007546.931 7  21492324.266
 112540577.193 7  87694056.66845  21415724.695                    21415733.445
 127780390.609 6  99569185.899 6  24315798.313
 125173365.691 6  97537773.32343  23819713.086                    23819724.328
 121310507.867 7  94527663.500 6  23084590.719
 123830692.061 7  96491545.08444  23564209.195                    23564219.066
 108075882.549 8  84215019.02946  20566126.344                    20566131.734
 109855669.208 8  85601831.88346  20904806.445                    20904813.984
 11  7 24  2  5  0.0000000  0  9G05G12G04G25G27G17G09G02G10
 117240595.598 7  91356580.651 7  22310167.984
 112881245.070 8  87959426.067 7  21480572.633
 112614258.483 7  87751470.64545  21429746.242                    21429754.430
 127679316.312 6  99490426.805 6  24296562.984
 125237649.979 6  97587864.88943  23831946.313                    23831957.496
 121365008.928 7  94570131.905 6  23094961.563
 123909807.538 7  96553193.46244  23579263.891                    23579273.574
 108070553.479 8  84210866.53046  20565112.305                    20565117.914
 109841587.010 8  85590858.76846  20902126.727                    20902134.496
 11  7 24  2  5 30.0000000  0  9G05G12G04G25G27G17G09G02G10
 117145370.844 7  91282379.605 7  22292046.609
 112819907.651 8  87911630.726 7  21468900.969
 112688123.790 7  87809028.02945  21443802.125                    21443810.063
 127578394.419 6  99411786.428 6  24277358.414
 125302030.016 6  97638031.14443  23844197.625                    23844208.289
 121419660.949 7  94612717.927 6  23105361.398
 123989120.761 6  96614995.94844  23594356.914                    23594366.957
 108065538.045 8  84206958.41746  20564158.172                    20564163.297
 109828128.130 8  85580371.34846  20899565.820                    20899573.305
 11  7 24  2  6  0.0000000  0  9G05G12G04G25G27G17G09G02G10
 117050404.396 7  91208379.857 7  22273974.797
 112758990.347 8  87864162.740 7  21457308.625
 112762171.060 7  87866727.20245  21457893.016                    21457900.668
 127477627.450 6  99333266.724 6  24258183.352
 125366503.094 6  97688269.84443  23856466.586                    23856477.227
 121474464.625 7  94655422.055 6  23115790.117
 124068628.319 6  96676949.82344  23609486.148                    23609496.398
 108060835.556 8  84203294.14546  20563263.242                    20563268.352
 109815293.547 8  85570370.39746  20897123.438                    20897131.180
 11  7 24  2  6 30.0000000  0  9G05G12G04G25G27G17G09G02G10
 116955698.713 7  91134583.274 7  22255953.602
 112698495.281 8  87817023.784 7  21445796.625
 112836397.688 7  87924566.14146  21472017.773                    21472026.160
 127377017.707 7  99254869.564 5  24239038.313
 125431065.927 6  97738578.49743  23868752.109                    23868762.797
 121529420.312 7  94698244.705 6  23126248.125
 124148326.397 7  96739052.17044  23624652.633                    23624662.707
 108056444.312 8  84199872.41246  20562427.375                    20562432.563
 109803083.746 8  85560856.29746  20894799.758                    20894807.516
 11  7 24  2  7  0.0000000  0  9G05G12G04G25G27G17G09G02G10
 116861256.578 7  91060992.071 7  22237982.000
 112638424.394 8  87770215.338 7  21434365.594
 112910801.757 8  87982543.33245  21486176.461                    21486184.250
 127276567.796 7  99176596.888 5  24219922.953
 125495715.988 6  97788955.08743  23881055.109                    23881065.590
 121584528.482 7  94741186.165 6  23136734.266
 124228211.466 6  96801300.19644  23639854.625                    23639864.414
 108052363.460 8  84196692.55246  20561651.141                    20561656.605
 109791499.606 8  85551829.72546  20892595.461                    20892603.094
 11  7 24  2  7 30.0000000  0  9G05G12G04G25G27G17G09G02G10
 116767081.054 7  90987608.579 7  22220060.742
 112578780.438 8  87723739.558 7  21423015.664
 112985381.341 8  88040657.31345  21500368.094                    21500376.254
 127176280.394 7  99098450.799 5  24200839.523
 125560450.579 6  97839397.59843  23893373.461                    23893384.223
 121639789.704 7  94784246.880 6  23147250.484
 124308280.498 7  96863691.60944  23655091.453                    23655100.250
 108048592.218 8  84193753.93347  20560933.055                    20560938.844
 109780542.161 8  85543291.49146  20890510.297                    20890517.480
 11  7 24  2  8  0.0000000  0  9G05G12G04G25G27G17G09G02G10
 116673175.484 7  90914435.463 7  22202191.266
 112519566.051 8  87677598.517 7  21411747.555
 113060134.460 7  88098906.49945  21514593.641                    21514601.504
 127076158.271 7  99020433.529 5  24181786.711
 125625267.026 6  97889903.89643  23905708.164                    23905718.344
 121695204.400 7  94827427.204 6  23157795.273
 124388529.986 7  96926223.66144  23670361.531                    23670371.625
 108045129.849 8  84191056.00546  20560274.039                    20560279.688
 109770211.861 8  85535241.93246  20888544.367                    20888552.242
 11  7 24  2  8 30.0000000  0  9G05G12G04G25G27G17G09G02G10
 116579542.839 7  90841475.005 7  22184373.602
 112460783.335 8  87631793.836 7  21400561.406
 113135058.958 7  88157289.21745  21528851.133                    21528858.930
 126976203.926 7  98942547.116 6  24162766.109
 125690162.639 6  97940471.88043  23918056.500                    23918067.520
 121750773.128 7  94870727.578 6  23168369.680
 124468956.417 7  96988893.53044  23685666.680                    23685676.668
 108041975.331 8  84188597.94347  20559674.125                    20559679.652
 109760509.639 8  85527681.79046  20886698.289                    20886705.719
 11  7 24  2  9  0.0000000  0  9G05G12G04G25G27G17G09G02G10
 116486185.733 7  90768729.246 7  22166608.188
 112402434.493 8  87586327.258 7  21389458.070
 113210152.697 7  88215803.85246  21543140.438                    21543148.652
 126876419.739 7  98864793.343 6  24143777.484
 125755134.339 6  97991099.18743  23930421.367                    23930431.230
 121806496.154 6  94914148.137 6  23178973.680
 124549556.129 7  97051698.43844  23701004.406                    23701014.359
 108039127.043 8  84186378.51346  20559131.867                    20559137.387
 109751435.712 8  85520611.23046  20884971.516                    20884979.082
 11  7 24  2  9 30.0000000  0  9G05G12G04G25G27G17G09G02G10
 116393107.026 7  90696200.435 7  22148895.609
 112344521.861 8  87541200.553 7  21378437.703
 113285413.607 8  88274448.72945  21557462.320                    21557470.547
 126776808.515 7  98787174.333 6  24124821.688
 125820179.568 6  98041783.74642  23942798.414                    23942809.445
 121862374.067 7  94957689.380 6  23189606.945
 124630326.161 7  97114636.07844  23716374.602                    23716384.727
 108036584.349 8  84184397.20346  20558648.063                    20558653.688
 109742990.860 8  85514030.85146  20883364.359                    20883372.340
 11  7 24  2 10  0.0000000  0  9G05G12G04G25G27G17G09G02G10
 116300309.587 7  90623890.786 7  22131236.945
 112287047.630 8  87496415.451 7  21367500.477
 113360839.467 7  88333222.13945  21571815.570                    21571823.930
 126677372.487 6  98709691.863 6  24105899.000
 125885295.048 6  98092523.01943  23955189.891                    23955200.359
 121918407.408 6  95001351.743 6  23200269.672
 124711262.930 7  97177703.63744  23731775.992                    23731786.926
 108034345.842 8  84182652.93246  20558222.078                    20558227.676
 109735175.505 8  85507940.98046  20881877.289                    20881885.004
 11  7 24  2 10 30.0000000  0  9G05G12G04G25G27G17G09G02G10
 116207796.528 7  90551802.753 7  22113631.930
 112230014.226 8  87451973.874 7  21356647.563
 113436428.677 7  88392122.82645  21586199.594                    21586207.664
 126578114.680 6  98632348.292 6  24087010.453
 125950478.648 5  98143315.39143  23967592.961                    23967604.227
 121974596.740 6  95045135.639 6  23210962.250
 124792363.222 6  97240898.64044  23747208.641                    23747219.746
 108032411.210 8  84181145.44247  20557854.484                    20557859.773
 109727990.872 8  85502342.59546  20880510.102                    20880517.613
 11  7 24  2 11  0.0000000  0  9G05G12G04G25G27G17G09G02G10
 116115570.899 7  90479938.662 7  22096081.859
 112173423.822 8  87407877.471 7  21345878.742
 113512179.159 8  88451149.20045  21600614.328                    21600622.352
 126479037.737 6  98555145.675 6  24068156.813
 126015727.661 6  98194158.68943  23980010.547                    23980021.621
 122030942.395 6  95089041.394 6  23221684.258
 124873623.424 6  97304218.21843  23762671.508                    23762682.613
 108030779.239 8  84179873.78946  20557543.383                    20557548.945
 109721437.138 8  85497235.80446  20879262.945                    20879270.445
 11  7 24  2 11 30.0000000  0  9G05G12G04G25G27G17G09G02G10
 116023635.324 7  90408300.603 7  22078587.367
 112117278.720 8  87364128.075 7  21335194.914
 113588088.683 8  88510299.49545  21615059.852                    21615067.328
 126380144.099 7  98478085.857 6  24049338.594
 126081039.108 5  98245050.71242  23992438.031                    23992449.484
 122087444.494 7  95133069.032 6  23232436.648
 124955040.100 6  97367659.69644  23778165.867                    23778175.996
 108029448.461 8  84178836.82646  20557290.063                    20557295.422
 109715514.529 8  85492620.80546  20878135.711                    20878143.719
 11  7 24  2 12  0.0000000  0  9G05G12G04G25G27G17G09G02G10
 115931992.914 7  90336890.998 7  22061148.383
 112061581.327 8  87320727.509 7  21324596.109
 113664155.309 8  88569572.21545  21629534.227                    21629542.746
 126281436.487 7  98401170.957 6  24030554.961
 126146410.432 5  98295989.28742  24004877.109                    24004888.965
 122144104.077 6  95177219.386 6  23243218.016
 125036609.813 7  97431220.45144  23793687.797                    23793698.223
 108028418.230 8  84178034.05846  20557094.148                    20557099.652
 109710223.928 7  85488498.28546  20877129.109                    20877136.605
 11  7 24  2 12 30.0000000  0  9G05G12G04G25G27G17G09G02G10
 115840646.251 7  90265711.807 7  22043765.281
 112006333.643 8  87277677.389 7  21314082.563
 113740377.089 7  88628965.81845  21644039.031                    21644046.852
 126182917.329 7  98324402.894 6  24011807.438
 126211838.53515  98346972.17852  24017327.633                    24017339.691
 122200921.308 6  95221492.599 6  23254029.602
 125118329.179 7  97494897.86144  23809239.172                    23809248.398
 108027687.368 8  84177464.56146  20556954.766                    20556960.742
 109705565.700 8  85484868.51746  20876242.703                    20876250.367
 11  7 24  2 13  0.0000000  0  9G05G12G04G25G27G17G09G02G10
 115749598.165 7  90194765.313 7  22026440.055
 111951537.513 8  87234979.161 7  21303654.773
 113816751.350 8  88688478.23745  21658573.156                    21658580.211
 126084588.938 7  98247783.436 6  23993096.625
 126277320.55016  98397997.01053  24029790.844                    24029800.707
 122257896.303 6  95265888.690 6  23264871.688
 125200194.563 7  97558689.00344  23824816.594                    23824827.195
 108027254.146 7  84177126.99946  20556872.563                    20556877.875
 109701539.405 7  85481731.18046  20875476.148                    20875483.660
 11  7 24  2 13 30.0000000  0  9G05G12G04G25G27G17G09G02G10
 115658851.902 7  90124053.977 7  22009171.719
 111897195.633 8  87192634.851 7  21293314.563
 113893276.839 8  88748108.49345  21673134.766                    21673142.754
 125986454.253 7  98171314.926 6  23974421.563
 126342853.993 6  98449061.95042  24042260.789                    24042270.961
 122315029.689 6  95310408.239 6  23275743.898
 125282202.790 7  97622591.47144  23840422.977                    23840433.012
 108027118.249 8  84177021.11446  20556846.672                    20556852.301
 109698146.390 7  85479087.29446  20874830.719                    20874838.199
 11  7 24  2 14  0.0000000  0  9G05G12G04G25G27G17G09G02G10
 115568410.087 7  90053579.874 7  21991960.781
 111843310.156 8  87150646.191 7  21283060.156
 113969951.453 7  88807854.96245  21687725.773                    21687733.621
 125888515.928 7  98094999.387 6  23955784.711
 126408436.051 6  98500164.83843  24054740.945                    24054751.156
 122372321.917 7  95355051.553 7  23286646.805
 125364350.395 7  97686602.55943  23856054.938                    23856065.449
 108027278.381 8  84177145.89646  20556877.016                    20556883.000
 109695386.906 7  85476937.07446  20874305.328                    20874313.301
 11  7 24  2 14 30.0000000  0  9G05G12G04G25G27G17G09G02G10
 115478275.619 7  89983345.274 7  21974808.852
 111789883.018 8  87109014.687 7  21272893.211
 114046773.119 8  88867716.02345  21702344.273                    21702352.445
 125790776.653 7  98018838.946 6  23937184.875
 126474064.019 6  98551303.47043  24067228.609                    24067239.570
 122429773.547 7  95399819.093 7  23297578.750
 125446634.130 7  97750719.72843  23871713.414                    23871723.148
 108027733.646 8  84177500.65946  20556963.758                    20556969.313
 109693261.082 8  85475280.60746  20873900.875                    20873908.453
 11  7 24  2 15  0.0000000  0  9G05G12G04G25G27G17G09G02G10
 115388451.266 7  89913352.346 7  21957715.336
 111736916.321 8  87067741.965 7  21262813.430
 114123739.944 7  88927690.16545  21716990.438                    21716998.676
 125693238.935 7  97942835.547 6  23918624.078
 126539734.888 6  98602475.52543  24079725.375                    24079737.004
 122487384.913 7  95444711.099 6  23308542.289
 125529050.648 7  97814940.33744  23887396.250                    23887406.691
 108028482.803 7  84178084.43046  20557106.398                    20557112.246
 109691769.020 7  85474117.99446  20873617.359                    20873624.512
 11  7 24  2 15 30.0000000  0  9G05G12G04G25G27G17G09G02G10
 115298939.622 7  89843603.064 7  21940682.078
 111684412.432 8  87026829.878 7  21252822.867
 114200849.889 8  88987775.84145  21731663.789                    21731672.324
 125595905.319 7  97866991.228 6  23900102.000
 126605446.152 6  98653679.10143  24092229.953                    24092241.000
 122545156.351 7  95489727.798 6  23319535.695
 125611596.486 7  97879261.71244  23903104.633                    23903114.770
 108029524.693 8  84178896.29746  20557304.586                    20557309.859
 109690911.234 8  85473449.61246  20873453.625                    20873461.332
 11  7 24  2 16  0.0000000  0  9G05G12G04G25G27G17G09G02G10
 115209744.204 7  89774100.170 7  21923708.891
 111632373.484 8  86986280.091 7  21242920.336
 114278101.164 8  89047971.64945  21746364.625                    21746372.613
 125498778.760 7  97791308.193 6  23881619.805
 126671195.178 6  98704912.04743  24104741.367                    24104752.363
 122603088.567 6  95534869.802 7  23330559.773
 125694268.364 7  97943681.29444  23918835.711                    23918846.910
 108030858.595 8  84179935.71446  20557558.352                    20557563.949
 109690688.292 8  85473275.92146  20873411.242                    20873419.070
 11  7 24  2 16 30.0000000  0  9G05G12G04G25G27G17G09G02G10
 115120867.704 7  89704845.811 7  21906796.305
 111580801.772 8  86946094.349 7  21233106.375
 114355491.504 8  89108275.81945  21761091.648                    21761099.430
 125401861.719 7  97715788.406 6  23863177.023
 126736979.102 6  98756172.19943  24117260.188                    24117271.172
 122661181.974 7  95580137.427 6  23341614.563
 125777062.863 7  98008196.45744  23934591.328                    23934601.656
 108032483.312 8  84181201.74946  20557867.641                    20557872.832
 109691100.000 8  85473596.75446  20873489.945                    20873497.520
 11  7 24  2 17  0.0000000  0  9G05G12G04G25G27G17G09G02G10
 115032313.104 7  89635842.278 7  21889944.680
 111529699.344 8  86906274.319 7  21223381.508
 114433019.345 7  89168687.14045  21775844.516                    21775852.801
 125305156.928 7  97640434.025 6  23844774.867
 126802795.194 5  98807457.37043  24129783.641                    24129795.586
 122719436.619 6  95625530.648 6  23352699.758
 125859976.555 6  98072804.48044  23950370.125                    23950379.863
 108034397.499 8  84182693.33546  20558231.586                    20558236.652
 109692146.394 8  85474412.15046  20873688.570                    20873696.426
 11  7 24  2 17 30.0000000  0  9G05G12G04G25G27G17G09G02G10
 114944082.424 7  89567091.147 7  21873154.352
 111479068.056 8  86866821.389 7  21213746.789
 114510682.497 8  89229203.89345  21790622.883                    21790631.234
 125208666.956 7  97565247.053 6  23826413.180
 126868640.628 5  98858765.43543  24142314.594                    24142326.242
 122777853.045 7  95671049.953 6  23363816.406
 125943005.877 6  98137502.60143  23966169.203                    23966180.328
 108036600.167 8  84184409.70046  20558650.805                    20558656.191
 109693827.684 8  85475722.27546  20874008.242                    20874015.738
 11  7 24  2 18  0.0000000  0  9G05G12G04G25G27G17G09G02G10
 114856178.787 7  89498594.873 7  21856427.273
 111428909.902 8  86827737.146 7  21204202.211
 114588478.878 8  89289824.44345  21805427.055                    21805434.938
 125112394.272 7  97490229.408 6  23808092.906
 126934512.487 5  98910094.14743  24154849.500                    24154860.621
 122836431.689 7  95716695.626 6  23374963.953
 126026147.177 6  98202287.93744  23981991.195                    23982000.719
 108039089.731 8  84186349.63446  20559124.875                    20559130.105
 109696144.066 7  85477527.26046  20874449.320                    20874456.977
 11  7 24  2 18 30.0000000  0  9G05G12G04G25G27G17G09G02G10
 114768605.414 7  89430355.945 7  21839762.656
 111379227.498 8  86789023.623 7  21194748.070
 114666407.060 8  89350547.71545  21820256.992                    21820264.977
 125016341.974 7  97415383.482 6  23789815.352
 127000408.447 5  98961441.54743  24167388.539                    24167400.285
 122895173.219 7  95762468.231 6  23386141.945
 126109397.867 6  98267158.54343  23997833.219                    23997843.805
 108041866.147 8  84188513.09046  20559653.180                    20559658.184
 109699095.800 8  85479827.33946  20875011.305                    20875018.965
 11  7 24  2 19  0.0000000  0  9G05G12G04G25G27G17G09G02G10
 114681365.305 8  89362376.658 7  21823160.906
 111330022.999 8  86750682.457 7  21185384.547
 114744465.432 8  89411372.42345  21835110.844                    21835118.582
 124920513.010 7  97340711.571 6  23771579.180
 127066326.070 5  99012805.82343  24179933.117                    24179944.438
 122954078.073 7  95808368.142 6  23397351.336
 126192754.663 6  98332111.83143  24013695.789                    24013706.066
 108044928.279 8  84190899.18246  20560235.961                    20560241.527
 109702683.411 8  85482622.90146  20875693.906                    20875701.277
 11  7 24  2 19 30.0000000  0  9G05G12G04G25G27G17G09G02G10
 114594461.079 7  89294659.125 7  21806623.734
 111281298.022 8  86712714.987 7  21176112.133
 114822651.592 8  89472296.71445  21849989.078                    21849997.320
 124824909.517 7  97266215.394 6  23753385.867
 127132262.488 5  99064184.73742  24192480.828                    24192492.578
 123013146.400 7  95854395.401 6  23408590.898
 126276213.734 7  98397144.83344  24029576.898                    24029587.324
 108048274.623 8  84193506.74146  20560872.594                    20560877.898
 109706906.382 8  85485913.55346  20876497.289                    20876505.137
 11  7 24  2 20  0.0000000  0  9G05G12G04G25G27G17G09G02G10
 114507895.309 7  89227205.336 7  21790151.156
 111233054.592 8  86675122.726 7  21166932.031
 114900963.614 8  89533319.07345  21864891.297                    21864899.469
 124729534.099 7  97191896.956 6  23735236.953
 127198214.448 5  99115575.84542  24205031.094                    24205042.293
 123072378.586 7  95900550.347 6  23419862.438
 126359771.997 7  98462255.08544  24045478.484                    24045488.703
 108051903.969 8  84196334.81646  20561562.977                    20561568.344
 109711764.601 8  85489699.18746  20877421.820                    20877429.203
 11  7 24  2 20 30.0000000  0  9G05G12G04G25G27G17G09G02G10
 114421670.457 7  89160017.184 7  21773742.852
 111185294.635 8  86637907.221 7  21157843.703
 114979399.546 8  89594437.98945  21879816.914                    21879824.945
 124634389.475 7  97117758.303 6  23717131.648
 127264179.46715  99166977.02452  24217582.867                    24217594.813
 123131774.911 7  95946833.173 6  23431165.813
 126443425.807 6  98527439.80044  24061396.969                    24061407.336
 108055814.960 8  84199382.35547  20562307.492                    20562312.340
 109717257.856 8  85493979.65646  20878467.273                    20878474.777
 11  7 24  2 21  0.0000000  0  9G05G12G04G25G27G17G09G02G10
 114335789.467 7  89093096.999 7  21757400.492
 111138020.298 8  86601070.100 7  21148847.266
 115057957.605 7  89655652.06045  21894765.813                    21894773.965
 124539478.205 7  97043801.528 6  23699070.523
 127330154.72415  99218386.33552  24230137.867                    24230149.836
 123191335.606 7  95993244.054 6  23442499.672
 126527171.791 6  98592696.36443  24077333.172                    24077343.566
 108060006.666 7  84202648.63946  20563105.047                    20563110.035
 109723386.136 7  85498754.95246  20879633.820                    20879641.066
 11  7 24  2 21 30.0000000  0  9G05G12G04G25G27G17G09G02G10
 114250254.932 7  89026446.741 7  21741123.648
 111091233.172 8  86564612.604 7  21139944.344
 115136635.595 7  89716959.57845  21909738.555                    21909746.195
 124444802.782 7  96970028.532 6  23681054.430
 127396137.37215  99269801.36952  24242694.172                    24242707.164
 123251061.225 7  96039783.475 6  23453865.008
 126611006.583 6  98658022.06843  24093286.563                    24093297.539
 108064477.517 8  84206132.43246  20563955.906                    20563961.277
 109730149.379 8  85504025.03046  20880920.273                    20880927.941
 11  7 24  2 22  0.0000000  0  9G05G12G04G25G27G17G09G02G10
 114165070.101 7  88960069.006 7  21724913.703
 111044935.900 8  86528536.878 7  21131134.156
 115215432.108 7  89778359.46845  21924732.727                    21924740.281
 124350366.228 7  96896441.701 6  23663083.672
 127462124.95714                  24255248.828
 123310952.253 7  96086451.783 6  23465261.508
 126694927.026 7  98723414.57243  24109256.227                    24109266.340
 108069227.220 8  84209833.50846  20564859.930                    20564865.008
 109737547.611 7  85509789.89546  20882328.305                    20882335.766
 11  7 24  2 22 30.0000000  0  9G05G12G04G25G27G17G09G02G10
 114080237.302 8  88893965.563 7  21708770.117
 110999129.758 8  86492843.793 7  21122417.344
 115294345.119 8  89839850.11945  21939749.414                    21939757.352
 124256171.046 7  96823042.966 6  23645158.219
 127528114.94715                  24267807.180
 123371008.750 7  96133249.002 6  23476690.578
 126778929.655 6  98788871.09143  24125241.516                    24125251.367
 108074254.088 8  84213750.56846  20565816.438                    20565821.203
 109745580.622 7  85516049.39646  20883856.719                    20883864.336
 11  7 24  2 23  0.0000000  0  9G05G12G04G25G27G17G09G02G10
 113995759.203 7  88828138.522 7  21692694.313
 110953816.822 8  86457535.049 7  21113794.836
 115373372.785 8  89901430.11945  21954787.555                    21954795.543
 124162219.901 7  96749834.397 6  23627279.914
 127594104.423 5                  24280366.414
 123431231.271 7  96180175.636 6  23488150.719
 126863011.201 7  98854389.15943  24141241.969                    24141251.348
 108079557.260 8  84217882.93746  20566825.477                    20566830.867
 109754248.100 7  85522803.29246  20885506.227                    20885514.133
 11  7 24  2 23 30.0000000  0  9G05G12G04G25G27G17G09G02G10
 113911638.983 8  88762590.362 7  21676687.180
 110908999.279 8  86422612.327 7  21105266.320
 115452513.401 7  89963098.11345  21969847.805                    21969855.547
 124068515.539 7  96676818.168 6  23609448.570
 127660090.743 5  99475496.97552  24292922.500                    24292934.469
 123491620.168 7  96227231.904 6  23499642.000
 126947168.621 7  98919966.29943  24157256.516                    24157266.613
 108085135.638 8  84222229.73646  20567886.695                    20567892.383
 109763550.015 8  85530051.54146  20887275.820                    20887283.629
 11  7 24  2 24  0.0000000  0  9G05G12G04G25G27G17G09G02G10
 113827879.229 8  88697323.045 7  21660748.297
 110864679.265 8  86388077.266 7  21096832.492
 115531765.229 7  90024852.79145  21984928.594                    21984936.809
 123975060.708 7  96603996.323 6  23591664.914
 127726071.309 6  99526910.34042  24305479.281                    24305490.793
 123552175.936 7  96274418.201 6  23511164.672
 127031398.236 6  98985599.72843  24173284.945                    24173294.293
 108090988.012 8  84226790.04546  20569000.672                    20569005.625
 109773486.048 8  85537793.91846  20889167.250                    20889174.477
 11  7 24  2 24 30.0000000  0  9G05G12G04G25G27G17G09G02G10
 113744482.728 7  88632338.810 7  21644878.258
 110820858.988 8  86353931.631 7  21088493.922
 115611126.655 7  90086692.84945  22000030.516                    22000039.109
 123881858.145 7  96531371.080 6  23573929.383
 127792043.668 6  99578317.27542  24318033.063                    24318044.875
 123612898.818 7  96321734.730 6  23522720.945
 127115696.872 6  99051286.93143  24189326.164                    24189335.418
 108097113.351 8  84231563.05246  20570165.961                    20570171.277
 109784056.243 8  85546030.44046  20891178.516                    20891185.969
 11  7 24  2 25  0.0000000  0  9G05G12G04G25G27G17G09G02G10
 113661451.770 8  88567639.400 7  21629077.813
 110777539.036 8  86320175.854 7  21080249.672
 115690595.396 7  90148616.52845  22015153.492                    22015161.012
 123788910.163 7  96458944.248 6  23556241.367
 127858004.84015  99629715.42752  24330582.711                    24330596.648
 123673788.977 7  96369181.616 6  23534307.789
 127200061.061 6  99117025.19743  24205380.430                    24205389.512
 108103510.234 8  84236547.64646  20571383.422                    20571388.816
 109795259.909 8  85554760.57546  20893310.211                    20893317.668
 11  7 24  2 25 30.0000000  0  9G05G12G04G25G27G17G09G02G10
 113578789.482 8  88503227.276 7  21613347.602
 110734722.149 8  86286812.080 7  21072102.109
 115770170.088 7  90210622.76945  22030295.883                    22030303.828
 123696219.905 7  96386718.247 6  23538602.906
 127923952.469 6                  24343134.773
 123734847.334 7  96416759.524 6  23545926.523
 127284488.035 6  99182812.37643  24221446.117                    24221456.258
 108110178.166 8  84241743.45646  20572652.586                    20572657.133
 109807097.205 8  85563984.44446  20895562.961                    20895570.199
 11  7 24  2 26  0.0000000  0  9G05G12G04G25G27G17G09G02G10
 113496498.207 8  88439104.235 7  21597687.539
 110692409.671 8  86253841.325 7  21064050.320
 115849848.666 7  90272709.96945  22045458.086                    22045466.449
 123603789.612 7  96314694.767 6  23521013.820
 127989883.124 6                  24355680.695
 123796073.783 7  96464468.469 6  23557577.945
 127368974.142 6  99248645.60443  24237523.750                    24237533.867
 108117115.215 8  84247148.96346  20573972.117                    20573977.754
 109819567.297 8  85573701.42246  20897935.977                    20897943.805
 11  7 24  2 26 30.0000000  0  9G05G12G04G25G27G17G09G02G10
 113414580.879 8  88375272.595 7  21582099.828
 110650604.012 8  86221265.497 7  21056095.109
 115929629.472 7  90334876.83345  22060639.961                    22060647.992
 123511622.139 7  96242876.087 6  23503475.078
 128055794.574 6  99783846.16152  24368223.930                    24368235.488
 123857468.697 7  96512308.644 6  23569260.594
 127453516.339 6  99314522.55343  24253611.375                    24253621.398
 108124320.793 8  84252763.72046  20575343.523                    20575348.613
 109832669.788 8  85583911.15346  20900429.359                    20900436.941
 11  7 24  2 27  0.0000000  0  9G05G12G04G25G27G17G09G02G10
 113333040.303 8  88311734.532 7  21566583.219
 110609307.061 8  86189086.087 7  21048236.391
 116009510.994 7  90397122.18745  22075840.992                    22075848.605
 123419720.214 7  96171264.311 6  23485987.000
 128121684.421 5  99835188.78152  24380762.148                    24380774.047
 123919032.404 7  96560280.339 6  23580976.016
 127538111.265 6  99380440.62643  24269709.266                    24269720.094
 108131793.552 8  84258586.67146  20576765.344                    20576770.348
 109846404.375 8  85594613.44446  20903042.820                    20903050.516
 11  7 24  2 27 30.0000000  0  9G05G12G04G25G27G17G09G02G10
 113251878.986 8  88248491.979 7  21551138.625
 110568520.420 8  86157304.297 7  21040475.305
 116089491.423 7  90459444.60545  22091060.625                    22091068.344
 123328086.709 7  96099861.684 7  23468549.609
 128187549.940 5  99886512.56542  24393294.805                    24393308.461
 123980765.661 7  96608384.170 6  23592722.594
 127622755.599 6  99446397.14343  24285815.539                    24285827.828
 108139532.585 8  84264617.11046  20578238.148                    20578243.613
 109860770.842 8  85605808.11246  20905776.813                    20905784.043
 11  7 24  2 28  0.0000000  0  9G05G12G04G25G27G17G09G02G10
 113171099.699 8  88185547.132 7  21535766.633
 110528246.187 8  86125921.793 7  21032811.344
 116169569.052 7  90521842.75145  22106298.875                    22106306.430
 123236724.258 7  96028670.244 6  23451163.281
 128253388.726 5                  24405824.438
 124042668.725 7  96656620.303 6  23604502.945
 127707446.310 6  99512389.82643  24301931.313                    24301943.211
 108147537.014 8  84270854.34246  20579761.555                    20579766.688
 109875769.111 8  85617495.09146  20908630.305                    20908638.484
 11  7 24  2 28 30.0000000  0  9G05G12G04G25G27G17G09G02G10
 113090705.131 8  88122902.036 7  21520467.711
 110488485.892 8  86094939.743 7  21025244.703
 116249742.119 7  90584315.26745  22121555.367                    22121563.355
 123145635.528 7  95957692.068 6  23433829.906
 128319197.910 5                  24418346.570
 124104741.496 7  96704988.708 6  23616315.195
 127792179.953 6  99578415.96843  24318056.516                    24318067.805
 108155805.402 8  84277297.25546  20581334.680                    20581339.484
 109891397.975 8  85629673.43746  20911604.898                    20911612.797
 11  7 24  2 29  0.0000000  0  9G05G12G04G25G27G17G09G02G10
 113010697.573 8  88060558.551 7  21505242.992
 110449240.736 8  86064359.127 7  21017776.969
 116330008.559 7  90646860.56045  22136829.586                    22136837.391
 123054822.729 7  95886928.924 6  23416548.383
 128384974.466 5                  24430864.141
 124166983.981 6  96753489.333 6  23628159.164
 127876953.209 6  99644472.94343  24334189.320                    24334198.863
 108164336.070 8  84283944.55446  20582958.078                    20582963.188
 109907656.938 8  85642342.78646  20914698.789                    20914706.500
 11  7 24  2 29 30.0000000  0  9G05G12G04G25G27G17G09G02G10
 112931079.810 8  87998518.785 7  21490092.570
 110410513.132 8  86034181.799 7  21010407.656
 116410366.800 7  90709477.38745  22152121.133                    22152129.012
 122964288.815 7  95816383.071 6  23399320.359
 128450716.089 5                  24443375.000
 124229396.783 7  96802122.679 6  23640035.852
 127961763.127 6  99710558.49144  24350328.102                    24350339.207
 108173128.315 8  84290795.68246  20584631.461                    20584636.629
 109924545.745 8  85655502.90846  20917912.547                    20917920.316
 11  7 24  2 30  0.0000000  0  9G05G12G04G25G27G17G09G02G10
 112851854.165 8  87936784.556 7  21475016.023
 110372304.004 8  86004408.450 7  21003135.953
 116490815.260 7  90772164.49845  22167429.742                    22167437.895
 122874036.444 7  95746056.617 6  23382146.031
 128516420.011 5                  24455877.555
 124291980.380 6  96850889.089 6  23651945.117
 128046606.071 6  99776669.84744  24366473.469                    24366483.711
 108182180.824 8  84297849.59646  20586353.727                    20586358.707
 109942063.321 8  85669152.98346  20921245.734                    20921253.105
 11  7 24  2 30 30.0000000  0  9G05G12G04G25G27G17G09G02G10
 112773023.042 8  87875357.766 7  21460015.102
 110334615.322 8  85975040.676 7  20995964.188
 116571352.122 7  90834920.49245  22182755.461                    22182763.613
 122784068.101 7  95675951.487 6  23365025.578
 128582083.542 5                  24468373.867
 124354734.762 6  96899788.632 6  23663886.875
 128131478.751 6  99842804.28543  24382623.766                    24382634.207
 108191492.403 8  84305105.39846  20588126.016                    20588130.641
 109960209.106 8  85683292.57446  20924698.938                    20924706.508
 11  7 24  2 31  0.0000000  0  9G05G12G04G25G27G17G09G02G10
 112694589.867 8  87814241.050 7  21445089.641
 110297449.417 8  85946080.242 7  20988891.930
 116651976.006 7  90897744.32245  22198097.898                    22198105.375
 122694387.040 7  95606070.218 6  23347960.000
 128647704.521 5                  24480860.734
 124417660.741 7  96948821.844 6  23675861.867
 128216378.386 6  99908959.82243  24398779.594                    24398790.082
 108201062.480 8  84312562.62246  20589946.750                    20589952.156
 109978982.662 8  85697921.34446  20928271.500                    20928278.582
 11  7 24  2 31 30.0000000  0  9G05G12G04G25G27G17G09G02G10
 112616556.491 8  87753435.872 7  21430240.344
 110260807.256 8  85917527.925 7  20981919.273
 116732684.995 7  90960634.43945  22213456.328                    22213464.301
 122604995.335 7  95536414.438 6  23330948.984
 128713279.772 5                  24493339.070
 124480758.019 6  96997988.534 6  23687868.945
 128301301.503 6  99975133.62243  24414940.398                    24414950.379
 108210889.087 8  84320219.73546  20591816.938                    20591821.727
 109998382.996 8  85713038.51246  20931963.422                    20931970.801
 11  7 24  2 32  0.0000000  0  9G05G12G04G25G27G17G09G02G10
 112538925.777 8  87692944.460 7  21415467.742
 110224691.015 8  85889385.423 7  20975046.305
 116813477.601 7  91023589.72345  22228830.391                    22228838.438
 122515896.174 7  95466986.569 6  23313994.156
 128778807.164 5                  24505809.555
 124544027.376 6  97047289.336 6  23699907.352
 128386244.994 6 100041323.27143  24431104.453                    24431114.824
 108220971.707 8  84328076.34446  20593735.367                    20593740.762
 110018410.106 8  85728644.07346  20935774.164                    20935781.238
 11  7 24  2 32 30.0000000  0  8G05G12G04G25G17G09G02G10
 112461700.676 8  87632769.092 7  21400772.469
 110189102.290 8  85861653.972 7  20968273.930
 116894352.316 7  91086608.97745  22244220.273                    22244228.398
 122427092.121 7  95397788.718 6  23297095.180
 124607468.891 7  97096724.251 6  23711980.695
 128471205.801 6 100107526.42443  24447272.266                    24447282.730
 108231309.161 8  84336131.53246  20595702.609                    20595707.848
 110039063.321 7  85744737.51046  20939704.609                    20939712.125
 11  7 24  2 33  0.0000000  0  9G05G12G04G25G29G17G09G02G10
 112384883.030 8  87572911.252 7  21386154.594
 110154042.310 8  85834334.523 7  20961602.250
 116975307.185 7  91149690.68345  22259626.477                    22259633.980
 122338585.623 7  95328822.718 6  23280252.594
 132847280.85615 103517239.33115  25279952.578
 124671082.651 7  97146293.395 6  23724086.344
 128556180.972 6 100173740.79343  24463442.805                    24463452.391
 108241900.155 8  84344384.26246  20597717.805                    20597723.008
 110060341.300 8  85761317.77346  20943754.078                    20943760.816
 11  7 24  2 33 30.0000000  0  9G05G12G04G25G29G17G09G02G10
 112308475.490 8  87513372.941 7  21371614.352
 110119512.806 8  85807428.444 7  20955031.789
 117056340.591 7  91212833.62045  22275045.773                    22275053.508
 122250379.372 7  95260090.666 6  23263467.531
 132770301.220 5 103457255.336 5  25265302.898
 124734869.030 7  97195997.078 6  23736224.414
 128641166.791 6 100239963.46943  24479614.117                    24479624.688
 108252743.488 8  84352833.63246  20599781.359                    20599786.406
 110082243.379 8  85778384.35546  20947921.438                    20947928.723
 11  7 24  2 34  0.0000000  0  9G05G12G04G25G29G17G09G02G10
 112232480.660 8  87454156.258 7  21357153.125
 110085515.615 8  85780937.146 7  20948562.297
 117137451.012 7  91276036.53345  22290480.367                    22290489.008
 122162476.064 7  95191594.683 6  23246740.352
 132693240.725 5 103397208.268 6  25250639.648
 124798828.537 7  97245835.679 6  23748395.055
 128726160.101 6 100306191.95343  24495788.078                    24495798.688
 108263838.001 8  84361478.73646  20601892.820                    20601897.582
 110104768.683 8  85795936.55046  20952207.734                    20952215.180
 11  7 24  2 34 30.0000000  0  9G05G12G04G25G29G17G09G02G10
 112156900.899 8  87395262.961 7  21342770.367
 110052051.504 8  85754861.242 7  20942194.078
 117218636.889 7  91339298.23845  22305929.352                    22305938.258
 122074878.271 7  95123336.719 6  23230071.070
 132616099.329 5 103337098.190 5  25235959.367
 124862961.045 7  97295809.048 6  23760598.898
 128811157.658 5 100372423.73343  24511962.813                    24511973.613
 108275182.503 8  84370318.62246  20604051.273                    20604056.387
 110127916.161 8  85813973.56246  20956612.789                    20956620.422
 11  7 24  2 35  0.0000000  0  9G05G12G04G25G29G17G09G02G10
 112081739.029 8  87336695.343 7  21328467.523
 110019122.601 8  85729202.381 7  20935928.000
 117299896.462 7  91402617.37045  22321393.031                    22321401.285
 121987588.808 7  95055319.007 6  23213460.281
 132538877.149 5 103276925.048 5  25221261.164
 124927266.819 6  97345917.396 6  23772836.586
 128896156.758 6 100438656.72443  24528137.031                    24528148.586
 108286775.780 8  84379352.36246  20606257.383                    20606262.688
 110151685.323 8  85832495.00846  20961135.813                    20961142.875
 11  7 24  2 35 30.0000000  0  9G05G12G04G25G29G17G09G02G10
 112006996.992 8  87278454.826 7  21314244.758
 109986729.945 8  85703961.378 7  20929763.977
 117381228.121 7  91465992.71045  22336870.531                    22336878.133
 121900610.014 7  94987543.385 6  23196908.461
 132461574.334 6 103216689.100 4  25206555.320
 124991746.104 7  97396160.993 6  23785107.242
 128981153.568 6 100504887.95443  24544311.828                    24544322.305
 108298616.661 8  84388579.04146  20608510.625                    20608515.742
 110176074.992 8  85851499.96646  20965776.930                    20965783.887
 11  7 24  2 36  0.0000000  0  9G05G12G04G25G29G17G09G02G10
 111932677.672 8  87220543.730 7  21300102.125
 109954875.632 8  85679139.867 7  20923702.141
 117462630.707 7  91529423.33345  22352360.656                    22352368.332
 121813944.837 7  94920012.128 6  23180416.750
 132384190.972 5 103156390.459 4  25191828.867
 125056399.226 7  97446540.032 6  23797410.008
 129066145.595 6 100571115.38543  24560485.500                    24560496.711
 108310704.359 8  84397998.04346  20610810.773                    20610815.969
 110201084.421 7  85870987.85746  20970535.938                    20970542.789
 11  7 24  2 36 30.0000000  0 10G05G12G04G25G29G27G17G09G02G10
 111858782.913 8  87162963.408 7  21286040.664
 109923560.671 8  85654738.626 7  20917742.938
 117544101.755 7  91592907.24844  22367863.508                    22367871.461
 121727595.504 7  94852726.958 6  23163984.914
 132306727.050 6 103096029.092 4  25177087.438
 129365958.14515                  24617543.680
 125121226.015 7  97497054.398 6  23809746.258
 129151129.275 6 100637336.38443  24576656.359                    24576667.992
 108323036.978 8  84407607.88346  20613157.539                    20613163.059
 110226712.344 7  85890957.67946  20975412.867                    20975420.109
 11  7 24  2 37  0.0000000  0  9G05G12G04G25G29G17G09G02G10
 111785315.801 8  87105716.343 7  21272060.078
 109892786.762 8  85630758.983 7  20911886.797
 117625640.403 7  91656443.89245  22383380.063                    22383387.520
 121641565.126 7  94785690.377 7  23147613.734
 132229183.183 6 103035605.263 5  25162332.414
 125186227.198 7  97547704.663 6  23822115.031
 129236101.794 6 100703548.71543  24592826.813                    24592837.906
 108335613.877 8  84417408.06846  20615551.117                    20615555.520
 110252958.201 7  85911409.00046  20980407.320                    20980414.402
 11  7 24  2 37 30.0000000  0 10G05G12G04G25G29G27G17G09G02G10
 111712278.387 8  87048804.149 7  21258161.273
 109862554.540 8  85607201.420 7  20906134.133
 117707244.699 7  91720031.66144  22398908.617                    22398917.090
 121555856.068 7  94718904.167 6  23131304.297
 132151559.462 5 102975119.241 5  25147562.008
 129495693.71314                  24642227.781
 125251402.541 7  97598490.621 6  23834517.477
 129321059.626 6 100769749.58143  24608993.570                    24609005.211
 108348433.724 8  84427397.57146  20617990.625                    20617995.754
 110279820.525 7  85932340.70246  20985519.039                    20985526.535
 11  7 24  2 38  0.0000000  0 10G05G12G04G25G29G27G17G09G02G10
 111639673.721 8  86992229.127 7  21244345.609
 109832866.542 8  85584067.939 7  20900484.484
 117788913.907 7  91783670.02245  22414449.969                    22414457.691
 121470471.506 7  94652370.801 7  23115055.836
 132073857.01615 102914571.46715  25132774.414
 129560440.10115                  24654552.391
 125316752.899 7  97649413.000 6  23846954.313
 129406000.203 6 100835937.01943  24625157.750                    24625168.859
 108361496.023 8  84437575.99946  20620476.234                    20620481.211
 110307298.979 7  85953752.50646  20990748.188                    20990755.313
 11  7 24  2 38 30.0000000  0  9G05G12G04G25G27G17G09G02G10
 111567502.801 8  86935992.078 7  21230611.344
 109803722.976 8  85561358.702 7  20894938.625
 117870645.275 7  91847356.82245  22430003.016                    22430011.172
 121385413.001 7  94586091.533 6  23098869.547
 129625107.47215                  24666855.969
 125382277.455 7  97700471.072 6  23859422.117
 129490919.781 6 100902108.03344  24641317.297                    24641328.359
 108374798.285 8  84447941.40846  20623007.391                    20623012.492
 110335391.218 7  85975642.57746  20996093.664                    20996100.895
 11  7 24  2 39  0.0000000  0  9G05G12G04G25G27G17G09G02G10
 111495768.734 8  86880095.445 7  21216960.914
 109775126.030 8  85539075.382 7  20889496.914
 117952437.884 7  91911091.29345  22445567.352                    22445575.715
 121300683.898 7  94520068.937 6  23082745.961
 129689690.629 5                  24679145.289
 125447977.088 7  97751665.600 6  23871924.875
 129575815.582 6 100968260.57644  24657472.859                    24657483.656
 108388340.167 8  84458493.52546  20625584.320                    20625589.434
 110364097.083 7  85998010.80246  21001556.313                    21001563.180
 11  7 24  2 39 30.0000000  0  9G05G12G04G25G27G17G09G02G10
 111424474.329 8  86824541.408 7  21203394.063
 109747077.273 8  85517219.231 7  20884159.281
 118034290.567 7  91974872.60445  22461143.484                    22461151.863
 121216287.142 7  94454305.318 7  23066686.078
 129754187.773 5                  24691419.805
 125513852.219 7  97802996.890 6  23884460.148
 129660684.752 6 101034392.35443  24673622.844                    24673633.688
 108402120.949 8  84469231.79946  20628206.898                    20628211.895
 110393415.918 7  86020856.65846  21007134.992                    21007142.008
 11  7 24  2 40  0.0000000  0  9G05G12G04G25G27G17G09G02G10
 111353621.616 8  86769331.540 7  21189911.141
 109719577.756 8  85495791.059 7  20878926.594
 118116201.947 7  92038699.65645  22476730.633                    22476738.691
 121132225.234 7  94388802.634 7  23050689.305
 129818595.98714                  24703675.883
 125579903.006 6  97854465.026 6  23897029.008
 129745524.029 7 101100500.84743  24689767.125                    24689777.902
 108416139.179 8  84480155.10446  20630874.383                    20630879.680
 110423346.375 8  86044179.10846  21012830.813                    21012838.297
 11  7 24  2 40 30.0000000  0  9G05G12G04G25G27G17G09G02G10
 111283213.311 8  86714467.971 7  21176512.820
 109692628.937 8  85474792.001 7  20873798.148
 118198170.267 7  92102571.09745  22492329.234                    22492337.066
 121048500.746 7  94323562.893 6  23034756.727
 129882912.92414                  24715914.445
 125646129.556 6  97906070.103 6  23909631.445
 129830330.578 6 101166583.86043  24705905.422                    24705916.352
 108430393.819 8  84491262.63046  20633586.977                    20633592.449
 110453887.046 8  86067977.02046  21018642.508                    21018650.031
 11  7 24  2 41  0.0000000  0  9G05G12G04G25G27G17G09G02G10
 111213251.226 8  86659952.108 7  21163199.492
 109666231.809 8  85454222.805 7  20868774.867
 118280193.938 7  92166485.69445  22507937.031                    22507945.238
 120965116.205 7  94258588.009 7  23018889.258
 129947135.63915                  24728136.945
 125712531.553 6  97957811.924 6  23922267.250
 129915100.989 6 101232638.70943  24722036.438                    24722047.121
 108444883.498 8  84502553.30646  20636344.227                    20636349.254
 110485036.628 7  86092249.43846  21024570.117                    21024577.426
 11  7 24  2 41 30.0000000  0  8G05G12G04G25G17G09G02G10
 111143738.044 8  86605786.026 7  21149971.508
 109640388.223 8  85434084.980 7  20863857.047
 118362271.661 7  92230442.34144  22523556.219                    22523564.688
 120882074.260 7  94193880.106 6  23003086.773
 125779109.739 6  98009690.995 6  23934936.703
 129999832.580 6 101298663.32043  24738161.453                    24738171.453
 108459607.316 8  84514026.43046  20639145.711                    20639151.273
 110516794.044 7  86116995.48046  21030613.563                    21030620.742
 11  7 24  2 42  0.0000000  0  9G05G12G04G25G27G17G09G02G10
 111074676.160 8  86551971.625 7  21136829.539
 109615099.092 8  85414379.171 7  20859044.406
 118444402.336 7  92294440.26645  22539185.188                    22539193.504
 120799378.036 7  94129441.569 6  22987350.242
 130075283.18815                  24752523.469
 125845864.474 6  98061707.661 6  23947639.273
 130084522.565 6 101364655.45543  24754276.547                    24754286.902
 108474564.235 8  84525681.19146  20641992.344                    20641997.566
 110549158.410 8  86142214.47646  21036772.125                    21036779.371
 11  7 24  2 42 30.0000000  0 10G05G12G04G25G29G27G17G09G02G10
 111006066.777 8  86498509.811 7  21123773.766
 109590364.818 8  85395105.720 7  20854337.719
 118526583.334 7  92358477.40745  22554823.602                    22554831.793
 120717028.853 7  94065273.412 6  22971679.938
 131371117.50715                  24999101.500
 130139209.330 5                  24764689.211
 125912794.827 6  98113861.180 6  23960375.867
 130169166.702 5 101430611.89443  24770383.398                    24770395.008
 108489752.172 8  84537515.96746  20644882.563                    20644887.219
 110582127.395 7  86167904.59746  21043045.688                    21043053.324
 11  7 24  2 43  0.0000000  0 10G05G12G04G25G29G27G17G09G02G10
 110937912.581 8  86445402.682 7  21110804.133
 109566186.768 8  85376265.691 7  20849737.258
 118608813.818 7  92422553.10844  22570471.555                    22570479.703
 120635029.839 8  94001378.145 6  22956075.922
 131292631.302 5                  24984154.609
 130203031.56815                  24776833.586
 125979901.462 6  98166152.027 6  23973146.359
 130253762.686 5 101496530.79742  24786481.875                    24786493.367
 108505170.348 8  84549530.13946  20647816.617                    20647821.484
 110615700.183 8  86194065.22846  21049434.438                    21049441.773
 11  7 24  2 43 30.0000000  0 10G05G12G04G25G29G27G17G09G02G10
 110870216.310 8  86392652.378 7  21097922.211
 109542566.984 8  85357860.690 7  20845242.117
 118691092.779 7  92486666.58645  22586128.797                    22586136.609
 120553384.078 7  93937758.154 7  22940539.281
 131214068.686 5                  24969201.211
 130266747.86914                  24788956.453
 126047184.857 6  98218580.622 6  23985950.039
 130338307.688 5 101562409.95042  24802568.922                    24802581.645
 108520818.234 8  84561723.32746  20650793.883                    20650799.398
 110649875.849 7  86220695.61246  21055937.883                    21055944.809
 11  7 24  2 44  0.0000000  0 10G05G12G04G25G29G27G17G09G02G10
 110802980.519 8  86340260.893 7  21085127.672
 109519506.433 8  85339891.417 7  20840854.031
 118773418.895 7  92550816.81844  22601795.008                    22601802.848
 120472094.173 7  93874415.418 6  22925070.320
 131135430.02614                  24954254.539
 130330355.69215                  24801062.938
 126114645.104 6  98271147.053 6  23998786.891
 130422798.848 5 101628247.19142  24818647.570                    24818659.879
 108536694.808 8  84574094.70946  20653815.219                    20653820.516
 110684653.166 8  86247794.82846  21062555.711                    21062563.414
 11  7 24  2 44 30.0000000  0  9G05G12G04G25G27G17G09G02G10
 110736206.581 8  86288229.296 7  21072420.836
 109497005.821 8  85322358.456 7  20836572.023
 118855790.208 7  92615002.24744  22617469.648                    22617477.555
 120391162.265 7  93811351.663 7  22909668.875
 130393852.13815                  24813146.336
 126182282.010 6  98323851.145 6  24011657.766
 130507232.412 5 101694039.46342  24834714.430                    24834727.141
 108552798.174 8  84586642.81446  20656879.531                    20656884.914
 110720030.227 7  86275361.38046  21069287.625                    21069295.641
 11  7 24  2 45  0.0000000  0  9G05G12G04G25G27G17G09G02G10
 110669896.526 8  86236559.162 7  21059802.375
 109475066.275 8  85305262.721 7  20832397.297
 118938205.244 7  92679221.76044  22633152.461                    22633161.113
 120310590.853 7  93748568.814 7  22894337.094
 130457234.588 5 101655117.21552  24825206.813                    24825218.598
 126250095.807 7  98376693.040 6  24024562.969
 130591605.884 5 101759784.96242  24850771.766                    24850783.270
 108569127.256 8  84599366.79546  20659986.813                    20659992.254
 110756005.490 7  86303394.06545  21076133.563                    21076140.848
 11  7 24  2 45 30.0000000  0  9G05G12G04G25G29G17G09G02G10
 110604052.829 8  86185252.426 7  21047272.492
 109453688.738 8  85288604.926 7  20828329.188
 119020662.574 7  92743474.23944  22648844.125                    22648852.203
 120230382.569 7  93686068.875 7  22879074.008
 130898681.57615 101999038.98015  24909192.414
 126318086.335 6  98429672.686 6  24037500.297
 130675916.13316 101825481.18652  24866815.078                    24866826.707
 108585680.941 8  84612265.78546  20663137.250                    20663142.207
 110792577.800 8  86331891.97446  21083093.156                    21083100.465
 11  7 24  2 46  0.0000000  0  9G05G12G04G25G29G17G09G02G10
 110538678.005 8  86134311.054 7  21034832.500
 109432875.188 8  85272386.592 7  20824368.078
 119103161.602 7  92807759.22044  22664542.320                    22664550.801
 120150540.437 7  93623854.265 7  22863880.367
 130819740.04215 101937526.25515  24894169.344
 126386254.107 6  98482790.485 6  24050472.664
 130760160.621 6 101891126.22443  24882846.375                    24882857.887
 108602458.567 8  84625339.29246  20666329.719                    20666334.621
 110829746.148 7  86360854.33946  21090166.250                    21090173.637
 11  7 24  2 46 30.0000000  0  9G05G12G04G25G29G17G09G02G10
 110473774.239 8  86083736.732 7  21022481.359
 109412625.970 8  85256607.964 7  20820515.375
 119185700.513 7  92872075.26244  22680249.547                    22680257.246
 120071066.906 7  93561926.882 7  22848756.875
 130740724.22015 101875955.33714  24879131.563
 126454599.395 7  98536046.521 6  24063478.313
 130844336.267 6 101956717.61643  24898864.195                    24898875.945
 108619458.879 8  84638586.30446  20669564.531                    20669570.074
 110867508.565 8  86390279.60546  21097351.797                    21097359.047
 11  7 24  2 47  0.0000000  0  9G05G12G04G25G29G17G09G02G10
 110409342.972 8  86033530.596 7  21010220.352
 109392941.786 8  85241269.651 7  20816769.453
 119268277.657 7  92936421.09544  22695963.398                    22695971.418
 119991964.028 7  93500288.324 6  22833704.250
 130661632.893 5 101814326.342 5  24864082.570
 126523121.518 7  98589440.422 6  24076517.648
 130928439.495 6 102022252.54243  24914868.555                    24914880.570
 108636680.186 8  84652005.51446  20672841.523                    20672846.914
 110905863.334 7  86420166.46446  21104650.633                    21104657.691
 11  7 24  2 47 30.0000000  0 10G05G12G04G25G29G27G17G09G02G10
 110345387.314 8  85983695.071 7  20998050.281
 109373824.704 8  85226373.230 7  20813131.492
 119350892.487 7  93000796.32044  22711684.750                    22711692.480
 119913235.290 7  93438941.292 7  22818722.461
 130582468.52315 101752639.93515  24849017.617
 130772356.85714                  24885174.789
 126591821.584 6  98642972.979 6  24089591.008
 131012468.533 5 102087729.67843  24930857.984                    24930870.043
 108654122.657 8  84665597.07646  20676160.961                    20676166.137
 110944809.807 7  86450514.36946  21112061.727                    21112069.469
 11  7 24  2 48  0.0000000  0 10G05G12G04G25G29G27G17G09G02G10
 110281908.206 8  85934230.878 7  20985970.391
 109355274.449 8  85211918.487 7  20809601.203
 119433542.657 7  93065199.05344  22727412.734                    22727420.418
 119834882.160 7  93377886.971 7  22803812.281
 130503229.911 5 101690895.789 5  24833939.781
 130835006.88414                  24897095.172
 126660698.967 6  98696643.657 6  24102697.430
 131096419.173 5 102153145.59743  24946834.508                    24946846.070
 108671783.857 8  84679359.07146  20679521.734                    20679527.012
 110984345.408 7  86481321.35046  21119585.422                    21119592.570
 11  7 24  2 48 30.0000000  0 10G05G12G04G25G29G27G17G09G02G10
 110218908.143 8  85885139.980 7  20973982.125
 109337292.513 8  85197906.609 7  20806179.945
 119516227.329 7  93129628.67544  22743147.180                    22743154.516
 119756907.684 7  93317127.669 7  22788974.258
 130423918.48615 101629094.43515  24818844.422
 130897526.408 5                  24908992.016
 126729753.608 6  98750452.513 5  24115838.336
 131180288.753 6 102218498.53043  24962793.844                    24962805.594
 108689662.901 8  84693290.79946  20682924.273                    20682929.047
 111024468.942 8  86512586.44446  21127220.563                    21127227.695
 11  7 24  2 49  0.0000000  0 10G05G12G04G25G29G27G17G09G02G10
 110156389.054 8  85836423.855 7  20962084.984
 109319879.364 8  85184337.918 7  20802866.203
 119598944.785 7  93194083.87644  22758887.258                    22758895.145
 119679314.048 7  93256665.151 7  22774208.672
 130344532.90915 101567236.06415  24803737.891
 130959912.908 5                  24920864.883
 126798985.667 6  98804399.572 5  24129013.297
 131264074.596 6 102283786.11343  24978739.172                    24978749.559
 108707758.586 8  84707391.34646  20686367.602                    20686372.531
 111065178.496 7  86544308.19846  21134967.281                    21134974.285
 11  7 24  2 49 30.0000000  0 10G05G12G04G25G29G27G17G09G02G10
 110094353.235 8  85788084.290 7  20950279.773
 109303036.208 8  85171213.403 7  20799660.695
 119681694.209 7  93258563.97044  22774634.141                    22774641.379
 119602104.167 7  93196501.660 7  22759516.398
 130265075.124 5 101505321.072 5  24788619.977
 131022164.228 5                  24932710.578
 126868395.500 6  98858485.182 6  24142221.898
 131347773.983 5 102349006.36443  24994666.516                    24994677.203
 108726070.013 8  84721660.00446  20689852.023                    20689857.172
 111106472.990 8  86576485.73446  21142825.586                    21142832.898
 11  7 24  2 50  0.0000000  0 10G05G12G04G25G29G27G17G09G02G10
 110032802.645 8  85740122.845 7  20938567.133
 109286764.209 8  85158533.928 7  20796564.445
 119764474.199 7  93323067.88644  22790386.336                    22790394.598
 119525280.431 7  93136639.053 7  22744896.656
 130185545.271 5 101443349.959 5  24773484.258
 131084277.837 5                  24944530.469
 126937982.946 6  98912709.212 5  24155463.273
 131431383.794 6 102414156.74243  25010577.891                    25010587.805
 108744596.213 8  84736096.01046  20693377.227                    20693382.684
 111148350.722 8  86609117.75646  21150794.430                    21150801.711
 11  7 24  2 50 30.0000000  0 10G05G12G04G25G29G27G17G09G02G10
 109971739.280 8  85692541.048 7  20926946.695
 109271063.953 8  85146299.987 7  20793576.727
 119847283.540 7  93387594.64244  22806144.398                    22806152.598
 119448845.526 7  93077079.465 7  22730351.617
 130105943.556 4 101381322.820 5  24758334.102
 131146251.852 5                  24956323.203
 127007748.030 6  98967071.602 6  24168739.469
 131514900.985 6 102479234.98343  25026468.945                    25026480.664
 108763336.005 8  84750698.46646  20696943.906                    20696948.254
 111190809.788 7  86642202.75745  21158874.117                    21158881.789
 11  7 24  2 51  0.0000000  0 10G05G12G04G25G29G27G17G09G02G10
 109911165.405 8  85645340.661 7  20915420.234
 109255936.708 8  85134512.528 7  20790698.164
 119930121.132 7  93452143.44844  22821908.195                    22821915.660
 119372802.107 7  93017824.871 7  22715881.453
 130026270.888 5 101319240.356 5  24743175.828
 131208083.80014                  24968087.875
 127077691.226 6  99021572.803 5  24182049.102
 131598323.387 5 102544239.34142  25042343.500                    25042354.988
 108782288.530 8  84765466.68246  20700549.992                    20700555.074
 111233848.957 7  86675739.78146  21167064.250                    21167071.191
 11  7 24  2 51 30.0000000  0 10G05G12G04G25G29G27G17G09G02G10
 109851082.791 8  85598523.096 7  20903986.742
 109241383.024 8  85123172.003 7  20787928.617
 120012985.794 7  93516713.34344  22837676.211                    22837684.375
 119297152.569 7  92958877.215 7  22701485.641
 129946527.499 6 101257102.903 5  24728000.797
 131269771.46815                  24979828.828
 127147812.218 6  99076212.578 5  24195393.164
 131681647.833 5 102609167.32743  25058200.109                    25058211.723
 108801452.678 8  84780399.79646  20704196.547                    20704201.973
 111277466.877 8  86709727.77846  21175364.188                    21175372.066
 11  7 24  2 52  0.0000000  0 10G05G12G04G25G29G27G17G09G02G10
 109791493.211 8  85552089.679 7  20892647.281
 109227403.322 8  85112278.732 7  20785268.484
 120095875.754 7  93581302.93744  22853449.828                    22853458.160
 119221899.028 7  92900238.157 7  22687165.164
 129866713.427 5 101194910.281 5  24712812.109
 131331312.02315                  24991538.125
 127218110.923 6  99130990.740 5  24208769.344
 131764870.672 5 102674016.20942  25074037.141                    25074048.918
 108820827.066 8  84795496.73846  20707883.234                    20707888.938
 111321660.645 7  86744164.49546  21183774.750                    21183781.402
 11  7 24  2 52 30.0000000  0 10G05G12G04G25G29G27G17G09G02G10
 109732398.842 8  85506042.145 7  20881402.109
 109213998.986 8  85101833.803 7  20782717.320
 120178790.133 7  93645911.55944  22869227.984                    22869236.336
 119147044.366 7  92841909.922 7  22672920.953
 129786829.578 6 101132663.221 6  24697610.477
 131392704.09515                  25003221.086
 127288587.545 6  99185907.544 5  24222180.594
 131847990.145 5 102738784.49542  25089853.922                    25089865.820
 108840410.398 8  84810756.49346  20711610.023                    20711615.344
 111366429.299 8  86779049.18246  21192293.664                    21192301.090
 11  7 24  2 53  0.0000000  0  9G05G12G04G25G29G17G09G02G10
 109673801.390 8  85460381.828 7  20870251.086
 109201170.325 8  85091837.475 7  20780276.375
 120261727.371 7  93710537.95744  22885010.500                    22885018.422
 119072590.725 7  92783894.162 7  22658752.773
 129706875.882 5 101070361.662 5  24682397.219
 127359241.857 5  99240962.915 4  24235626.086
 131931002.802 6 102803469.61142  25105651.469                    25105662.594
 108860201.512 8  84826178.15846  20715376.359                    20715381.051
 111411770.728 8  86814380.16746  21200921.984                    21200928.789
 11  7 24  2 53 30.0000000  0  9G05G12G04G25G29G17G09G02G10
 109615702.805 8  85415110.251 7  20859195.703
 109188917.853 8  85082290.102 7  20777945.164
 120344686.575 7  93775181.48744  22900797.125                    22900805.055
 118998540.772 7  92726192.974 7  22644661.313
 129626853.331 6 101008006.478 5  24667169.063
 127430074.282 5  99296157.032 4  24249105.344
 132013906.072 6 102868069.42542  25121427.320                    25121438.965
 108880199.951 8  84841761.37946  20719181.906                    20719187.297
 111457683.326 8  86850156.21746  21209658.875                    21209666.344
 11  7 24  2 54  0.0000000  0  9G05G12G04G25G29G17G09G02G10
 109558104.662 8  85370228.632 7  20848234.891
 109177242.414 7  85073192.367 7  20775722.695
 120427666.373 7  93839841.08844  22916587.414                    22916595.488
 118924896.764 7  92668808.088 7  22630647.273
 129546761.959 6 100945597.751 5  24651927.883
 127501084.33515  99351489.41714  24262618.844
 132096697.087 6 102932581.74642  25137182.219                    25137193.652
 108900403.990 8  84857504.80546  20723026.586                    20723031.602
 111504165.259 8  86886375.90746  21218503.586                    21218511.309
 11  7 24  2 54 30.0000000  0  9G05G12G04G25G29G17G09G02G10
 109501008.883 8  85325738.453 7  20837369.789
 109166144.612 8  85064544.728 7  20773611.102
 120510665.536 7  93904515.76644  22932381.352                    22932389.191
 118851661.048 7  92611741.324 7  22616711.227
 129466602.396 6 100883135.818 5  24636673.656
 127572272.25214  99406960.24114  24276162.195
 132179372.882 6 102997004.38343  25152915.516                    25152926.848
 108920812.600 8  84873407.64346  20726910.320                    20726915.387
 111551214.286 7  86923037.47446  21227456.953                    21227464.078
 11  7 24  2 55  0.0000000  0  9G05G12G04G25G29G17G09G02G10
 109444417.386 8  85281641.211 7  20826600.688
 109155625.025 8  85056347.666 7  20771609.359
 120593682.510 7  93969204.31944  22948179.695                    22948186.934
 118778835.981 7  92554994.582 7  22602852.672
 129386374.958 6 100820621.023 5  24621407.656
 127643639.43115  99462568.19315  24289743.164
 132261930.272 6 103061334.73042  25168624.453                    25168636.902
 108941424.489 8  84889468.88246  20730832.328                    20730837.438
 111598828.645 7  86960139.60446  21236517.813                    21236524.742
 11  7 24  2 55 30.0000000  0  9G05G12G04G25G29G17G09G02G10
 109388332.225 8  85237938.523 7  20815928.047
 109145684.564 8  85048601.868 7  20769717.859
 120676716.697 7  94033906.29844  22963980.336                    22963988.410
 118706424.626 7  92498570.203 7  22589073.672
 129306080.676 7 100758054.082 5  24606127.953
 127715182.393 5  99518316.645 5  24303360.875
 132344367.427 6 103125571.47442  25184312.516                    25184323.602
 108962239.241 8  84905688.18546  20734793.430                    20734798.332
 111647007.044 7  86997681.22946  21245685.773                    21245692.734
 11  7 24  2 56  0.0000000  0  9G05G12G04G25G29G17G09G02G10
 109332755.042 8  85194631.671 7  20805351.758
 109136323.577 8  85041307.594 7  20767936.578
 120759766.842 7  94098620.67244  22979784.453                    22979791.906
 118634429.034 7  92442469.792 7  22575372.727
 129225719.821 6 100695435.308 5  24590835.430
 127786903.416 5  99574203.198 5  24317007.992
 132426681.174 6 103189711.93142  25199977.180                    25199987.422
 108983255.613 8  84922064.60046  20738792.594                    20738797.516
 111695747.205 7  87035660.60646  21254960.625                    21254967.832
 11  7 24  2 56 30.0000000  0  8G05G12G04G25G29G09G02G10
 109277687.339 8  85151721.804 7  20794873.148
 109127542.612 8  85034465.289 7  20766265.367
 120842831.355 7  94163346.27544  22995590.773                    22995598.102
 118562851.282 7  92386694.967 7  22561751.945
 129145292.547 6 100632764.767 5  24575530.602
 132508868.415 6 103253753.86452  25215616.258                    25215628.066
 109004471.885 8  84938596.78046  20742830.133                    20742834.953
 111745046.831 7  87074075.90345  21264341.656                    21264348.801
 11  7 24  2 57  0.0000000  0  9G05G12G04G25G29G17G09G02G10
 109223130.989 8  85109210.402 8  20784491.305
 109119341.841 8  85028075.086 7  20764705.164
 120925909.175 7  94228082.26544  23011400.234                    23011407.465
 118491693.867 7  92331247.683 7  22548211.672
 129064799.451 6 100570042.984 5  24560213.016
 127930881.55115  99686395.78914  24344405.625
 132590926.371 6                  25231230.031
 109025887.604 8  84955284.36446  20746905.492                    20746910.234
 111794904.054 7  87112925.69545  21273829.391                    21273837.020
 11  7 24  2 57 30.0000000  0  9G05G12G04G25G29G17G09G02G10
 109169088.138 8  85067099.130 7  20774207.117
 109111722.408 8  85022137.874 7  20763254.938
 121008999.781 7  94292828.17744  23027211.719                    23027219.398
 118420959.743 7  92276130.224 7  22534751.336
 128984241.603 7 100507270.745 6  24544883.250
 128003135.196 4                  24358153.555
 132672853.031 6                  25246820.945
 109047501.924 8  84972126.70146  20751018.273                    20751023.449
 111845317.691 7  87152209.06346  21283422.844                    21283430.141
 11  7 24  2 58  0.0000000  0  8G05G12G04G25G29G09G02G10
 109115560.116 8  85025389.025 7  20764021.016
 109104684.553 8  85016653.849 7  20761915.789
 121092101.600 7  94357582.84844  23043025.586                    23043033.266
 118350650.897 7  92221344.139 7  22521371.727
 128903619.343 6 100444448.278 6  24529540.938
 132754645.361 5                  25262385.547
 109069313.321 8  84989122.60546  20755168.695                    20755173.648
 111896285.465 7  87191924.23345  21293121.695                    21293128.910
 11  7 24  2 58 30.0000000  0  8G05G12G04G25G29G09G02G10
 109062548.636 8  84984081.412 7  20753933.414
 109098228.856 8  85011623.433 7  20760686.836
 121175213.524 7  94422345.35544  23058841.227                    23058849.270
 118280769.747 7  92166891.332 7  22508073.938
 128822933.109 7 100381576.008 6  24514186.305
 132836300.376 5 103508912.26952  25277924.867                    25277934.777
 109091320.636 8  85006271.16946  20759356.461                    20759361.754
 111947805.445 7  87232069.67845  21302925.711                    21302932.797
 11  7 24  2 59  0.0000000  0  8G05G12G04G25G29G09G02G10
 109010056.199 8  84943178.252 7  20743944.578
 109092356.261 7  85007047.397 7  20759569.789
 121258335.440 7  94487115.69344  23074658.484                    23074666.191
 118211319.372 7  92112774.199 7  22494857.719
 128742184.383 6 100318655.111 6  24498820.961
 132917816.314 5 103572431.12842  25293435.727                    25293447.766
 109113523.387 7  85023572.02146  20763581.500                    20763586.797
 111999876.096 7  87272644.24445  21312834.039                    21312841.281
 11  7 24  2 59 30.0000000  0  9G05G12G04G25G29G17G09G02G10
 108958082.876 8  84902679.598 8  20734054.102
 109087065.508 7  85002924.733 7  20758562.945
 121341464.056 7  94551891.24844  23090477.266                    23090485.227
 118142300.233 7  92058993.083 7  22481723.516
 128661372.123 6 100255684.661 6  24483443.109
 128293649.81515  99969197.65814  24413491.781
 132999188.262 6 103635837.73742  25308921.305                    25308933.199
 109135919.408 8  85041023.48346  20767843.477                    20767848.363
 112052493.233 7  87313644.62445  21322846.781                    21322854.082
 11  7 24  3  0  0.0000000  0  8G05G12G04G25G29G09G02G10
 108906631.200 8  84862587.425 7  20724263.266
 109082358.151 7  84999256.674 7  20757666.930
 121424599.778 6  94616672.33544  23106297.406                    23106305.531
 118073715.973 7  92005550.840 7  22468672.766
 128580497.250 6 100192665.419 6  24468052.766
 133080415.045 5 103699131.30742  25324377.250                    25324390.141
 109158508.578 8  85058625.44746  20772142.453                    20772147.172
 112105656.297 7  87355070.39145  21332963.164                    21332971.250
 11  7 24  3  0 30.0000000  0  9G05G12G04G25G29G17G09G02G10
 108855703.006 8  84822903.155 8  20714571.906
 109078234.774 8  84996043.674 7  20756882.133
 121507741.784 6  94681458.33444  23122118.961                    23122126.844
 118005569.211 7  91952449.514 7  22455704.906
 128499561.424 7 100129598.689 6  24452651.336
 128440116.28215                  24441361.086
 133161494.319 6 103762309.88342  25339807.750                    25339820.164
 109181290.186 8  85076377.35346  20776477.547                    20776482.156
 112159363.711 7  87396920.33545  21343183.875                    21343191.414
 11  7 24  3  1  0.0000000  0  9G05G12G04G25G29G17G09G02G10
 108805299.275 8  84783627.546 8  20704980.211
 109074695.404 8  84993285.719 7  20756208.453
 121590888.168 7  94746247.70444  23137941.180                    23137948.305
 117937861.680 7  91899690.405 7  22442820.664
 128418564.340 6 100066484.236 6  24437237.883
 128513610.160 4                  24455344.438
 133242423.057 5 103825371.18742  25355208.320                    25355220.160
 109204262.307 8  85094277.71546  20780848.695                    20780853.789
 112213612.694 7  87439192.29845  21353506.656                    21353513.699
 11  7 24  3  1 30.0000000  0  8G05G12G04G25G29G09G02G10
 108755422.065 8  84744762.222 7  20695489.039
 109071740.424 7  84990983.156 7  20755646.430
 121674038.456 7  94811040.12244  23153763.875                    23153772.129
 117870595.961 8  91847275.619 7  22430019.953
 128337506.746 6 100003322.681 6  24421812.922
 133323198.760 5 103888313.10942  25370578.977                    25370591.734
 109227424.472 8  85112326.15446  20785256.547                    20785260.961
 112268401.638 7  87481884.99945  21363932.719                    21363940.098
 11  7 24  3  2  0.0000000  0  8G05G12G04G25G29G09G02G10
 108706072.923 8  84706308.370 8  20686098.375
 109069370.418 8  84989136.404 7  20755195.430
 121757191.687 7  94875834.84044  23169587.664                    23169595.125
 117803774.453 8  91795206.920 7  22417304.242
 128256389.908 6  99940114.845 6  24406377.492
 133403819.038 4                  25385918.234
 109250775.540 8  85130521.79346  20789699.797                    20789704.957
 112323728.290 7  87524996.67345  21374461.172                    21374468.379
 11  7 24  3  2 30.0000000  0  9G05G12G04G25G29G17G09G02G10
 108657250.802 8  84668265.193 8  20676807.289
 109067582.718 8  84987743.405 7  20754855.336
 121840344.114 7  94940628.91944  23185411.438                    23185419.355
 117737396.688 7  91743484.027 7  22404673.031
 128175211.377 6  99876859.007 6  24390928.672
 128735160.43015                  24497503.992
 133484278.199 4                  25401231.430
 109274311.841 8  85148861.75346  20794178.609                    20794183.578
 112379587.767 7  87568523.55945  21385091.172                    21385098.246
 11  7 24  3  3  0.0000000  0  9G05G12G04G25G29G17G09G02G10
 108608961.859 8  84630637.488 8  20667618.617
 109066381.897 8  84986807.720 7  20754626.609
 121923499.362 7  95005425.22644  23201235.344                    23201243.332
 117671469.535 7  91692112.280 7  22392127.555
 128093976.652 6  99813559.366 6  24375470.219
 128809361.06714                  24511623.859
 133564578.26215                  25416512.023
 109298036.922 8  85167348.81846  20798693.664                    20798698.449
 112435982.192 7  87612467.29445  21395822.570                    21395829.570
 11  7 24  3  3 30.0000000  0  8G05G12G04G25G29G09G02G10
 108561205.486 8  84593424.759 8  20658530.914
 109065766.366 7  84986328.086 8  20754509.547
 122006654.136 6  95070221.16644  23217059.102                    23217067.219
 117605993.310 7  91641091.857 7  22379667.797
 128012684.272 7  99750214.784 6  24360000.680
 133644714.64714                  25431759.961
 109321948.099 8  85185980.93146  20803243.578                    20803248.301
 112492907.839 7  87656824.94845  21406655.078                    21406662.348
 11  7 24  3  4  0.0000000  0  7G05G12G04G25G29G02G10
 108513983.117 8  84556628.137 7  20649544.406
 109065736.545 8  84986304.849 7  20754504.281
 122089807.817 7  95135016.23744  23232882.992                    23232890.316
 117540970.407 7  91590424.683 7  22367294.055
 127931334.789 6  99686825.694 6  24344521.031
 109346044.205 8  85204757.12846  20807828.945                    20807833.863
 112550362.348 7  87701594.71345  21417587.977                    21417594.707
 11  7 24  3  4 30.0000000  0  7G05G12G04G25G29G02G10
 108467296.901 8  84520249.305 8  20640660.531
 109066293.445 8  84986738.818 7  20754609.945
 122172960.039 7  95199810.19044  23248705.852                    23248713.867
 117476403.622 7  91540112.952 7  22355007.703
 127849929.941 6  99623393.434 6  24329029.555
 109370324.788 8  85223677.10646  20812449.180                    20812454.309
 112608344.494 7  87746775.63045  21428621.617                    21428629.242
 11  7 24  3  5  0.0000000  0  7G05G12G04G25G29G02G10
 108421147.202 8  84484288.534 8  20631878.266
 109067436.183 8  84987629.262 7  20754827.023
 122256108.674 7  95264601.35744  23264528.461                    23264535.781
 117412294.116 7  91490157.494 7  22342808.094
 127768468.764 7  99559917.320 6  24313527.133
 109394787.859 8  85242739.24246  20817104.563                    20817109.758
 112666850.545 7  87792364.74945  21439755.250                    21439762.613
 11  7 24  3  5 30.0000000  0  7G05G12G04G25G29G02G10
 108375535.730 8  84448747.158 8  20623198.586
 109069164.147 8  84988975.742 7  20755156.398
 122339253.086 7  95329389.21944  23280350.219                    23280358.246
 117348644.259 7  91440560.263 7  22330695.727
 127686952.537 6  99496398.261 6  24298016.008
 109419432.506 8  85261942.86646  20821794.297                    20821799.508
 112725878.741 7  87838360.75945  21450987.813                    21450995.090
 11  7 24  3  6  0.0000000  0  7G05G12G04G25G29G02G10
 108330463.039 8  84413625.604 8  20614621.797
 109071477.322 8  84990778.216 7  20755596.289
 122422391.536 7  95394172.41944  23296171.586                    23296178.711
 117285455.745 7  91391322.482 7  22318671.680
 127605381.249 6  99432836.371 6  24282493.258
 109444257.252 8  85281286.83946  20826518.031                    20826523.473
 112785426.334 7  87884761.50345  21462319.445                    21462326.988
 11  7 24  3  6 30.0000000  0  7G05G12G04G25G29G02G10
 108285930.986 8  84378925.323 8  20606147.680
 109074376.174 8  84993037.092 7  20756147.828
 122505523.245 7  95458950.39944  23311990.516                    23311998.648
 117222730.802 7  91342445.937 7  22306734.750
 127523756.001 6  99369232.372 6  24266960.281
 109469261.152 8  85300770.38746  20831276.023                    20831281.156
 112845490.934 7  87931565.09545  21473749.211                    21473756.105
 11  7 24  3  7  0.0000000  0  7G05G12G04G25G29G02G10
 108241940.876 8  84344647.344 8  20597776.719
 109077860.956 8  84995752.512 7  20756811.320
 122588647.479 6  95523722.52744  23327808.000                    23327816.422
 117160471.917 7  91293932.541 7  22294887.672
 127442077.456 6  99305586.838 6  24251417.227
 109494443.522 8  85320393.01146  20836068.203                    20836073.539
 112906070.780 7  87978770.18745  21485276.883                    21485284.531
 11  7 24  3  7 30.0000000  0  7G05G12G04G25G29G02G10
 108198493.196 8  84310792.046 8  20589508.992
 109081930.615 8  84998923.679 7  20757585.469
 122671762.930 6  95588487.83744  23343624.477                    23343632.422
 117098680.442 7  91245783.385 7  22283129.133
 127360345.781 6  99241899.931 5  24235864.055
 109519802.798 8  85340153.50046  20840893.969                    20840898.996
 112967162.648 7  88026374.22745  21496902.391                    21496910.008
 11  7 24  3  8  0.0000000  0  7G05G12G04G25G29G02G10
 108155591.159 8  84277361.909 8  20581344.641
 109086587.281 8  85002552.245 7  20758471.805
 122754870.229 7  95653246.80544  23359439.500                    23359446.996
 117037360.626 7  91198001.753 7  22271460.680
 127278563.623 6  99178173.689 6  24220301.883
 109545339.837 8  85360052.50546  20845753.508                    20845758.648
 113028766.207 7  88074377.01845  21508625.234                    21508632.500
 11  7 24  3  8 30.0000000  0  7G05G12G04G25G29G02G10
 108113235.212 8  84244357.294 8  20573284.477
 109091829.919 8  85006637.446 7  20759469.328
 122837967.331 6  95717997.80543  23375252.406                    23375259.688
 116976513.216 7  91150588.185 7  22259881.492
 127196730.447 6  99114407.693 5  24204729.180
 109571052.439 8  85380088.31446  20850646.523                    20850651.586
 113090877.804 7  88122775.68245  21520444.750                    21520452.215
 11  7 24  3  9  0.0000000  0  7G05G12G04G25G29G02G10
 108071425.900 8  84211778.648 8  20565328.617
 109097657.368 8  85011178.313 7  20760578.313
 122921052.739 6  95782739.72943  23391063.492                    23391070.281
 116916139.659 8  91103543.923 7  22248392.484
 127114846.625 6  99050602.182 5  24189147.695
 109596938.917 8  85400259.59346  20855572.375                    20855577.563
 113153494.470 7  88171567.88945  21532360.227                    21532367.801
 11  7 24  3  9 30.0000000  0  7G05G12G04G25G29G02G10
 108030164.340 8  84179626.815 8  20557476.750
 109104069.793 8  85016175.030 7  20761798.688
 123004125.639 6  95847471.84343  23406871.125                    23406879.328
 116856242.289 8  91056870.635 7  22236994.500
 127032912.887 7  98986757.780 5  24173555.422
 109622998.329 8  85420565.63946  20860531.523                    20860536.617
 113216614.226 7  88220752.11545  21544371.594                    21544378.449
 11  7 24  3 10  0.0000000  0  7G05G12G04G25G29G02G10
 107989452.854 8  84147903.610 8  20549729.492
 109111068.194 8  85021628.341 7  20763129.875
 123087186.464 6  95912194.61143  23422677.719                    23422685.113
 116796824.208 8  91010570.848 7  22225687.406
 126950931.034 7  98922875.858 6  24157954.734
 109649231.226 8  85441006.86046  20865523.781                    20865529.102
 113280235.406 7  88270327.06845  21556478.016                    21556485.383
 11  7 24  3 10 30.0000000  0  7G05G12G04G25G29G02G10
 107949291.872 8  84116609.379 8  20542087.141
 109118651.401 8  85027537.345 7  20764572.922
 123170233.413 7  95976906.51643  23438480.336                    23438488.430
 116737886.788 7  90964645.627 7  22214472.266
 126868901.185 7  98858956.580 6  24142345.375
 109675635.667 8  85461581.76246  20870547.695                    20870552.934
 113344355.207 7  88320290.55845  21568679.891                    21568687.223
 11  7 24  3 11  0.0000000  0  7G05G12G04G25G29G02G10
 107909682.691 8  84085745.124 8  20534549.656
 109126820.072 8  85033902.543 7  20766127.953
 123253265.648 6  96041607.00143  23454281.438                    23454288.898
 116679432.187 7  90919096.604 7  22203348.883
 126786824.419 6  98795000.823 6  24126726.641
 109702210.932 8  85482289.77046  20875604.727                    20875610.063
 113408971.079 7  88370640.58845  21580975.969                    21580982.922
 11  7 24  3 11 30.0000000  0  7G05G12G04G25G29G02G10
 107870626.686 8  84055311.919 8  20527117.516
 109135573.478 8  85040723.392 7  20767793.406
 123336282.598 6  96106295.54844  23470078.719                    23470086.535
 116621462.747 7  90873925.653 7  22192317.406
 126704701.511 6  98731009.050 6  24111099.281
 109728956.240 8  85503130.28346  20880694.859                    20880699.676
 113474080.753 7  88421375.42145  21593365.992                    21593372.859
 11  7 24  3 12  0.0000000  0  7G05G12G04G25G29G02G10
 107832124.930 8  84025310.592 8  20519790.781
 109144911.709 8  85047999.945 7  20769570.320
 123419283.670 6  96170971.72843  23485872.898                    23485880.742
 116563980.386 7  90829134.199 7  22181379.297
 126622532.785 6  98666981.672 6  24095461.609
 109755870.588 8  85524102.51246  20885816.344                    20885820.988
 113539681.814 7  88472493.13045  21605849.383                    21605856.527
 11  7 24  3 12 30.0000000  0  7G05G12G04G25G29G02G10
 107794177.878 8  83995741.510 8  20512569.695
 109154833.977 8  85055731.595 7  20771458.539
 123502267.417 7  96235634.39244  23501665.148                    23501672.395
 116506986.587 7  90784723.475 7  22170533.266
 126540319.325 5  98602919.405 6  24079816.938
 109782952.460 8  85545205.28346  20890969.758                    20890975.055
 113605771.112 7  88523991.28645  21618425.625                    21618432.969
 11  7 24  3 13  0.0000000  0  7G05G12G04G25G29G02G10
 107756787.401 8  83966606.111 8  20505454.727
 109165340.819 8  85063918.734 7  20773457.938
 123585233.534 7  96300283.35444  23517452.508                    23517460.336
 116450484.052 7  90740695.560 7  22159781.305
 126458062.592 6  98538823.414 6  24064164.258
 109810201.990 8  85566438.69846  20896155.023                    20896160.242
 113672347.114 7  88575868.70545  21631094.734                    21631101.863
 11  7 24  3 13 30.0000000  0  7G05G12G04G25G29G02G10
 107719953.604 8  83937904.497 8  20498445.430
 109176430.752 8  85072560.258 7  20775568.609
 123668180.497 7  96364917.38944  23533236.930                    23533245.023
 116394473.863 7  90697051.274 7  22149122.578
 126375762.621 6  98474693.745 6  24048502.898
 109837616.908 8  85587800.98346  20901371.875                    20901376.969
 113739406.427 7  88628122.71145  21643855.680                    21643863.180
 11  7 24  3 14  0.0000000  0  7G05G12G04G25G29G02G10
 107683678.105 8  83909637.910 8  20491542.375
 109188103.919 8  85081656.233 7  20777789.625
 123751107.563 7  96429535.93244  23549017.117                    23549025.332
 116338958.385 8  90653792.497 7  22138559.117
 126293420.312 6  98410531.045 6  24032834.797
 109865196.620 8  85609291.68046  20906620.609                    20906625.301
 113806947.302 7  88680752.00145  21656708.625                    21656715.262
 11  7 24  3 14 30.0000000  0  7G05G12G04G25G29G02G10
 107647961.230 8  83881806.627 7  20484745.477
 109200359.880 8  85091206.340 7  20780121.703
 123834014.131 7  96494138.43244  23564793.734                    23564801.547
 116283939.224 8  90610920.469 7  22128088.891
 126211036.348 7  98346335.899 6  24017157.367
 109892940.078 8  85630909.96746  20911899.563                    20911904.371
 113874966.480 7  88733753.95645  21669651.984                    21669659.520
 11  7 24  3 15  0.0000000  0  7G05G12G04G25G29G02G10
 107612804.674 8  83854411.942 8  20478055.391
 109213198.437 8  85101210.410 7  20782564.789
 123916899.556 6  96558724.52544  23580566.344                    23580574.281
 116229418.902 8  90568437.147 7  22117714.102
 126128612.098 7  98282109.357 6  24001471.914
 109920847.072 8  85652655.68646  20917210.148                    20917214.809
 113943462.244 7  88787127.29645  21682686.469                    21682692.996
 11  7 24  3 15 30.0000000  0  7G05G12G04G25G29G02G10
 107578209.309 8  83827454.540 8  20471471.961
 109226619.545 8  85111668.424 7  20785118.773
 123999763.372 7  96623293.73844  23596334.945                    23596343.590
 116175399.526 8  90526344.154 7  22107434.422
 126046148.613 6  98217852.161 6  23985779.680
 109948916.918 8  85674528.32146  20922551.609                    20922556.402
 114012432.064 7  88840870.02345  21695810.781                    21695817.602
 11  7 24  3 16  0.0000000  0  7G05G12G04G25G29G02G10
 107544175.374 8  83800934.617 8  20464995.844
 109240621.989 8  85122579.420 7  20787783.688
 124082604.213 7  96687845.08344  23612099.320                    23612106.844
 116121882.131 8  90484642.350 7  22097250.156
 125963646.185 6  98153564.621 5  23970079.430
 109977147.652 8  85696526.30946  20927924.000                    20927929.121
 114081872.529 7  88894979.48545  21709024.539                    21709032.172
 11  7 24  3 16 30.0000000  0  7G05G12G04G25G29G02G10
 107510704.690 8  83774853.596 8  20458626.234
 109255205.901 8  85133943.511 7  20790558.398
 124165421.817 6  96752378.25344  23627857.484                    23627866.582
 116068869.370 8  90443333.723 7  22087162.805
 125881106.204 7  98089247.827 6  23954373.156
 110005539.424 8  85718649.78146  20933326.383                    20933331.367
 114151781.879 7  88949454.31945  21722328.422                    21722335.395
 11  7 24  3 17  0.0000000  0  7G05G12G04G25G29G02G10
 107477797.339 8  83749211.530 8  20452364.109
 109270370.514 8  85145760.095 7  20793444.586
 124248214.855 7  96816892.31443  23643614.164                    23643621.426
 116016362.253 8  90402419.147 7  22077170.281
 125798528.966 7  98024901.986 6  23938659.063
 110034090.358 8  85740897.28746  20938759.375                    20938764.453
 114222156.994 7  89004292.09045  21735719.969                    21735727.004
 11  7 24  3 17 30.0000000  0  7G05G12G04G25G29G02G10
 107445454.629 8  83724009.436 8  20446209.930
 109286115.448 8  85158028.876 7  20796440.547
 124330983.282 6  96881387.23143  23659363.688                    23659371.488
 115964363.470 8  90361900.671 7  22067275.797
 125715916.229 6  97960528.551 6  23922938.258
 110062800.605 8  85763268.91946  20944223.094                    20944227.887
 114292995.648 7  89059491.04845  21749200.172                    21749207.289
 11  7 24  3 18  0.0000000  0  7G05G12G04G25G29G02G10
 107413676.793 8  83699247.504 8  20440162.547
 109302439.504 8  85170748.928 7  20799547.203
 124413725.665 7  96945861.88143  23675109.164                    23675116.395
 115912874.150 8  90321779.143 7  22057477.414
 125633268.229 6  97896127.619 6  23907210.641
 110091668.202 8  85785763.15646  20949716.188                    20949721.102
 114364294.765 7  89115048.80745  21762768.047                    21762774.645
 11  7 24  3 18 30.0000000  0  7G05G12G04G25G29G02G10
 107382465.522 8  83674927.035 8  20434223.148
 109319342.951 8  85183920.456 7  20802763.500
 124496441.826 6  97010316.07543  23690849.141                    23690857.223
 115861896.665 8  90282056.493 7  22047776.852
 125550586.181 6  97831700.206 6  23891476.492
 110120693.199 8  85808380.05146  20955239.320                    20955244.191
 114436052.553 7  89170963.95845  21776423.102                    21776430.250
 11  7 24  3 19  0.0000000  0  7G05G12G04G25G29G02G10
 107351820.809 8  83651048.061 8  20428391.742
 109336824.484 8  85197542.426 7  20806089.992
 124579130.747 6  97074748.99443  23706584.156                    23706592.477
 115811432.363 8  90242733.703 7  22038173.461
 125467870.839 6  97767246.772 6  23875736.203
 110149873.952 8  85831118.30546  20960792.656                    20960797.152
 114508265.804 7  89227234.02145  21790164.484                    21790172.141
 11  7 24  3 19 30.0000000  0  7G05G12G04G25G29G02G10
 107321743.792 8  83627611.434 8  20422668.156
 109354884.166 8  85211614.886 7  20809527.023
 124661791.824 6  97139160.27843  23722314.125                    23722321.648
 115761483.178 8  90203812.318 7  22028668.336
 125385123.305 6  97702768.254 6  23859989.664
 110179210.108 8  85853977.66646  20966374.961                    20966379.152
 114580931.900 7  89283856.96245  21803992.719                    21803999.242
 11  7 24  3 20  0.0000000  0  7G05G12G04G25G29G02G10
 107292234.774 8  83604617.404 8  20417052.750
 109373520.696 8  85226136.866 7  20813073.438
 124744424.193 6  97203549.21843  23738038.367                    23738046.246
 115712050.674 8  90165293.518 7  22019261.836
 125302344.612 6  97638265.450 6  23844238.008
 110208700.539 8  85876957.23146  20971986.742                    20971991.438
 114654047.817 7  89340830.40945  21817906.125                    21817913.367
 11  7 24  3 20 30.0000000  0  7G05G12G04G25G29G02G10
 107263294.338 8  83582066.435 8  20411545.586
 109392734.331 8  85241108.520 7  20816729.141
 124827027.325 6  97267915.31843  23753757.672                    23753764.902
 115663136.728 8  90127178.780 7  22009953.859
 125219535.668 7  97573739.058 6  23828479.203
 110238344.600 8  85900056.50846  20977627.906                    20977632.156
 114727611.561 7  89398152.81945  21831904.891                    21831911.313
 11  7 24  3 21  0.0000000  0  7G05G12G04G25G29G02G10
 107234923.857 8  83559959.577 8  20406146.898
 109412523.450 8  85256528.609 7  20820495.391
 124909600.666 6  97332258.21943  23769471.008                    23769477.859
 115614743.170 8  90089469.555 7  22000744.906
 125136697.563 6  97509189.972 6  23812715.742
 110268141.546 7  85923274.90946  20983298.258                    20983302.824
 114801620.729 7  89455822.29345  21845988.508                    21845995.754
 11  7 24  3 21 30.0000000  0  7G05G12G04G25G29G02G10
 107207123.816 8  83538297.229 8  20400856.836
 109432887.419 8  85272396.632 7  20824370.320
 124992143.496 7  97396577.32543  23785178.281                    23785186.137
 115566871.660 8  90052167.092 7  21991634.828
 125053831.442 6  97444619.008 6  23796947.359
 110298090.516 8  85946611.77546  20988997.297                    20989001.992
 114876072.351 7  89513836.55245  21860155.906                    21860162.973
 11  7 24  3 22  0.0000000  0  7G05G12G04G25G29G02G10
 107179894.531 8  83517079.618 8  20395675.133
 109453825.831 8  85288712.275 7  20828354.852
 125074654.655 7  97460871.80543  23800880.016                    23800887.668
 115519523.451 8  90015272.417 7  21982625.141
 124970937.898 7  97380026.680 6  23781172.438
 110328190.169 8  85970066.05846  20994724.961                    20994729.641
 114950963.514 7  89572193.31045  21874407.313                    21874414.547
 11  7 24  3 22 30.0000000  0  7G05G12G04G25G29G02G10
 107153236.362 8  83496307.029 8  20390602.227
 109475337.623 8  85305474.699 7  20832448.563
 125157133.945 7  97525141.36543  23816574.820                    23816582.176
 115472700.437 8  89978786.979 7  21973714.570
 124888018.131 7  97315413.969 6  23765393.555
 110358439.935 8  85993637.30046  21000480.984                    21000485.926
 115026291.686 7  89630890.58645  21888741.227                    21888748.754
 11  7 24  3 23  0.0000000  0  7G05G12G04G25G29G02G10
 107127150.023 8  83475980.020 8  20385638.102
 109497421.959 8  85322683.260 7  20836650.781
 125239580.607 7  97589385.52343  23832264.641                    23832271.254
 115426404.173 8  89942711.992 7  21964905.039
 124805072.926 7  97250781.412 6  23749609.672
 110388838.950 8  86017324.85746  21006265.984                    21006270.664
 115102054.042 7  89689926.19945  21903158.656                    21903165.789
 11  7 24  3 23 30.0000000  0  7G05G12G04G25G29G02G10
 107101636.427 8  83456099.327 8  20380783.078
 109520078.308 8  85340337.565 7  20840962.242
 125321993.998 7  97653603.75543  23847946.523                    23847954.164
 115380636.388 8  89907048.788 7  21956195.453
 124722103.536 6  97186130.025 6  23733821.102
 110419386.598 8  86041128.22446  21012078.625                    21012083.977
 115178248.118 7  89749298.20545  21917657.992                    21917665.371
 11  7 24  3 24  0.0000000  0  7G05G12G04G25G29G02G10
 107076695.943 8  83436665.223 8  20376037.266
 109543305.683 8  85358436.811 7  20845382.320
 125404373.643 7  97717795.71043  23863623.141                    23863630.613
 115335398.883 8  89871798.773 7  21947587.039
 124639111.145 7  97121460.678 6  23718028.773
 110450082.228 8  86065046.88846  21017920.031                    21017925.125
 115254870.986 7  89809004.32945  21932239.203                    21932245.832
 11  7 24  3 24 30.0000000  0  7G05G12G04G25G29G02G10
 107052329.131 8  83417678.109 8  20371400.227
 109567103.331 8  85376980.438 7  20849910.969
 125486718.995 6  97781960.91243  23879292.508                    23879300.102
 115290693.341 8  89836963.315 7  21939079.727
 124556097.025 7  97056774.451 6  23702230.555
 110480925.133 8  86089080.32846  21023789.211                    21023794.422
 115331920.347 7  89869042.80245  21946900.609                    21946907.711
 11  7 24  3 25  0.0000000  0  7G05G12G04G25G29G02G10
 107028535.545 8  83399137.667 8  20366872.563
 109591469.608 8  85395967.109 7  20854547.266
 125569028.958 6  97846098.50643  23894955.469                    23894963.902
 115246520.382 8  89802542.843 7  21930673.852
 124473061.325 7  96992071.419 6  23686429.570
 110511913.427 8  86113227.04446  21029686.094                    21029691.273
 115409392.087 7  89929410.39845  21961643.039                    21961650.809
 11  7 24  3 25 30.0000000  0  7G05G12G04G25G29G02G10
 107005316.305 8  83381044.769 8  20362453.750
 109616404.136 8  85415396.616 7  20859292.711
 125651303.173 6  97910208.28243  23910612.141                    23910620.125
 115202882.034 8  89768538.947 7  21922370.273
 124390005.534 7  96927352.750 6  23670624.336
 110543046.872 8  86137486.87546  21035610.758                    21035615.551
 115487284.811 7  89990106.03145  21976465.938                    21976472.887
 11  7 24  3 26  0.0000000  0  7G05G12G04G25G29G02G10
 106982672.105 8  83363399.958 8  20358144.742
 109641906.043 8  85435268.240 7  20864145.594
 125733541.162 6  97974289.82943  23926261.703                    23926268.941
 115159780.029 8  89734952.969 7  21914167.906
 124306931.240 7  96862619.637 6  23654816.250
 110574325.106 8  86161859.52546  21041563.102                    21041567.340
 115565595.689 7  90051127.49445  21991367.477                    21991375.273
 11  7 24  3 26 30.0000000  0  7G05G12G04G25G29G02G10
 106960602.615 8  83346202.983 8  20353945.133
 109667973.853 8  85455580.815 7  20869105.938
 125815742.231 6  98038342.63543  23941904.148                    23941911.270
 115117215.533 8  89701785.832 7  21906067.828
 124223838.932 7  96797872.440 6  23639004.352
 110605746.713 8  86186343.89946  21047542.195                    21047547.180
 115644321.459 7  90112472.25745  22006348.758                    22006355.824
 11  7 24  3 27  0.0000000  0  7G05G12G04G25G29G02G10
 106939109.000 8  83329454.736 8  20349854.789
 109694607.226 8  85476334.093 7  20874173.953
 125897905.971 6  98102366.29943  23957538.008                    23957547.102
 115075190.319 8  89669038.946 7  21898071.148
 124140729.843 6  96733112.171 6  23623189.008
 110637311.459 8  86210939.80946  21053548.664                    21053553.711
 115723459.672 7  90174138.40445  22021408.219                    22021415.238
 11  7 24  3 27 30.0000000  0  7G05G12G04G25G29G02G10
 106918191.055 8  83313155.054 8  20345874.203
 109721805.062 8  85497527.204 7  20879349.766
 125980031.609 6  98166360.30343  23973166.688                    23973175.055
 115033705.563 8  89636713.185 7  21890177.156
 124057605.078 6  96668339.715 6  23607370.422
 110669018.316 8  86235646.45446  21059582.344                    21059587.297
 115803007.128 7  90236123.42945  22036545.875                    22036552.895
 11  7 24  3 28  0.0000000  0  7G05G12G04G25G29G02G10
 106897849.645 8  83297304.635 8  20342003.141
 109749566.039 8  85519159.138 7  20884632.297
 126062119.056 6  98230324.53443  23988786.289                    23988795.520
 114992763.090 8  89604809.963 7  21882385.672
 123974466.319 6  96603556.318 6  23591550.070
 110700867.118 8  86260463.70946  21065642.711                    21065647.418
 115882961.574 7  90298425.60845  22051760.578                    22051767.152
 11  7 24  3 28 30.0000000  0  7G05G12G04G25G29G02G10
 106878084.580 8  83281903.306 8  20338242.633
 109777889.121 7  85541229.055 7  20890021.977
 126144167.618 6  98294258.43243  24004401.141                    24004409.004
 114952364.293 8  89573330.408 7  21874697.648
 123891314.557 7  96538762.835 6  23575725.977
 110732856.837 7  86285390.75646  21071730.133                    21071735.059
 115963320.647 7  90361043.06645  22067052.438                    22067060.188
 11  7 24  3 29  0.0000000  0  7G05G12G04G25G29G02G10
 106858896.176 8  83266951.315 8  20334590.641
 109806773.432 8  85563736.313 7  20895518.328
 126226176.644 6  98358161.51443  24020007.258                    24020015.402
 114912510.458 8  89542275.491 7  21867114.008
 123808150.619 7  96473959.837 6  23559901.195
 110764986.664 8  86310426.98546  21077844.516                    21077848.984
 116044081.092 7  90423973.29045  22082420.664                    22082427.758
 11  7 24  3 29 30.0000000  0  7G05G12G04G25G29G02G10
 106840284.748 8  83252448.924 8  20331049.133
 109836217.367 7  85586679.633 7  20901121.688
 126308145.252 6  98422033.15243  24035605.078                    24035612.742
 114873202.404 8  89511645.847 7  21859634.227
 123724975.424 7  96409148.057 6  23544073.227
 110797255.291 7  86335571.37446  21083984.984                    21083989.523
 116125239.385 7  90487213.52845  22097864.336                    22097871.410
 11  7 24  3 30  0.0000000  0  7G05G12G04G25G29G02G10
 106822250.215 8  83238396.064 8  20327617.359
 109866219.608 8  85610058.000 7  20906830.227
 126390073.045 7  98485872.98743  24051195.594                    24051203.113
 114834441.584 8  89481442.641 7  21852258.117
 123641790.083 7  96344328.382 6  23528243.023
 110829661.946 8  86360823.32946  21090151.727                    21090156.746
 116206793.054 7  90550761.84645  22113383.250                    22113390.879
 11  7 24  3 30 30.0000000  0  7G05G12G04G25G29G02G10
 106804792.628 8  83224792.775 8  20324295.414
 109896779.601 8  85633870.978 7  20912646.055
 126471959.680 6  98549680.77043  24066777.648                    24066785.746
 114796229.598 8  89451667.107 7  21844986.453
 123558596.079 7  96279501.998 6  23512412.000
 110862206.512 8  86386182.73246  21096344.531                    21096349.781
 116288739.585 7  90614616.28744  22128978.094                    22128984.445
 11  7 24  3 31  0.0000000  0  8G05G12G04G25G29G26G02G10
 106787912.205 8  83211639.204 8  20321083.219
 109927895.649 8  85658117.242 7  20918567.516
 126553804.499 7  98613455.92643  24082352.797                    24082360.324
 114758567.581 8  89422320.103 7  21837819.945
 123475394.622 7  96214669.753 6  23496579.109
 131965806.39415                  25112270.969
 110894887.824 8  86411648.69246  21102563.555                    21102568.703
 116371075.949 7  90678774.50545  22144645.344                    22144652.109
 11  7 24  3 31 30.0000000  0  8G05G12G04G25G29G26G02G10
 106771609.576 8  83198935.882 8  20317980.813
 109959566.425 8  85682795.778 7  20924594.156
 126635606.909 7  98677198.05443  24097918.305                    24097926.586
 114721456.722 8  89393402.560 7  21830757.719
 123392186.565 7  96149832.390 6  23480745.125
 131873039.285 5                  25094618.461
 110927705.080 8  86437220.58946  21108809.055                    21108813.652
 116453799.655 7  90743234.54745  22160387.383                    22160394.813
 11  7 24  3 32  0.0000000  0  8G05G12G04G25G29G26G02G10
 106755884.497 8  83186682.590 8  20314988.219
 109991791.139 8  85707905.949 7  20930726.711
 126717366.486 6  98740906.84343  24113478.359                    24113484.785
 114684898.361 8  89364915.546 7  21823800.867
 123308973.323 7  96084990.974 6  23464910.742
 131780105.700 5                  25076933.484
 110960657.622 8  86462897.91246  21115079.266                    21115083.902
 116536907.506 7  90807993.91845  22176202.172                    22176209.754
 11  7 24  3 32 30.0000000  0  8G05G12G04G25G29G26G02G10
 106740737.070 8  83174879.410 8  20312105.648
 110024568.301 8  85733446.606 7  20936963.594
 126799083.084 6  98804582.13643  24129027.633                    24129035.422
 114648893.883 8  89336860.134 7  21816949.453
 123225756.309 7  96020146.603 6  23449074.406
 131687008.492 5                  25059217.586
 110993745.316 8  86488680.54146  21121375.367                    21121380.227
 116620396.904 7  90873050.58745  22192090.203                    22192097.176
 11  7 24  3 33  0.0000000  0  8G05G12G04G25G29G26G02G10
 106726167.273 8  83163526.343 8  20309333.328
 110057896.671 8  85759416.754 7  20943305.656
 126880756.013 6  98868223.31643  24144569.195                    24144577.156
 114613444.489 8  89309237.269 7  21810203.875
 123142536.576 7  95955300.130 6  23433238.875
 131593750.637 5                  25041470.789
 111026967.436 8  86514567.92146  21127697.422                    21127702.320
 116704264.977 7  90938402.33444  22208049.242                    22208056.336
 11  7 24  3 33 30.0000000  0  8G05G12G04G25G29G26G02G10
 106712175.626 8  83152623.786 8  20306670.906
 110091775.057 8  85785815.497 7  20949752.516
 126962384.972 6  98931830.27643  24160102.820                    24160111.008
 114578551.377 8  89282047.841 7  21803563.727
 123059315.661 7  95890452.745 6  23417401.695
 131500334.41016                  25023694.117
 111060322.972 8  86540559.26546  21134044.914                    21134050.148
 116788508.626 7  91004046.72944  22224080.602                    22224087.270
 11  7 24  3 34  0.0000000  0  8G05G12G04G25G29G26G02G10
 106698761.854 8  83142171.515 8  20304118.391
 110126202.164 8  85812641.817 7  20956304.156
 127043969.456 6  98995402.61043  24175627.102                    24175635.000
 114544215.643 8  89255292.741 7  21797029.523
 122976094.432 7  95825605.147 6  23401564.344
 131406763.110 5 102394970.56552  25005888.477                    25005898.285
 111093811.323 8  86566654.09646  21140417.422                    21140422.313
 116873125.326 7  91069981.81845  22240182.672                    22240189.355
 11  7 24  3 34 30.0000000  0  8G05G12G04G25G29G26G02G10
 106685925.803 8  83132169.412 8  20301675.656
 110161176.361 8  85839894.432 7  20962959.492
 127125509.158 6  99058940.04843  24191144.734                    24191151.219
 114510438.504 8  89228972.906 7  21790602.094
 122892874.349 6  95760758.422 6  23385729.289
 131313039.260 6 102321939.15142  24988053.773                    24988062.855
 111127431.820 8  86592851.90346  21146815.070                    21146819.996
 116958112.296 7  91136205.44745  22256354.938                    22256361.734
 11  7 24  3 35  0.0000000  0  8G05G12G04G25G29G26G02G10
 106673667.271 8  83122617.312 8  20299343.273
 110196696.212 8  85867572.241 7  20969718.492
 127207003.284 6  99122442.00443  24206652.516                    24206659.445
 114477220.879 8  89203089.042 7  21784280.758
 122809656.440 7  95695913.439 6  23369892.617
 131219165.334 5 102248790.77242  24970188.625                    24970198.992
 111161183.555 8  86619151.96846  21153238.148                    21153243.313
 117043466.633 7  91202715.31345  22272596.875                    22272604.320
 11  7 24  3 35 30.0000000  0  8G05G12G04G25G29G26G02G10
 106661986.000 8  83113515.046 8  20297120.055
 110232759.608 8  85895673.589 7  20976581.102
 127288451.21916  99185907.92853  24222151.266                    24222158.629
 114444563.503 8  89177641.776 7  21778066.742
 122726441.762 6  95631070.890 6  23354057.633
 131125143.91415 102175527.46552  24952297.578                    24952307.535
 111195065.545 8  86645553.52746  21159685.555                    21159689.938
 117129184.767 7  91269508.66545  22288909.148                    22288916.078
 11  7 24  3 36  0.0000000  0  8G05G12G04G25G29G26G02G10
 106650882.940 8  83104863.337 8  20295007.289
 110269366.638 8  85924198.538 7  20983546.961
 127369853.557 6  99249338.35843  24237640.875                    24237649.094
 114412468.625 8  89152632.779 7  21771959.250
 122643232.662 7  95566232.680 6  23338223.570
 131030978.865 5 102102152.19142  24934378.406                    24934388.484
 111229078.377 8  86672057.04646  21166158.273                    21166162.668
 117215265.219 7  91336584.34344  22305289.289                    22305296.621
 11  7 24  3 36 30.0000000  0  8G05G12G04G25G29G26G02G10
 106640356.818 8  83096661.175 8  20293003.938
 110306515.423 8  85953145.631 7  20990616.531
 127451209.127 5  99312732.29943  24253121.289                    24253130.375
 114380936.407 8  89128062.213 7  21765958.617
 122560029.542 7  95501399.137 6  23322390.289
 130936672.349 5 102028666.79752  24916432.813                    24916442.184
 111263220.747 8  86698661.50846  21172654.945                    21172659.863
 117301704.335 7  91403939.48744  22321738.188                    22321745.359
 11  7 24  3 37  0.0000000  0  8G05G12G04G25G29G26G02G10
 106630408.948 8  83088909.596 8  20291110.969
 110344204.252 8  85982513.541 7  20997788.180
 127532517.869 6  99376089.75443  24268595.656                    24268603.043
 114349968.486 8  89103931.376 7  21760065.172
 122476834.298 6  95436571.737 6  23306558.797
 130842227.413 6 101955073.53042  24898459.750                    24898469.438
 111297492.283 8  86725366.60546  21179176.617                    21179181.453
 117388499.854 7  91471572.38245  22338255.031                    22338261.738
 11  7 24  3 37 30.0000000  0  8G05G12G04G25G29G26G02G10
 106621038.011 8  83081607.587 8  20289327.852
 110382431.420 8  86012300.942 7  21005062.883
 127613779.029 6  99439410.11343  24284058.555                    24284067.113
 114319565.201 8  89080240.529 7  21754279.883
 122393647.897 7  95371751.198 6  23290728.805
 130747646.749 6 101881374.47442  24880462.039                    24880471.465
 111331891.699 8  86752171.35546  21185722.938                    21185727.320
 117475648.670 7  91539480.55345  22354838.125                    22354845.965
 11  7 24  3 38  0.0000000  0  8G05G12G04G25G29G26G02G10
 106612243.809 8  83074754.979 8  20287654.258
 110421195.179 8  86042506.467 7  21012439.227
 127694992.319 6  99502693.18743  24299513.156                    24299520.762
 114289727.609 8  89056990.457 7  21748602.180
 122310471.527 6  95306938.487 6  23274900.484
 130652932.783 6 101807571.54842  24862437.531                    24862447.832
 111366418.350 8  86779075.24246  21192293.023                    21192297.668
 117563147.206 7  91607661.21945  22371489.281                    22371496.770
 11  7 24  3 38 30.0000000  0  8G05G12G04G25G29G26G02G10
 106604026.132 8  83068351.605 8  20286090.609
 110460494.425 8  86073129.255 7  21019917.398
 127776157.234 6  99565938.57943  24314958.258                    24314966.188
 114260456.834 8  89034182.054 7  21743032.148
 122227306.588 7  95242134.655 6  23259075.633
 130558088.689 6 101733667.18643  24844389.789                    24844398.348
 111401071.912 8  86806078.03446  21198887.008                    21198891.734
 117650992.970 7  91676112.43845  22388205.625                    22388213.266
 11  7 24  3 39  0.0000000  0  8G05G12G04G25G29G26G02G10
 106596385.200 8  83062397.651 8  20284636.555
 110500327.435 8  86104167.943 7  21027497.930
 127857273.760 6  99629146.27943  24330394.953                    24330402.508
 114231753.784 8  89011816.049 7  21737570.328
 122144154.537 7  95177340.896 6  23243251.383
 130463117.384 6 101659663.72143  24826317.422                    24826326.199
 111435851.863 8  86833179.29746  21205505.656                    21205510.535
 117739182.997 7  91744831.91644  22404987.742                    22404995.164
 11  7 24  3 39 30.0000000  0  8G05G12G04G25G29G26G02G10
 106589320.830 8  83056892.951 8  20283292.289
 110540692.801 8  86135621.470 7  21035178.648
 127938341.283 6  99692315.80443  24345821.281                    24345828.578
 114203619.466 8  88989893.188 7  21732216.180
 122061016.910 7  95112558.369 6  23227430.961
 130368021.751 6 101585563.35843  24808220.539                    24808230.074
 111470757.692 8  86860378.62946  21212148.047                    21212152.926
 117827714.768 7  91813817.65644  22421834.711                    22421841.969
 11  7 24  3 40  0.0000000  0  8G05G12G04G25G29G26G02G10
 106582832.087 8  83051836.796 8  20282057.352
 110581588.648 8  86167488.367 7  21042960.633
 128019359.524 6  99755446.85643  24361238.422                    24361246.469
 114176054.569 8  88968414.077 7  21726970.594
 121977894.600 7  95047787.743 6  23211613.781
 130272804.525 6 101511368.23343  24790102.008                    24790110.539
 111505788.577 8  86887675.42046  21218814.266                    21218819.500
 117916585.247 7  91883067.39944  22438746.695                    22438753.039
 11  7 24  3 40 30.0000000  0  8G05G12G04G25G29G26G02G10
 106576918.589 8  83047228.889 8  20280932.125
 110623013.376 8  86199767.362 7  21050844.031
 128100328.056 6  99818539.17243  24376646.328                    24376653.816
 114149059.887 7  88947379.254 7  21721833.727
 121894789.063 7  94983030.199 6  23195799.258
 130177468.494 6 101437080.55443  24771960.078                    24771968.102
 111540943.680 8  86915069.00646  21225503.789                    21225509.207
 118005791.386 7  91952578.72044  22455721.102                    22455728.758
 11  7 24  3 41  0.0000000  0  8G05G12G04G25G29G26G02G10
 106571580.687 8  83043069.507 8  20279916.156
 110664965.444 8  86232457.286 7  21058827.203
 128181246.736 6  99881592.65343  24392044.234                    24392052.504
 114122636.470 8  88926789.595 7  21716805.719
 121811701.958 7  94918287.049 6  23179988.641
 130082016.839 6 101362702.75943  24753795.586                    24753805.008
 111576222.794 8  86942559.21446  21232217.328                    21232222.047
 118095330.383 7  92022349.37544  22472759.898                    22472767.098
 11  7 24  3 41 30.0000000  0  8G05G12G04G25G29G26G02G10
 106566817.485 8  83039357.932 8  20279009.805
 110707442.887 8  86265556.587 7  21066910.367
 128262114.946 6  99944606.84843  24407432.992                    24407441.063
 114096784.926 8  88906645.526 7  21711886.422
 121728634.546 7  94853559.213 6  23164180.797
 129986452.265 6 101288236.95343  24735610.891                    24735619.898
 111611625.200 8  86970145.50246  21238954.391                    21238959.109
 118185199.133 7  92092376.96644  22489862.391                    22489868.922
 11  7 24  3 42  0.0000000  0  8G05G12G04G25G29G26G02G10
 106562628.649 8  83036093.912 8  20278212.836
 110750444.167 8  86299064.079 7  21075093.039
 128342932.511 7 100007581.61243  24422812.852                    24422820.352
 114071506.194 8  88886947.807 7  21707075.727
 121645588.177 7  94788847.792 6  23148377.234
 129890778.056 6 101213685.71243  24717404.258                    24717413.305
 111647150.361 8  86997827.45146  21245714.430                    21245719.277
 118275394.978 7  92162659.44644  22507025.563                    22507032.652
 11  7 24  3 42 30.0000000  0  8G05G12G04G25G29G26G02G10
 106559013.909 8  83033277.245 8  20277524.992
 110793967.478 8  86332978.336 7  21083375.281
 128423699.116 7 100070516.61343  24438182.039                    24438190.191
 114046800.882 8  88867696.944 7  21702374.852
 121562564.275 6  94724153.921 6  23132578.453
 129794996.775 6 101139051.04043  24699177.906                    24699186.070
 111682797.503 8  87025604.44846  21252497.922                    21252502.520
 118365915.064 7  92233194.57444  22524250.891                    22524258.012
 11  7 24  3 43  0.0000000  0  8G05G12G04G25G29G26G02G10
 106555972.372 8  83030907.231 8  20276945.820
 110838011.329 8  86367298.214 7  21091756.789
 128504414.199 7 100133411.43143  24453541.352                    24453548.953
 114022669.703 8  88848893.436 7  21697782.883
 121479564.457 6  94659478.797 6  23116784.328
 129699111.463 6 101064335.30043  24680930.625                    24680940.008
 111718566.252 8  87053476.19846  21259304.273                    21259309.359
 118456756.252 7  92303979.87944  22541536.789                    22541544.613
 11  7 24  3 43 30.0000000  0  8G05G12G04G25G29G26G02G10
 106553504.360 8  83028984.112 8  20276476.594
 110882573.651 8  86402022.106 7  21100236.570
 128585077.895 6 100196266.20942  24468891.578                    24468899.402
 113999113.590 8  88830538.028 7  21693300.211
 121396590.054 7  94594823.450 6  23100994.664
 129603125.198 6 100989540.88843  24662666.133                    24662674.176
 111754456.163 8  87081442.35646  21266133.625                    21266138.805
 118547916.137 7  92375013.54344  22558884.648                    22558891.383
 11  7 24  3 44  0.0000000  0  8G05G12G04G25G29G26G02G10
 106551608.862 8  83027507.127 8  20276115.969
 110927652.671 8  86437148.601 7  21108815.211
 128665689.602 6 100259080.53743  24484230.406                    24484239.016
 113976133.007 8  88812631.081 7  21688927.242
 121313642.304 7  94530188.852 6  23085210.406
 129507040.943 6 100914670.11543  24644381.078                    24644389.426
 111790466.505 8  87109502.35646  21272986.477                    21272991.246
 118639391.534 7  92446293.06344  22576291.500                    22576298.766
 11  7 24  3 44 30.0000000  0  8G05G12G04G25G29G26G02G10
 106550285.610 8  83026476.039 8  20275863.992
 110973246.549 8  86472676.289 7  21117491.219
 128746249.150 6 100321854.31042  24499560.664                    24499568.746
 113953728.755 8  88795173.234 7  21684663.516
 121230722.969 7  94465576.430 7  23069431.305
 129410861.730 6 100839725.36143  24626079.391                    24626087.707
 111826596.743 8  87137655.78746  21279861.930                    21279866.973
 118731179.509 7  92517816.15544  22593758.867                    22593765.039
 11  7 24  3 45  0.0000000  0  8G05G12G04G25G29G26G02G10
 106549533.995 8  83025890.373 8  20275720.664
 111019353.534 8  86508603.816 7  21126265.297
 128826756.402 6 100384587.05942  24514881.297                    24514888.891
 113931901.359 8  88778164.899 7  21680510.000
 121147833.288 7  94400987.118 6  23053657.359
 129314590.385 6 100764708.76843  24607758.016                    24607767.945
 111862846.409 8  87165902.27546  21286760.070                    21286764.965
 118823277.321 6  92589580.67744  22611283.836                    22611290.848
 11  7 24  3 45 30.0000000  0  8G05G12G04G25G29G26G02G10
 106549353.585 8  83025749.803 8  20275686.703
 111065971.953 8  86544929.851 7  21135136.000
 128907211.039 6 100447278.98242  24530191.047                    24530198.898
 113910651.625 8  88761606.690 7  21676466.031
 121064974.979 7  94336422.224 6  23037890.602
 129218230.230 6 100689622.99842  24589421.727                    24589430.234
 111899215.100 8  87194241.51946  21293680.727                    21293685.840
 118915682.098 7  92661584.39444  22628868.086                    22628874.984
 11  7 24  3 46  0.0000000  0  8G05G12G04G25G29G26G02G10
 106549743.392 8  83026053.581 8  20275760.273
 111113099.847 8  86581652.876 7  21144104.297
 128987612.600 6 100509929.56743  24545491.586                    24545499.195
 113889979.899 8  88745498.858 7  21672532.500
 120982149.511 7  94271882.930 6  23022129.523
 129121784.001 6 100614470.21542  24571068.695                    24571078.090
 111935702.187 8  87222673.02046  21300624.023                    21300628.988
 119008390.493 7  92733824.68144  22646510.078                    22646516.750
 11  7 24  3 46 30.0000000  0  8G05G12G04G25G29G26G02G10
 106550703.104 8  83026801.415 8  20275943.156
 111160735.342 8  86618771.424 7  21153168.922
 129067960.841 6 100572538.60343  24560780.992                    24560788.305
 113869886.911 8  88729841.994 7  21668709.086
 120899358.125 7  94207370.176 6  23006374.492
 129025254.768 6 100539252.68742  24552699.102                    24552709.281
 111972307.329 8  87251196.50846  21307589.695                    21307594.715
 119101400.139 7  92806299.72644  22664208.539                    22664215.723
 11  7 24  3 47  0.0000000  0  8G05G12G04G25G29G26G02G10
 106552232.041 8  83027992.808 8  20276234.586
 111208876.396 8  86656283.941 7  21162329.813
 129148255.681 6 100635105.96243  24576060.430                    24576068.387
 113850373.056 8  88714636.423 7  21664995.313
 120816602.439 7  94142885.249 6  22990626.633
 128928645.749 6 100463973.01342  24534315.609                    24534325.059
 112009029.736 8  87279811.36546  21314577.859                    21314582.922
 119194707.895 7  92879007.05244  22681964.891                    22681971.938
 11  7 24  3 47 30.0000000  0  8G05G12G04G25G29G26G02G10
 106554329.235 8  83029627.004 8  20276633.328
 111257520.866 8  86694188.708 7  21171586.648
 129228496.707 6 100697631.38443  24591329.938                    24591337.336
 113831438.726 8  88699882.425 7  21661392.484
 120733883.760 7  94078429.137 6  22974886.133
 128831959.735 6 100388633.38942  24515916.938                    24515926.004
 112045868.784 8  87308517.13446  21321587.992                    21321593.082
 119288310.817 7  92951944.37344  22699776.969                    22699784.207
 11  7 24  3 48  0.0000000  0  8G05G12G04G25G29G26G02G10
 106556994.337 8  83031703.723 8  20277140.328
 111306667.170 8  86732484.526 7  21180939.258
 129308683.721 6 100760114.75643  24606588.055                    24606596.441
 113813084.634 8  88685580.554 7  21657899.742
 120651203.927 7  94014003.320 6  22959152.008
 128735199.775 6 100313236.04842  24497504.063                    24497512.488
 112082823.988 8  87337313.39346  21328620.273                    21328625.020
 119382206.455 7  93025109.78044  22717644.875                    22717651.043
 11  7 24  3 48 30.0000000  0  8G05G12G04G25G29G26G02G10
 106560226.385 8  83034222.219 8  20277755.313
 111356313.372 8  86771169.889 7  21190386.328
 129388816.433 6 100822555.80643  24621836.422                    24621845.246
 113795310.988 8  88671730.986 7  21654517.852
 120568564.310 7  93949608.815 6  22943426.023
 128638369.239 6 100237783.74643  24479077.305                    24479086.352
 112119895.380 8  87366200.19746  21335674.617                    21335679.598
 119476391.405 7  93098500.63744  22735568.266                    22735574.301
 11  7 24  3 49  0.0000000  0  8G05G12G04G25G29G26G02G10
 106564024.905 8  83037182.107 8  20278478.258
 111406457.032 8  86810242.857 7  21199928.336
 129468894.670 7 100884954.35243  24637076.688                    24637084.031
 113778118.382 8  88658334.169 7  21651245.883
 120485966.480 7  93885246.901 6  22927708.820
 128541471.091 6 100162278.71143  24460639.469                    24460647.555
 112157082.029 8  87395176.82046  21342751.359                    21342756.199
 119570863.009 7  93172114.92144  22753545.234                    22753551.730
 11  7 24  3 49 30.0000000  0  8G05G12G04G25G29G26G02G10
 106568388.981 8  83040582.704 8  20279308.695
 111457096.159 8  86849701.891 7  21209564.570
 129548918.308 6 100947310.42843  24652304.453                    24652311.949
 113761507.043 8  88645390.291 7  21648085.305
 120403412.095 7  93820918.813 6  22911998.828
 128444508.222 6 100086723.26243  24442187.711                    24442195.855
 112194383.346 8  87424242.78446  21349849.320                    21349854.074
 119665618.339 7  93245950.24044  22771575.961                    22771582.992
 11  7 24  3 50  0.0000000  0  8G05G12G04G25G29G26G02G10
 106573317.960 8  83044423.471 8  20280246.844
 111508228.844 8  86889545.535 7  21219294.844
 129628887.183 6 101009623.80643  24667522.133                    24667529.680
 113745477.530 8  88632899.781 7  21645034.773
 120320902.577 7  93756625.730 6  22896298.664
 128347483.926 6 100011120.00443  24423723.992                    24423733.160
 112231799.173 8  87453397.96446  21356969.445                    21356973.793
 119760654.331 7  93320004.28044  22789660.750                    22789668.078
 11  7 24  3 50 30.0000000  0  8G05G12G04G25G29G26G02G10
 106578810.853 8  83048703.680 8  20281291.945
 111559853.074 8  86929772.206 7  21229119.031
 129708800.745 6 101071894.10743  24682728.273                    24682736.637
 113730030.065 8  88620862.814 7  21642095.109
 120238439.530 7  93692368.841 7  22880606.367
 128250401.274 6  99935471.25243  24405250.328                    24405258.371
 112269328.645 8  87482641.71646  21364111.094                    21364115.629
 119855968.025 7  93394274.68944  22807798.641                    22807805.871
 11  7 24  3 51  0.0000000  0  8G05G12G04G25G29G26G02G10
 106584867.396 8  83053423.075 8  20282444.547
 111611967.258 8  86970380.646 7  21239035.953
 129788659.355 6 101134121.57043  24697925.227                    24697933.273
 113715165.321 8  88609279.892 7  21639266.328
 120156024.721 7  93628149.564 6  22864922.406
 128153263.632 6  99859779.67544  24386765.266                    24386773.508
 112306972.123 8  87511974.28546  21371274.531                    21371279.012
 119951556.931 7  93468759.51244  22825988.211                    22825995.379
 11  7 24  3 51 30.0000000  0  8G05G12G04G25G29G26G02G10
 106591486.263 8  83058580.652 8  20283704.125
 111664568.726 8  87011368.805 7  21249045.375
 129868462.575 6 101196305.84943  24713111.727                    24713119.359
 113700883.231 8  88598150.999 7  21636548.328
 120073659.486 7  93563968.863 6  22849249.148
 128056073.885 6  99784047.47743  24368270.922                    24368278.863
 112344728.509 8  87541394.85846  21378459.039                    21378463.332
 120047418.182 6  93543456.58844  22844229.859                    22844237.387
 11  7 24  3 52  0.0000000  0  8G05G12G04G25G29G26G02G10
 106598666.413 8  83064175.583 8  20285070.383
 111717655.523 8  87052735.138 7  21259147.578
 129948209.897 7 101258446.60444  24728286.781                    24728294.711
 113687184.035 8  88587476.313 7  21633941.867
 119991345.582 7  93499828.208 6  22833585.344
 127958835.084 6  99708277.03043  24349766.891                    24349774.996
 112382597.471 8  87570903.13946  21385665.156                    21385670.340
 120143548.664 6  93618363.46744  22862523.328                    22862530.512
 11  7 24  3 52 30.0000000  0  8G05G12G04G25G29G26G02G10
 106606407.500 8  83070207.616 8  20286543.500
 111771225.900 8  87094478.281 7  21269341.453
 130027901.492 6 101320543.91043  24743451.633                    24743459.473
 113674068.298 8  88577256.252 7  21631446.055
 119909084.613 7  93435728.803 7  22817931.930
 127861550.650 6  99632471.07343  24331254.039                    24331262.887
 112420578.699 8  87600498.88446  21392893.102                    21392898.340
 120239945.823 7  93693478.11844  22880867.227                    22880875.441
 11  7 24  3 53  0.0000000  0  8G05G12G04G25G29G26G02G10
 106614707.827 8  83076675.422 8  20288122.797
 111825277.032 8  87136596.039 7  21279627.125
 130107537.014 6 101382597.47344  24758606.000                    24758614.434
 113661535.790 8  88567490.662 7  21629060.922
 119826877.810 7  93371671.607 7  22802287.664
 127764223.626 6  99556631.92143  24312732.391                    24312741.758
 112458671.723 8  87630181.78046  21400141.828                    21400146.543
 120336606.335 7  93768797.99344  22899261.484                    22899268.348
 11  7 24  3 53 30.0000000  0  8G05G12G04G25G29G26G02G10
 106623566.824 8  83083578.541 8  20289808.828
 111879806.970 8  87179086.894 7  21290004.156
 130187116.339 6 101444607.25443  24773749.359                    24773757.211
 113649586.917 8  88558179.858 7  21626787.234
 119744727.188 7  93307658.227 7  22786655.438
 127666857.033 5  99480761.94743  24294204.414                    24294214.336
 112496876.024 8  87659951.35246  21407412.234                    21407416.699
 120433527.618 7  93844321.07244  22917704.648                    22917711.770
 11  7 24  3 54  0.0000000  0  8G05G12G04G25G29G26G02G10
 106632983.345 8  83090916.106 8  20291600.734
 111934813.602 8  87221949.216 7  21300471.125
 130266639.440 6 101506573.25643  24788881.852                    24788890.020
 113638221.837 8  88549323.958 7  21624624.383
 119662634.307 7  93243689.769 6  22771033.609
 127569454.295 5  99404863.83342  24275669.406                    24275677.969
 112535191.253 8  87689807.38946  21414702.883                    21414707.984
 120530706.578 7  93920044.94044  22936197.414                    22936204.352
 11  7 24  3 54 30.0000000  0  8G05G12G04G25G29G26G02G10
 106642957.604 8  83098688.268 8  20293498.695
 111990295.016 8  87265181.465 7  21311029.172
 130346106.47916 101568495.54752  24804003.023                    24804012.723
 113627441.119 8  88540923.409 7  21622572.898
 119580601.313 7  93179768.039 7  22755423.227
 127472018.840 6  99328940.13443  24257128.328                    24257136.430
 112573617.417 8  87719749.84546  21422015.211                    21422019.793
 120628140.919 7  93995967.83344  22954738.477                    22954745.434
 11  7 24  3 55  0.0000000  0  8G05G12G04G25G29G26G02G10
 106653487.787 8  83106893.625 8  20295502.469
 112046248.589 8  87308781.642 7  21321676.734
 130425516.990 6 101630373.74542  24819114.969                    24819123.762
 113617244.443 8  88532977.927 7  21620632.742
 119498629.309 7  93115893.799 6  22739824.313
 127374553.729 6  99252993.30143  24238581.266                    24238589.570
 112612153.666 8  87749778.09146  21429348.367                    21429353.262
 120725827.189 7  94072087.00644  22973327.375                    22973334.648
 11  7 24  3 55 30.0000000  0  8G05G12G04G25G29G26G02G10
 106664572.793 8  83115531.298 8  20297611.813
 112102672.365 8  87352748.209 7  21332414.016
 130504871.028 6 101692208.03742  24834215.219                    24834224.348
 113607632.175 8  88525487.852 7  21618803.555
 119416720.040 7  93052068.449 7  22724237.281
 127277062.188 6  99177025.91643  24220028.898                    24220036.973
 112650799.927 8  87779892.06646  21436702.477                    21436707.891
 120823762.625 7  94148400.33744  22991963.906                    22991970.652
 11  7 24  3 56  0.0000000  0  8G05G12G04G25G29G26G02G10
 106676211.393 8  83124600.348 8  20299826.852
 112159563.883 8  87397079.257 7  21343239.977
 130584168.041 5 101753997.91342  24849306.313                    24849314.320
 113598604.052 8  88518452.960 7  21617085.391
 119334875.146 7  92988293.289 6  22708662.758
 127179547.165 7  99101040.18543  24201472.453                    24201479.832
 112689555.566 7  87810091.26546  21444077.984                    21444083.191
 120921944.481 6  94224905.67344  23010646.758                    23010654.605
 11  7 24  3 56 30.0000000  0  8G05G12G04G25G29G26G02G10
 106688402.588 8  83134099.997 8  20302146.359
 112216920.787 8  87441772.939 7  21354154.336
 130663408.103 5 101815743.31042  24864385.516                    24864394.020
 113590160.013 8  88511873.199 7  21615478.500
 119253096.455 7  92924569.693 7  22693100.859
 127082012.067 7  99025038.81843  24182912.563                    24182919.316
 112728420.176 8  87840375.39246  21451473.078                    21451478.398
 121020369.898 7  94301600.81444  23029376.445                    23029384.383
 11  7 24  3 57  0.0000000  0  8G05G12G04G25G29G26G02G10
 106701145.494 8  83144029.545 8  20304571.375
 112274741.143 8  87486827.758 7  21365157.555
 130742590.939 6 101877233.11652  24879453.859                    24879461.914
 113582300.361 8  88505748.799 7  21613982.805
 119171385.687 7  92860899.017 6  22677551.805
 126984460.171 7  98949024.29243  24164348.867                    24164356.566
 112767393.428 8  87870744.16746  21458889.516                    21458894.512
 121119035.907 7  94378483.44344  23048151.781                    23048159.871
